     2              OBSERVATION DATA    GPS                 RINEX VERSION / TYPE
teqc 1997Jul24 19970902 21:16:19UTC                         PGM / RUN BY / DATE
                                                            COMMENT
BIT 2 OF LLI FLAGS DATA COLLECTED UNDER A-S CONDITION       COMMENT
BIT 2 OF LLI FLAGS DATA COLLECTED UNDER A-S CONDITION       COMMENT
Original Marker Name: 55496.YUMA                            COMMENT
Campaign Name: Salt. Tr. Crust. Monit. May-Jun 1986         COMMENT
4-Character Station Name: YUMA                              COMMENT
6-Character Antenna Code: TI4100                            COMMENT
Vertical Measurement Point: PAE                             COMMENT
Vertical Offset to Rinex Ref. Point: 0.0000                 COMMENT
Radial Measurement Point: RRP                               COMMENT
Radial Offset to Rinex Ref. Point: 0.0000                   COMMENT
Antenna Height from Field Measurement: 1.4480 m             COMMENT
Original XYZ: -2197395.3381 -4889426.3693 3444652.3504      COMMENT
New XYZ position is based on association with SCEC monument COMMENT
E1C9S0R6+0011. Position of that monument is believed to be  COMMENT
valid to within 1 m horizontally; vertical accuracy         COMMENT
should be no worse than 3-times this value.                 COMMENT
                                                            COMMENT
Revised Rinex header created by UCSD GPS archive for        COMMENT
GSAC on 12-Apr-1999 (1999:102) 01:31:11 GMT                 COMMENT
For assistance contact dagnew@ucsd.edu or hjohnson@ucsd.edu COMMENT
                                                            COMMENT
YUMA NCMN 1983                                              MARKER NAME
5 NATIONAL GEODETIC SURVEY                                  OBSERVER / AGENCY
UT04 TI 4100 1.0                                            REC # / TYPE / VERS
108 TI 4100                                                 ANT # / TYPE
 -2196778.0000 -4887337.0000  3448425.0000                  APPROX POSITION XYZ
        1.4480        0.0000        0.0000                  ANTENNA: DELTA H/E/N
     1     1     0                                          WAVELENGTH FACT L1/2
     4    P1    P2    L1    L2                              # / TYPES OF OBSERV
     6                                                      INTERVAL
  1986     6    19    22    50    0.000000                  TIME OF FIRST OBS
  1986     6    20     0    39   29.000000                  TIME OF LAST OBS
     0                                                      # OF SATELLITES
                                                            END OF HEADER
 86  6 19 22 50  0.0600000  0  1G11
  20123774.014    20123779.807      219292.918 8    -31661.385 7
 86  6 19 22 51  5.0800000  0  1G11
  20098483.636    20098489.705       86385.480 8   -135225.594 7
 86  6 19 22 51 11.0800000  0  1G11
  20096172.517    20096179.221       74244.259 7   -144686.288 7
 86  6 19 22 51 17.0800000  0  1G11
  20093865.567    20093872.691       62124.049 8   -154130.601 7
 86  6 19 22 51 23.0800000  0  1G11
  20091565.072    20091570.700       50024.780 8   -163558.589 7
 86  6 19 22 51 29.0800000  0  1G11
  20089267.159    20089272.197       37946.468 8   -172970.268 8
 86  6 19 22 51 35.0800000  0  1G11
  20086972.217    20086977.086       25889.085 7   -182365.615 7
 86  6 19 22 51 41.0800000  0  1G11
  20084681.761    20084687.736       13852.586 9   -191744.710 8
 86  6 19 22 51 47.0800000  0  1G11
  20082394.947    20082399.933        1836.923 9   -201107.560 7
 86  6 19 22 51 53.0800000  0  1G11
  20080111.984    20080117.748      -10157.809 8   -210454.101 7
 86  6 19 22 51 59.0800000  0  1G11
  20077833.366    20077838.902      -22131.668 7   -219784.379 7
 86  6 19 22 52 23.0800000  0  1G 9
                  22528646.967     -793046.349 5
 86  6 19 22 52 29.0800000  0  2G 8G 9
                  19783512.833     -686752.959 9
                  22525243.670     -810877.935 6
 86  6 19 22 52 35.0800000  0  2G 8G 9
                  19785405.439     -676771.424 9
                  22521862.028     -828710.663 8
 86  6 19 22 52 41.0800000  0  3G 6G 8G 9
                  19991643.870     -792939.000 9
                  19787340.592     -666766.485 8
                  22518489.594     -846545.364 7
 86  6 19 22 52 47.0800000  0  4G 6G 8G 9G11
                  19989853.593     -802396.990 9
  19789250.718    19789256.123     -656736.509 8   1256140.724 9
  22515097.327    22515104.633     -864380.364 7   1248198.622 7
                  20059714.353     -819741.446 9
 86  6 19 22 52 53.0800000  0  4G 6G 8G 9G11
                  19988079.914     -811846.741 8
  19791163.431    19791168.631     -646682.251 9   1263975.236 8
  22511701.833    22511708.091     -882216.516 7   1234300.369 7
                  20057478.219     -831525.749 9
 86  6 19 22 52 59.0800000  0  4G 6G 8G 9G11
  19986283.999    19986285.832     -821287.831 9   1339262.077 7
  19793080.518    19793086.235     -636603.919 9   1271828.973 7
  22508308.192    22508314.693     -900053.856 7   1220401.152 8
                  20055267.107     -843289.713 8
 86  6 19 22 53  5.0800000  0  4G 6G 8G 9G11
  19984488.762    19984490.585     -830720.627 8   1331911.821 8
  19795003.340    19795007.697     -626501.676 9   1279700.864 8
  22504913.805    22504918.320     -917892.633 7   1206500.812 7
  20053032.988    20053037.029     -855032.024 8   1384042.769 6
 86  6 19 22 53 11.0800000  0  4G 6G 8G 9G11
  19982694.206    19982697.806     -840145.022 9   1324568.640 8
  19796931.058    19796936.055     -616375.473 9   1287591.391 8
  22501518.771    22501525.897     -935732.684 7   1192599.497 7
  20050802.213    20050808.181     -866753.364 8   1374909.215 7
 86  6 19 22 53 17.0800000  0  4G 6G 8G 9G11
  19980902.770    19980906.888     -849561.047 9   1317231.478 8
  19798861.600    19798867.227     -606225.327 9   1295500.604 8
  22498123.916    22498129.792     -953574.036 8   1178697.151 7
  20048577.144    20048582.433     -878453.684 8   1365792.589 7
 86  6 19 22 53 23.0800000  0  4G 6G 8G 9G11
  19979113.251    19979115.709     -858968.696 9   1309900.849 9
  19800798.395    19800801.957     -596051.236 9   1303428.465 9
  22494728.873    22494735.480     -971416.659 6   1164793.821 7
  20046354.016    20046359.559     -890132.988 9   1356691.821 8
 86  6 19 22 53 29.0800000  0  4G 6G 8G 9G11
  19977324.779    19977327.824     -868367.922 9   1302576.774 8
  19802737.960    19802743.400     -585853.250 9   1311374.940 8
  22491334.904    22491340.120     -989260.568 7   1150889.483 8
  20044135.210    20044141.025     -901791.260 9   1347607.478 8
 86  6 19 22 53 35.0800000  0  4G 6G 8G 9G11
  19975538.134    19975540.761     -877758.593 8   1295259.360 9
  19804682.431    19804689.624     -575631.340 8   1319340.064 9
  22487937.721    22487942.173    -1007105.617 8   1136984.245 8
  20041921.578    20041926.813     -913428.403 9   1338539.568 8
 86  6 19 22 53 41.0800000  0  4G 6G 8G 9G11
  19973752.078    19973755.933     -887140.687 9   1287948.631 8
  19806633.374    19806638.283     -565385.387 9   1327323.916 8
  22484541.278    22484546.735    -1024951.701 8   1123078.209 8
  20039710.247    20039715.282     -925044.334 8   1329488.201 7
 86  6 19 22 53 47.0800000  0  4G 6G 8G 9G11
  19971969.210    19971971.662     -896514.186 8   1280644.616 9
  19808587.830    19808592.982     -555115.445 8   1335326.466 8
  22481144.623    22481151.229    -1042798.928 7   1109171.273 7
  20037504.333    20037510.581     -936639.069 9   1320453.346 7
 86  6 19 22 53 53.0800000  0  4G 6G 8G 9G11
  19970186.330    19970188.914     -905879.140 8   1273347.236 8
  19810546.425    19810550.742     -544821.651 9   1343347.612 8
  22477749.044    22477753.732    -1060647.322 8   1095263.450 7
  20035302.126    20035307.060     -948212.671 9   1311434.965 8
 86  6 19 22 53 59.0800000  0  4G 6G 8G 9G11
  19968405.883    19968409.011     -915235.313 9   1266056.712 8
  19812509.698    19812514.592     -534503.710 9   1351387.546 9
  22474352.071    22474357.282    -1078496.633 8   1081354.914 8
  20033104.635    20033109.682     -959764.894 8   1302433.229 8
 86  6 19 22 54  5.0800000  0  4G 6G 8G 9G11
  19966626.724    19966630.519     -924582.741 8   1258773.005 8
  19814477.723    19814482.028     -524161.804 8   1359446.186 8
  22470955.882    22470961.348    -1096346.879 7   1067445.623 8
  20030909.808    20030915.397     -971295.819 8   1293448.086 7
 86  6 19 22 54 11.0800000  0  4G 6G 8G 9G11
  19964848.852    19964853.477     -933921.419 9   1251496.103 8
  19816450.586    19816455.690     -513795.936 9   1367523.487 8
  22467558.580    22467564.185    -1114198.172 6   1053535.548 8
  20028718.991    20028724.517     -982805.379 9   1284479.600 8
 86  6 19 22 54 17.0800000  0  4G 6G 8G 9G11
  19963073.660    19963077.744     -943251.233 9   1244226.130 8
  19818426.573    19818432.421     -503405.953 9   1375619.565 8
  22464161.972    22464167.783    -1132050.328 7   1039624.775 7
  20026533.960    20026538.587     -994293.473 8   1275527.851 7
 86  6 19 22 54 23.0800000  0  4G 6G 8G 9G11
  19961300.568    19961304.474     -952572.165 9   1236963.054 9
  19820409.596    19820413.602     -492991.998 9   1383734.344 8
  22460763.488    22460769.064    -1149903.261 8   1025713.402 8
  20024351.154    20024356.652    -1005760.168 8   1266592.751 7
 86  6 19 22 54 29.0800000  0  4G 6G 8G 9G11
  21035336.088    21035340.337     -961900.217 9   1229738.506 9
  20898201.541    20898206.580     -482581.833 9   1391890.198 8
  23533174.991    23533182.182    -1167767.994 7   1011836.893 8
  21097981.029    21097986.768    -1017220.192 7   1257706.917 7
 86  6 19 22 54 35.0800000  0  4G 6G 8G 9G11
  21033566.058    21033569.799     -971203.520 8   1222489.157 9
  20900191.750    20900196.312     -472120.055 9   1400042.238 8
  23529777.361    23529784.686    -1185622.834 7    997924.030 8
  21095807.635    21095812.242    -1028644.183 8   1248805.107 8
 86  6 19 22 54 41.0800000  0  4G 6G 8G 9G11
  21031797.117    21031801.905     -980497.919 9   1215246.773 9
  20902187.044    20902192.114     -461634.321 8   1408212.939 8
  23526379.206    23526386.238    -1203478.559 7    984010.491 8
  21093637.015    21093640.766    -1040046.706 8   1239920.041 8
 86  6 19 22 54 47.0800000  0  4G 6G 8G 9G11
  21030028.806    21030034.909     -989783.583 9   1208011.190 8
  20904187.562    20904191.298     -451124.843 9   1416402.147 8
  23522981.688    23522987.546    -1221335.265 8    970096.183 7
  21091470.917    21091477.085    -1051427.861 8   1231051.589 8
 86  6 19 22 54 53.0800000  0  4G 6G 8G 9G11
  21028264.826    21028269.520     -999060.455 9   1200782.451 8
  20906191.978    20906195.818     -440591.561 9   1424609.892 8
  23519584.120    23519589.136    -1239192.909 7    956181.133 8
  21089308.799    21089315.207    -1062787.659 9   1222199.814 7
 86  6 19 22 54 59.0800000  0  4G 6G 8G 9G11
  21026500.722    21026505.383    -1008328.633 9   1193560.513 8
  20908200.737    20908205.172     -430034.692 9   1432836.015 8
  23516186.145    23516191.875    -1257051.619 8    942265.269 7
  21087152.002    21087157.283    -1074126.163 8   1213364.634 7
 86  6 19 22 55  5.0800000  0  4G 6G 8G 9G11
  21024739.210    21024744.027    -1017588.210 9   1186345.254 9
  20910214.326    20910218.299     -419454.314 9   1441080.469 8
  23512786.990    23512792.120    -1274911.581 7    928348.436 7
  21084998.298    21085003.550    -1085443.501 7   1204545.913 7
 86  6 19 22 55 11.0800000  0  4G 6G 8G 9G11
  21022978.381    21022983.526    -1026838.984 8   1179136.846 8
  20912231.595    20912236.119     -408850.303 9   1449343.336 7
  23509388.364    23509394.029    -1292772.445 8    914430.889 7
  21082847.166    21082854.279    -1096739.584 9   1195743.782 8
 86  6 19 22 55 17.0800000  0  4G 6G 8G 9G11
  21021219.292    21021224.499    -1036081.012 9   1171935.269 8
  20914254.012    20914258.408     -398222.733 9   1457624.555 8
  23505988.834    23505994.130    -1310634.339 8    900512.532 7
  21080702.334    21080710.117    -1108014.404 8   1186958.213 7
 86  6 19 22 55 23.0800000  0  4G 6G 8G 9G11
  21019461.769    21019467.832    -1045314.234 8   1164740.560 8
  20916280.958    20916286.000     -387571.588 9   1465924.146 8
  23502589.071    23502595.131    -1328497.227 8    886593.385 7
  21078559.790    21078567.002    -1119267.912 7   1178189.257 8
 86  6 19 22 55 29.0800000  0  4G 6G 8G 9G11
  21017707.402    21017711.889    -1054538.509 9   1157552.807 9
  20918313.260    20918315.759     -376896.760 9   1474242.200 8
  23499190.210    23499195.397    -1346361.041 8    872673.542 6
  21076424.143    21076429.538    -1130499.996 8   1169436.975 8
 86  6 19 22 55 35.0800000  0  4G 6G 8G 9G11
  21015954.902    21015958.212    -1063753.950 8   1150371.942 9
  20920347.766    20920352.284     -366198.415 9   1482578.558 7
  23495790.470    23495796.171    -1364225.793 8    858752.969 7
  21074290.357    21074296.479    -1141710.737 8   1160701.337 8
 86  6 19 22 55 41.0800000  0  4G 6G 8G 9G11
  21014201.543    21014207.467    -1072960.502 8   1143198.012 8
  20922388.727    20922392.596     -355476.434 9   1490933.353 7
  23492389.922    23492397.369    -1382091.469 7    844831.671 7
  21072161.030    21072166.670    -1152900.024 7   1151982.417 8
 86  6 19 22 55 47.0800000  0  4G 6G 8G 9G11
  21012451.465    21012456.801    -1082157.992 8   1136031.131 8
  20924433.752    20924438.761     -344730.816 8   1499306.555 7
  23488990.573    23488997.522    -1399957.989 8    830909.707 8
  21070036.231    21070043.273    -1164067.759 8   1143280.287 7
 86  6 19 22 55 53.0800000  0  4G 6G 8G 9G11
  21010703.377    21010708.061    -1091346.471 9   1128871.277 9
  20926483.400    20926486.661     -333961.601 9   1507698.151 8
  23485590.088    23485598.691    -1417825.319 8    816987.126 7
  21067915.379    21067921.433    -1175213.930 8   1134594.974 7
 86  6 19 22 55 59.0800000  0  4G 6G 8G 9G11
  21008956.813    21008960.238    -1100525.932 9   1121718.452 9
  20928536.619    20928540.361     -323168.789 8   1516108.129 8
  23482190.484    23482197.613    -1435693.405 7    803063.939 8
  21065798.164    21065804.417    -1186338.563 8   1125926.430 8
 86  6 19 22 56  5.0800000  0  4G 6G 8G 9G11
  21007210.519    21007217.059    -1109696.401 9   1114572.629 9
  20930594.584    20930598.725     -312352.463 8   1524536.431 7
  23478791.090    23478797.840    -1453562.257 8    789140.184 8
  21063685.325    21063692.177    -1197441.728 8   1117274.630 8
 86  6 19 22 56 11.0800000  0  4G 6G 8G 9G11
  21005467.975    21005472.440    -1118857.812 9   1107433.856 9
  20932656.510    20932663.737     -301512.643 7   1532983.048 8
  23475390.588    23475397.129    -1471432.016 7    775215.704 8
  21061575.348    21061582.719    -1208523.367 7   1108639.581 7
 86  6 19 22 56 17.0800000  0  4G 6G 8G 9G11
  21003725.977    21003730.791    -1128010.212 9   1100302.114 8
  20934724.768    20934729.003     -290649.366 9   1541447.930 7
  23471989.344    23471995.840    -1489302.642 8    761290.559 8
  21059473.269    21059478.105    -1219583.541 8   1100021.272 8
 86  6 19 22 56 23.0800000  0  4G 6G 8G 9G11
  21001986.618    21001990.781    -1137153.542 8   1093177.454 9
  20936796.862    20936801.260     -279762.591 9   1549931.133 8
  23468588.256    23468594.725    -1507173.950 9    747364.865 8
  21057371.507    21057378.116    -1230622.109 8   1091419.790 7
 86  6 19 22 56 29.0800000  0  4G 6G 8G 9G11
  21000248.640    21000253.274    -1146287.727 9   1086059.903 9
  20938872.815    20938876.848     -268852.323 9   1558432.645 7
  23465187.948    23465193.545    -1525046.065 8    733438.549 9
  21055275.324    21055281.036    -1241639.116 8   1082835.115 8
 86  6 19 22 56 35.0800000  0  4G 6G 8G 9G11
  20998511.116    20998516.755    -1155412.694 8   1078949.533 8
  20940953.511    20940957.298     -257918.543 8   1566952.457 8
  23461787.649    23461794.152    -1542918.861 9    719511.704 8
  21053182.803    21053188.314    -1252634.479 8   1074267.299 8
 86  6 19 22 56 41.0800000  0  4G 6G 8G 9G11
  20996776.508    20996781.407    -1164528.612 8   1071846.233 9
  20943038.781    20943041.822     -246961.360 9   1575490.524 8
  23458384.751    23458391.290    -1560792.395 8    705584.285 7
  21051093.892    21051101.705    -1263608.211 8   1065716.346 6
 86  6 19 22 56 47.0800000  0  4G 6G 8G 9G11
  20995044.425    20995048.656    -1173635.372 9   1064750.056 8
  20945127.048    20945131.161     -235980.833 9   1584046.771 8
  23454984.021    23454990.216    -1578666.647 8    691656.305 8
  21049010.044    21049016.813    -1274560.332 8   1057182.233 8
 86  6 19 22 56 53.0800000  0  4G 6G 8G 9G11
  20993313.184    20993317.592    -1182732.953 9   1057661.025 9
  20947221.874    20947225.244     -224976.902 9   1592621.264 7
  23451581.898    23451588.278    -1596541.717 8    677727.685 8
  21046930.287    21046935.612    -1285490.870 8   1048664.934 8
 86  6 19 22 56 59.0800000  0  4G 6G 8G 9G11
  20991583.225    20991588.130    -1191821.332 8   1050579.166 8
  20949319.912    20949323.617     -213949.603 9   1601213.979 8
  23448181.639    23448186.881    -1614417.455 8    663798.546 8
  21044853.138    21044860.820    -1296399.697 8   1040164.533 9
 86  6 19 22 57  5.0800000  0  4G 6G 8G 9G11
  20989855.479    20989860.869    -1200900.505 8   1043504.493 9
  20951423.982    20951427.084     -202898.929 9   1609824.875 8
  23444779.261    23444784.457    -1632293.897 8    649868.857 8
  21042783.110    21042789.091    -1307286.955 9   1031680.978 8
 86  6 19 22 57 11.0800000  0  4G 6G 8G 9G11
  20988129.489    20988134.005    -1209970.475 7   1036436.977 9
  20953530.291    20953534.716     -191824.969 9   1618453.949 8
  23441377.446    23441383.342    -1650171.015 8    635938.654 8
  21040715.118    21040720.169    -1318152.519 8   1023214.295 8
 86  6 19 22 57 17.0800000  0  4G 6G 8G 9G11
  20986404.856    20986409.721    -1219031.206 9   1029376.673 8
  20955641.280    20955646.888     -180727.707 8   1627101.146 8
  23437974.555    23437981.788    -1668048.805 8    622007.900 8
  21038651.819    21038657.257    -1328996.434 8   1014764.498 7
 86  6 19 22 57 23.0800000  0  4G 6G 8G 9G11
  20984682.535    20984687.392    -1228082.626 9   1022323.616 9
  20957757.415    20957761.940     -169607.138 9   1635766.527 8
  23434573.122    23434579.885    -1685927.299 9    608076.622 8
  21036593.698    21036598.091    -1339818.652 8   1006331.615 7
 86  6 19 22 57 29.0800000  0  4G 6G 8G 9G11
  20982961.670    20982966.516    -1237124.780 8   1015277.785 9
  20959878.973    20959882.006     -158463.320 9   1644450.021 8
  23431170.692    23431176.908    -1703806.384 9    594144.892 8
  21034537.151    21034543.318    -1350619.112 8    997915.666 8
 86  6 19 22 57 35.0800000  0  4G 6G 8G 9G11
  20981242.039    20981248.217    -1246157.656 8   1008239.185 8
  20962003.892    20962008.159     -147296.267 8   1653151.614 7
  23427768.560    23427774.277    -1721686.017 9    580212.714 9
  21032484.929    21032491.467    -1361397.826 8    989516.678 7
 86  6 19 22 57 41.0800000  0  4G 6G 8G 9G11
  20979525.966    20979531.097    -1255181.186 8   1001207.866 9
  20964132.382    20964137.684     -136105.974 8   1661871.325 8
  23424364.911    23424372.537    -1739566.261 8    566280.070 7
  21030437.568    21030445.149    -1372154.855 8    981134.584 7
 86  6 19 22 57 47.0800000  0  4G 6G 8G 9G11
  20977810.138    20977815.534    -1264195.457 9    994183.754 7
  20966266.822    20966271.999     -124892.599 9   1670609.013 8
  23420963.486    23420969.482    -1757447.257 9    552346.837 8
  21028395.502    21028401.028    -1382890.291 8    972769.317 8
 86  6 19 22 57 53.0800000  0  4G 6G 8G 9G11
  20976096.899    20976101.947    -1273200.447 9    987166.883 9
  20968405.453    20968409.740     -113656.093 9   1679364.713 7
  23417560.402    23417566.584    -1775328.932 7    538413.063 8
  21026357.415    21026363.739    -1393604.005 8    964420.961 8
 86  6 19 22 57 59.0800000  0  4G 6G 8G 9G11
  20974385.119    20974390.506    -1282196.183 9    980157.214 9
  20970547.838    20970553.059     -102396.537 8   1688138.410 8
  23414156.534    23414163.337    -1793211.313 8    524478.750 8
  21024322.991    21024327.455    -1404296.130 8    956089.442 8
 86  6 19 22 58  5.0800000  0  4G 6G 8G 9G11
  20972674.636    20972679.866    -1291182.623 9    973154.793 9
  20972694.995    20972699.550      -91113.948 9   1696930.035 8
  23410755.344    23410760.146    -1811094.356 9    510543.914 8
  21022292.117    21022298.070    -1414966.516 8    947774.851 7
 86  6 19 22 58 11.0800000  0  4G 6G 8G 9G11
  20970967.591    20970971.243    -1300159.920 8    966159.502 8
  20974846.582    20974851.177      -79808.480 8   1705739.485 8
  23407351.215    23407356.596    -1828978.224 8    496608.444 8
  21020265.333    21020271.159    -1425615.363 8    939477.054 8
 86  6 19 22 58 17.0800000  0  4G 6G 8G 9G11
  20969259.963    20969266.073    -1309127.908 8    959171.461 8
  20977001.554    20977006.906      -68480.036 8   1714566.851 7
  23403947.582    23403953.800    -1846862.716 7    482672.503 8
  21018242.958    21018250.266    -1436242.578 8    931196.133 7
 86  6 19 22 58 23.0800000  0  4G 6G 8G 9G11
  20967554.756    20967560.814    -1318086.548 9    952190.707 9
  20979161.216    20979166.306      -57128.642 9   1723412.088 8
  23400545.686    23400550.852    -1864747.893 9    468736.002 8
  21016225.674    21016230.914    -1446848.152 8    922932.047 8
 86  6 19 22 58 29.0800000  0  4G 6G 8G 9G11
  20965851.820    20965857.562    -1327035.870 8    945217.207 8
  20981326.279    20981330.730      -45754.319 8   1732275.185 8
  23397141.071    23397146.924    -1882633.687 7    454799.023 8
  21014210.484    21014217.050    -1457432.035 8    914684.867 8
 86  6 19 22 58 35.0800000  0  4G 6G 8G 9G11
  20964150.924    20964156.428    -1335975.763 9    938251.056 8
  20983494.934    20983498.822      -34357.074 9   1741156.155 7
  23393736.070    23393742.718    -1900520.063 8    440861.604 8
  21012201.358    21012207.094    -1467994.093 8    906454.690 7
 86  6 19 22 58 41.0800000  0  4G 6G 8G 9G11
  20962451.641    20962456.593    -1344906.207 9    931292.274 8
  20985667.599    20985673.890      -22936.802 9   1750055.075 7
  23390332.659    23390338.888    -1918406.945 8    426923.780 9
  21010194.491    21010201.605    -1478534.341 6    898241.515 7
 86  6 19 22 58 47.0800000  0  4G 6G 8G 9G11
  20960754.437    20960759.369    -1353827.166 9    924340.879 9
  20987845.367    20987849.707      -11493.573 8   1758971.870 8
  23386929.049    23386935.169    -1936294.342 7    412985.581 8
  21008192.981    21008200.323    -1489052.745 8    890045.370 8
 86  6 19 22 58 53.0800000  0  4G 6G 8G 9G11
  20959058.867    20959063.003    -1362738.643 8    917396.868 8
  20990027.769    20990031.039         -27.418 8   1767906.536 9
  23383526.753    23383531.664    -1954182.229 8    399046.981 8
  21006196.247    21006202.458    -1499549.310 7    881866.210 8
 86  6 19 22 58 59.0800000  0  4G 6G 8G 9G11
  20957365.031    20957369.349    -1371640.456 8    910460.399 8
  20992214.656    20992217.603       11461.810 8   1776859.183 8
  23380121.713    23380127.450    -1972070.556 8    385108.031 8
  21004202.005    21004209.506    -1510023.878 8    873704.224 8
 86  6 19 22 59  5.0800000  0  4G 6G 8G 9G11
  20955672.600    20955676.995    -1380532.682 8    903531.393 8
  20994404.817    20994410.841       22973.924 8   1785829.668 8
  23376717.855    23376722.663    -1989959.330 8    371168.725 8
  21002212.967    21002219.008    -1520476.610 8    865559.236 6
 86  6 19 22 59 11.0800000  0  4G 6G 8G 9G11
  20953982.014    20953986.216    -1389415.312 8    896609.857 8
  20996599.544    20996604.794       34508.986 9   1794818.006 8
  23373313.105    23373319.343    -2007848.540 6    357229.086 8
  21000227.824    21000235.180    -1530907.444 8    857431.320 7
 86  6 19 22 59 17.0800000  0  4G 6G 8G 9G11
  20952293.603    20952297.835    -1398288.396 8    889695.773 9
  20998799.128    20998803.807       46066.871 8   1803824.137 7
  23369910.063    23369915.393    -2025738.209 7    343289.103 8
  20998248.805    20998252.928    -1541316.425 7    849320.430 7
 86  6 19 22 59 23.0800000  0  4G 6G 8G 9G11
  20950606.520    20950612.374    -1407151.936 8    882789.122 9
  21001002.777    21001007.870       57647.560 8   1812848.054 8
  23366504.511    23366509.355    -2043628.324 7    329348.764 9
  20996271.245    20996277.300    -1551703.547 8    841226.570 8
 86  6 19 22 59 29.0800000  0  4G 6G 8G 9G11
  20948921.215    20948926.950    -1416005.957 9    875889.878 8
  21003211.572    21003215.888       69250.953 8   1821889.663 8
  23363100.098    23363106.022    -2061519.009 7    315407.980 8
  20994299.383    20994306.938    -1562068.864 8    833149.706 7
 86  6 19 22 59 35.0800000  0  4G 6G 8G 9G11
  20947240.235    20947243.318    -1424850.473 9    868998.059 8
  21005423.549    21005429.208       80877.044 8   1830948.940 7
  23359694.167    23359701.748    -2079410.227 7    301466.786 8
  20992330.296    20992337.320    -1572412.368 8    825089.834 7
 86  6 19 22 59 41.0800000  0  4G 6G 8G 9G11
  20945557.471    20945562.419    -1433685.354 8    862113.721 8
  21007640.615    21007645.738       92525.803 9   1840025.891 8
  23356290.854    23356296.204    -2097301.896 7    287525.239 8
  20990366.243    20990371.308    -1582734.038 8    817046.980 8
 86  6 19 22 59 47.0800000  0  4G 6G 8G 9G11
  20943878.948    20943882.949    -1442510.595 8    855236.918 8
  21009862.159    21009866.727      104197.366 8   1849120.624 8
  23352885.087    23352892.879    -2115193.990 6    273583.353 8
  20988405.797    20988412.836    -1593033.767 7    809021.224 7
 86  6 19 22 59 53.0800000  0  4G 6G 8G 9G11
  20942201.730    20942204.865    -1451326.115 9    848367.686 8
  21012087.104    21012091.546      115891.610 9   1858233.010 7
  23349479.871    23349486.183    -2133086.524 7    259641.137 8
  20986450.559    20986457.414    -1603311.533 7    801012.581 7
 86  6 19 22 59 59.0800000  0  4G 6G 8G 9G11
  20940525.151    20940529.770    -1460131.936 8    841506.008 9
  21014315.973    21014320.591      127608.594 9   1867363.125 8
  23346076.130    23346083.155    -2150979.315 7    245698.713 8
  20984499.587    20984505.054    -1613567.316 8    793021.069 7
 86  6 19 23  0  5.0800000  0  4G 6G 8G 9G11
  20938851.668    20938855.753    -1468928.071 8    834651.872 8
  21016549.937    21016555.764      139348.280 9   1876510.922 8
  23342670.319    23342677.939    -2168872.520 8    231755.971 8
  20982552.450    20982556.386    -1623801.138 9    785046.652 8
 86  6 19 23  0 11.0800000  0  4G 6G 8G 9G11
  20937178.975    20937182.897    -1477714.440 8    827805.361 8
  21018789.530    21018792.640      151110.682 9   1885676.434 7
  23339264.352    23339272.474    -2186765.971 6    217813.034 8
  20980608.746    20980613.895    -1634012.869 8    777089.474 8
 86  6 19 23  0 17.0800000  0  4G 6G 8G 9G11
  20935509.366    20935513.674    -1486491.102 9    820966.404 9
  21021030.971    21021035.343      162895.630 8   1894859.506 8
  23335860.115    23335865.822    -2204659.808 7    203869.800 9
  20978670.907    20978674.862    -1644202.642 8    769149.385 8
 86  6 19 23  0 23.0800000  0  4G 6G 8G 9G11
  20933841.283    20933845.396    -1495257.974 9    814135.071 9
  21023279.750    21023282.315      174703.186 8   1904060.200 8
  23332455.196    23332461.483    -2222554.013 7    189926.267 9
  20976734.904    20976740.572    -1654370.478 8    761226.413 7
 86  6 19 23  0 29.0800000  0  4G 6G 8G 9G11
  20932174.217    20932179.194    -1504015.164 9    807311.275 8
  21025529.209    21025534.652      186533.273 9   1913278.439 8
  23329050.064    23329056.612    -2240448.677 7    175982.387 9
  20974803.934    20974809.070    -1664516.356 8    753320.530 7
 86  6 19 23  0 35.0800000  0  4G 6G 8G 9G11
  20930510.230    20930513.952    -1512762.568 8    800495.128 9
  21027785.082    21027790.806      198385.913 8   1922514.265 8
  23325643.455    23325650.501    -2258343.619 7    162038.282 8
  20972876.373    20972882.754    -1674640.157 7    745431.848 7
 86  6 19 23  0 41.0800000  0  4G 6G 8G 9G11
  20928846.405    20928851.483    -1521500.151 9    793686.612 8
  21030045.775    21030048.766      210261.054 9   1931767.617 8
  23322239.367    23322246.072    -2276238.811 6    148094.002 8
  20970956.764    20970961.600    -1684741.976 8    737560.312 7
 86  6 19 23  0 47.0800000  0  4G 6G 8G 9G11
  20927187.633    20927190.157    -1530227.995 8    786885.706 8
  21032308.896    21032313.024      222158.635 8   1941038.458 7
  23318834.454    23318840.077    -2294134.377 6    134149.419 9
  20969039.303    20969042.153    -1694821.860 9    729705.854 8
 86  6 19 23  0 53.0800000  0  4G 6G 8G 9G11
  20925527.562    20925531.784    -1538946.050 9    780092.423 9
  21034577.407    21034582.669      234078.664 9   1950326.788 8
  23315427.378    23315434.754    -2312030.426 6    120204.472 8
  20967123.847    20967128.269    -1704879.843 8    721868.467 7
 86  6 19 23  0 59.0800000  0  4G 6G 8G 9G11
  20923870.339    20923875.123    -1547654.144 8    773306.889 8
  21036849.592    21036854.272      246021.225 8   1959632.682 9
  23312022.634    23312029.245    -2329926.537 6    106259.458 8
  20965215.142    20965218.776    -1714915.707 8    714048.309 8
 86  6 19 23  1  5.0800000  0  4G 6G 8G 9G11
  20922214.730    20922219.223    -1556352.461 8    766528.971 8
  21039126.807    21039130.657      257986.147 8   1968955.991 8
  23308618.042    23308624.450    -2347823.002 6     92314.181 9
  20963308.529    20963313.883    -1724929.578 8    706245.300 7
 86  6 19 23  1 11.0800000  0  4G 6G 8G 9G11
  20920561.338    20920566.476    -1565041.003 9    759758.696 7
  21041407.781    21041411.380      269973.449 8   1978296.751 8
  23305212.123    23305218.512    -2365719.781 5     78368.645 8
  20961406.953    20961412.334    -1734921.470 9    698459.398 7
 86  6 19 23  1 17.0800000  0  4G 6G 8G 9G11
  20918909.507    20918913.360    -1573719.648 9    752996.112 8
  21043693.180    21043697.370      281983.114 8   1987654.923 8
  23301804.282    23301812.654    -2383616.868 7     64422.862 8
  20959510.180    20959514.590    -1744891.313 8    690690.702 8
 86  6 19 23  1 23.0800000  0  4G 6G 8G 9G11
  20917260.223    20917264.775    -1582388.450 8    746241.197 9
  21045982.647    21045987.460      294015.048 8   1997030.443 8
  23298398.905    23298407.604    -2401514.111 6     50476.977 9
  20957616.503    20957621.223    -1754839.112 8    682939.176 8
 86  6 19 23  1 29.0800000  0  4G 6G 8G 9G11
  20915612.116    20915617.765    -1591047.317 9    739494.025 8
  21048276.775    21048282.394      306069.275 9   2006423.359 8
  23294993.200    23295000.198    -2419411.716 7     36530.808 9
  20955727.948    20955733.611    -1764764.886 8    675204.806 8
 86  6 19 23  1 35.0800000  0  4G 6G 8G 9G11
  20913966.603    20913971.207    -1599696.248 8    732754.600 8
  21050575.018    21050578.778      318145.807 9   2015833.635 8
  23291588.147    23291594.668    -2437309.573 6     22584.457 8
  20953843.539    20953848.779    -1774668.549 8    667487.662 8
 86  6 19 23  1 41.0800000  0  4G 6G 8G 9G11
  20912322.430    20912327.595    -1608335.335 9    726022.841 8
  21052877.033    21052880.268      330244.578 8   2025261.243 8
  23288181.964    23288189.464    -2455207.763 6      8637.813 8
  20951962.083    20951968.750    -1784550.205 8    659787.681 8
 86  6 19 23  1 47.0800000  0  4G 6G 8G 9G11
  20910680.062    20910685.358    -1616964.518 9    719298.813 9
  21055183.814    21055188.106      342365.548 8   2034706.156 8
  23284776.896    23284783.110    -2473106.132 7     -5308.961 8
  20950085.690    20950092.745    -1794409.855 8    652104.840 8
 86  6 19 23  1 53.0800000  0  4G 6G 8G 9G11
  20909041.275    20909043.801    -1625583.683 8    712582.572 9
  21057493.793    21057498.432      354508.717 8   2044168.362 7
  23281372.565    23281377.646    -2491004.681 7    -19255.845 8
  20948214.445    20948219.513    -1804247.451 8    644439.189 8
 86  6 19 23  1 59.0800000  0  4G 6G 8G 9G11
  20907403.734    20907406.653    -1634192.875 9    705874.115 9
  21059809.751    21059814.084      366674.082 9   2053647.864 8
  23277964.911    23277970.864    -2508903.409 7    -33202.912 9
  20946347.297    20946353.008    -1814062.931 8    636790.769 8
 86  6 19 23  2  5.0800000  0  4G 6G 8G 9G11
  20905765.513    20905771.412    -1642792.134 8    699173.392 9
  21062128.437    21062132.160      378861.612 8   2063144.638 8
  23274559.524    23274564.074    -2526802.383 6    -47150.144 8
  20944483.409    20944487.602    -1823856.346 9    629159.548 7
 86  6 19 23  2 11.0800000  0  4G 6G 8G 9G11
  20904131.498    20904136.298    -1651381.251 9    692480.575 9
  21064451.012    21064456.456      391071.316 8   2072658.677 8
  23271152.550    23271158.923    -2544701.416 6    -61097.430 8
  20942624.416    20942629.783    -1833627.566 8    621545.608 7
 86  6 19 23  2 17.0800000  0  4G 6G 8G 9G11
  20902498.702    20902503.626    -1659960.287 9    685795.616 8
  21066779.891    21066782.142      403303.211 8   2082190.022 7
  23267748.760    23267751.833    -2562600.624 6    -75044.840 8
  20940768.058    20940773.396    -1843376.561 8    613948.986 7
 86  6 19 23  2 23.0800000  0  4G 6G 8G 9G11
  20900868.786    20900872.365    -1668529.220 8    679118.531 8
  21069110.633    21069116.451      415557.253 9   2091738.633 8
  23264340.376    23264346.324    -2580499.953 7    -88992.359 8
  20938917.763    20938922.957    -1853103.445 7    606369.608 7
 86  6 19 23  2 29.0800000  0  4G 6G 8G 9G11
  20899239.335    20899242.988    -1677088.055 9    672449.304 8
  21071447.574    21071452.109      427833.407 8   2101304.469 8
  23260934.583    23260939.584    -2598399.390 7   -102939.978 7
  20937070.874    20937075.296    -1862808.065 8    598807.570 8
 86  6 19 23  2 35.0800000  0  4G 6G 8G 9G11
  20897613.814    20897618.576    -1685636.669 9    665788.040 8
  21073788.308    21073792.299      440131.771 8   2110887.608 8
  23257527.968    23257534.719    -2616298.744 7   -116887.522 8
  20935227.705    20935233.931    -1872490.397 9    591262.896 8
 86  6 19 23  2 41.0800000  0  4G 6G 8G 9G11
  20895989.098    20895993.016    -1694175.055 8    659134.751 8
  21076132.337    21076136.702      452452.285 8   2120488.003 7
  23254122.113    23254128.366    -2634198.149 6   -130835.097 7
  20933389.463    20933394.915    -1882150.541 8    583735.525 6
 86  6 19 23  2 47.0800000  0  4G 6G 8G 9G11
  20894366.378    20894370.451    -1702703.231 9    652489.421 8
  21078479.529    21078485.084      464794.908 8   2130105.624 8
  23250715.822    23250721.990    -2652097.567 6   -144782.683 8
  20931555.912    20931561.619    -1891788.368 8    576225.527 8
 86  6 19 23  2 53.0800000  0  4G 6G 8G 9G11
  20892744.479    20892748.955    -1711221.245 8    645852.004 8
  21080833.864    21080838.187      477159.515 8   2139740.385 9
  23247309.771    23247316.574    -2669996.974 8   -158730.256 8
  20929726.396    20929731.159    -1901404.022 8    568732.816 8
 86  6 19 23  2 59.0800000  0  4G 6G 8G 9G11
  20891124.952    20891130.700    -1719729.070 7    639222.525 9
  21083190.127    21083195.559      489546.072 8   2149392.252 8
  23243904.497    23243909.926    -2687896.519 7   -172677.951 7
  20927901.198    20927906.210    -1910997.437 8    561257.420 7
 86  6 19 23  3  5.0800000  0  4G 6G 8G 9G11
  20889507.902    20889513.277    -1728226.819 9    632600.905 8
  21085552.072    21085555.360      501954.576 8   2159061.207 8
  23240497.900    23240504.925    -2705796.126 6   -186625.689 7
  20926078.209    20926083.818    -1920568.675 7    553799.326 8
 86  6 19 23  3 11.0800000  0  4G 6G 8G 9G11
  20887892.706    20887898.566    -1736714.321 9    625987.263 9
  21087916.548    21087922.038      514385.031 8   2168747.276 8
  23237091.737    23237097.385    -2723695.794 7   -200573.482 7
  20924261.599    20924267.120    -1930117.687 8    546358.540 7
 86  6 19 23  3 17.0800000  0  4G 6G 8G 9G11
  20886280.241    20886284.810    -1745191.690 9    619381.527 8
  21090287.896    21090290.626      526837.272 9   2178450.324 8
  23233685.854    23233690.282    -2741595.529 8   -214521.318 8
  20922449.252    20922455.220    -1939644.496 8    538935.054 8
 86  6 19 23  3 23.0800000  0  4G 6G 8G 9G11
  20884669.942    20884674.295    -1753658.757 9    612783.804 8
  21092659.726    21092664.318      539311.400 8   2188170.420 7
  23230279.821    23230285.082    -2759495.253 8   -228469.157 7
  20920640.973    20920645.424    -1949149.141 8    531528.851 8
 86  6 19 23  3 29.0800000  0  4G 6G 8G 9G11
  20883060.444    20883064.018    -1762115.554 9    606194.099 8
  21095038.257    21095043.807      551807.411 8   2197907.570 7
  23226873.188    23226877.763    -2777395.031 9   -242417.029 8
  20918836.153    20918841.476    -1958631.516 7    524139.980 7
 86  6 19 23  3 35.0800000  0  4G 6G 8G 9G11
  20881453.579    20881457.635    -1770562.003 8    599612.445 8
  21097420.865    21097423.826      564325.363 9   2207661.809 9
  23223467.760    23223472.737    -2795294.732 9   -256364.842 8
  20917034.969    20917042.711    -1968091.542 8    516768.534 7
 86  6 19 23  3 41.0800000  0  4G 6G 8G 9G11
  20879847.953    20879851.989    -1778998.072 9    593038.883 8
  21099807.148    21099811.502      576865.230 8   2217433.127 8
  23220061.177    23220066.949    -2813194.279 8   -270312.546 7
  20915239.822    20915245.475    -1977529.109 8    509414.589 7
 86  6 19 23  3 47.0800000  0  4G 6G 8G 9G11
  20878243.161    20878250.298    -1787423.690 8    586473.460 8
  21102196.904    21102201.871      589427.000 8   2227221.514 9
  23216655.873    23216659.768    -2831093.679 7   -284260.120 8
  20913448.656    20913453.420    -1986944.279 8    502078.101 7
 86  6 19 23  3 53.0800000  0  4G 6G 8G 9G11
  20876643.140    20876646.693    -1795838.890 9    579916.162 8
  21104591.999    21104596.730      602010.632 8   2237026.937 8
  23213248.749    23213253.121    -2848992.900 9   -298207.559 8
  20911661.722    20911666.801    -1996337.033 8    494759.057 7
 86  6 19 23  3 59.0800000  0  4G 6G 8G 9G11
  20875043.576    20875048.330    -1804243.706 8    573366.959 8
  21106989.704    21106994.623      614616.026 8   2246849.315 9
  23209843.447    23209847.406    -2866892.054 8   -312154.970 8
  20909879.139    20909883.305    -2005707.539 8    487457.380 7
 86  6 19 23  4  5.0800000  0  4G 6G 8G 9G11
  20873445.936    20873450.432    -1812638.071 8    566825.894 8
  21109393.040    21109398.632      627243.190 8   2256688.665 8
  23206436.022    23206441.544    -2884791.051 8   -326102.223 8
  20908099.762    20908104.529    -2015055.680 8    480173.116 7
 86  6 19 23  4 11.0800000  0  4G 6G 8G 9G11
  20871851.204    20871854.586    -1821022.124 9    560292.864 9
  21111800.005    21111804.741      639892.056 8   2266544.934 8
  23203031.621    23203036.234    -2902690.023 8   -340049.463 8
  20906325.651    20906328.355    -2024381.567 8    472906.196 6
 86  6 19 23  4 17.0800000  0  4G 6G 8G 9G11
  20870257.034    20870261.390    -1829395.788 9    553767.936 8
  21114211.624    21114216.748      652562.572 8   2276418.042 7
  23199624.846    23199629.611    -2920588.929 8   -353996.666 8
  20904555.089    20904558.123    -2033685.147 8    465656.660 7
 86  6 19 23  4 23.0800000  0  4G 6G 8G 9G11
  20868665.699    20868670.494    -1837759.101 8    547251.057 8
  21116626.758    21116630.277      665254.660 8   2286307.990 8
  23196218.035    23196223.658    -2938487.807 8   -367943.838 9
  20902788.219    20902792.270    -2042966.435 9    458424.479 7
 86  6 19 23  4 29.0800000  0  4G 6G 8G 9G11
  20867075.652    20867079.871    -1846111.999 9    540742.309 9
  21119047.289    21119051.454      677968.398 8   2296214.787 8
  23192812.403    23192818.069    -2956386.558 7   -381890.901 8
  20901026.642    20901030.406    -2052225.387 9    451209.711 7
 86  6 19 23  4 35.0800000  0  4G 6G 8G 9G11
  20865488.680    20865492.647    -1854454.414 9    534241.720 9
  21121469.504    21121474.250      690703.744 9   2306138.432 8
  23189405.342    23189411.389    -2974285.094 8   -395837.813 7
  20899268.616    20899273.708    -2061461.953 9    444012.378 8
 86  6 19 23  4 41.0800000  0  4G 6G 8G 9G11
  20863903.043    20863906.730    -1862786.298 9    527749.340 9
  21123896.936    21123901.898      703460.732 8   2316078.942 8
  23186000.120    23186005.657    -2992183.404 9   -409784.533 8
  20897515.939    20897519.645    -2070676.141 8    436832.493 7
 86  6 19 23  4 47.0800000  0  4G 6G 8G 9G11
  20862318.844    20862323.596    -1871107.584 9    521265.232 8
  21126329.058    21126332.770      716239.367 9   2326036.312 7
  23182595.225    23182599.677    -3010081.423 8   -423731.053 7
  20895766.611    20895770.819    -2079867.879 8    429670.103 8
 86  6 19 23  4 53.0800000  0  4G 6G 8G 9G11
  20860739.173    20860742.321    -1879418.401 9    514789.260 8
  21128765.381    21128769.563      729039.500 8   2336010.447 8
  23179189.059    23179193.600    -3027979.332 9   -437677.471 7
  20894021.407    20894025.282    -2089037.248 7    422525.142 7
 86  6 19 23  4 59.0800000  0  4G 6G 8G 9G11
  20859159.057    20859162.265    -1887718.698 9    508321.495 8
  21131205.193    21131209.166      741861.128 9   2346001.319 8
  23175782.224    23175787.077    -3045877.109 8   -451623.785 8
  20892280.234    20892285.214    -2098184.275 8    415397.604 6
 86  6 19 23  5  5.0800000  0  4G 6G 8G 9G11
  20857582.100    20857584.306    -1896008.445 9    501861.950 8
  21133649.285    21133652.582      754704.262 9   2356008.958 8
  23172376.781    23172382.233    -3063774.700 8   -465569.951 8
  20890544.155    20890548.478    -2107308.858 9    408287.524 6
 86  6 19 23  5 11.0800000  0  4G 6G 8G 9G11
  20856005.848    20856009.556    -1904287.538 9    495410.706 8
  21136096.852    21136101.380      767568.988 9   2366033.404 8
  23168970.097    23168976.959    -3081671.969 7   -479515.875 7
  20888811.798    20888816.535    -2116410.949 9    401194.990 8
 86  6 19 23  5 17.0800000  0  4G 6G 8G 9G11
  20854431.881    20854436.735    -1912555.930 9    488967.809 9
  21138548.896    21138553.593      780455.258 8   2376074.651 8
  23165564.984    23165570.941    -3099568.800 9   -493461.456 8
  20887083.876    20887088.399    -2125490.492 8    394120.031 6
 86  6 19 23  5 23.0800000  0  4G 6G 8G 9G11
  20852861.635    20852865.735    -1920813.654 9    482533.219 8
  21141004.418    21141009.555      793363.066 9   2386132.683 9
  23162159.839    23162164.281    -3117465.333 8   -507406.791 8
  20885360.823    20885366.301    -2134547.558 9    387062.585 6
 86  6 19 23  5 29.0800000  0  4G 6G 8G 9G11
  20851292.346    20851295.577    -1929060.650 8    476106.985 8
  21143466.630    21143470.777      806292.293 9   2396207.405 8
  23158754.016    23158760.809    -3135361.599 9   -521351.932 7
  20883642.888    20883646.924    -2143582.149 8    380022.629 7
 86  6 19 23  5 35.0800000  0  4G 6G 8G 9G11
  20849724.599    20849728.491    -1937297.060 8    469689.005 8
  21145930.350    21145934.664      819242.972 9   2406298.843 8
  23155348.669    23155353.958    -3153257.570 8   -535296.846 8
  20881926.670    20881932.381    -2152594.364 8    373000.134 7
 86  6 19 23  5 41.0800000  0  4G 6G 8G 9G11
  20848158.591    20848163.468    -1945522.704 8    463279.405 8
  21148398.334    21148404.025      832215.042 8   2416406.936 8
  23151942.611    23151947.969    -3171153.184 7   -549241.470 8
  20880215.894    20880221.329    -2161584.025 7    365995.210 7
 86  6 19 23  5 47.0800000  0  4G 6G 8G 9G11
  20846595.385    20846599.363    -1953737.731 9    456878.084 8
  21150871.806    21150876.370      845208.412 9   2426531.631 8
  23148537.938    23148541.915    -3189048.548 8   -563185.899 7
  20878509.150    20878513.872    -2170551.251 8    359007.760 7
 86  6 19 23  5 53.0800000  0  4G 6G 8G 9G11
  20845034.551    20845038.310    -1961942.056 9    450485.111 8
  21153347.292    21153353.531      858223.108 8   2436672.948 8
  23145133.608    23145139.903    -3206943.570 9   -577130.053 8
  20876806.500    20876813.998    -2179496.008 8    352037.831 7
 86  6 19 23  5 59.0800000  0  4G 6G 8G 9G11
  20843474.217    20843479.599    -1970135.607 8    444100.522 9
  21155828.155    21155832.798      871259.137 8   2446830.898 8
  23141727.448    23141733.367    -3224838.140 8   -591073.876 7
  20875108.168    20875114.508    -2188418.188 8    345085.483 8
 86  6 19 23  6  5.0800000  0  4G 6G 8G 9G11
  20841918.153    20841921.451    -1978318.482 9    437724.259 9
  21158313.919    21158317.753      884316.370 9   2457005.355 9
  23138323.400    23138326.263    -3242732.460 7   -605017.491 8
  20873415.678    20873419.941    -2197317.966 8    338150.596 7
 86  6 19 23  6 11.0800000  0  4G 6G 8G 9G11
  20840362.848    20840366.411    -1986490.491 9    431356.460 7
  21160802.202    21160806.775      897394.886 8   2467196.401 8
  23134917.019    23134922.913    -3260626.346 8   -618960.775 8
  20871726.019    20871731.916    -2206195.201 8    331233.279 7
 86  6 19 23  6 17.0800000  0  4G 6G 8G 9G11
  20838809.544    20838814.088    -1994651.695 8    424997.081 8
  21163295.794    21163298.403      910494.720 8   2477404.058 8
  23131511.482    23131516.355    -3278519.795 7   -632903.738 7
  20870041.770    20870046.233    -2215049.872 7    324333.543 7
 86  6 19 23  6 23.0800000  0  4G 6G 8G 9G11
  20837258.218    20837261.717    -2002801.888 8    418646.271 7
  21165791.965    21165796.331      923615.931 9   2487628.383 9
  23128106.745    23128112.883    -3296412.619 8   -646846.179 7
  20868359.952    20868366.164    -2223881.844 7    317451.494 6
 86  6 19 23  6 29.0800000  0  4G 6G 8G 9G11
  20835710.705    20835714.455    -2010941.188 8    412303.958 9
  21168292.403    21168297.520      936758.470 9   2497869.321 9
  23124702.696    23124706.731    -3314304.944 8   -660788.253 7
  20866682.885    20866689.367    -2232691.117 8    310587.119 8
 86  6 19 23  6 35.0800000  0  4G 6G 8G 9G11
  20834163.003    20834167.636    -2019069.572 9    405970.159 9
  21170798.595    21170801.925      949922.259 9   2508126.809 9
  23121297.592    23121301.386    -3332196.817 8   -674729.965 7
  20865012.259    20865017.855    -2241477.769 9    303740.388 8
 86  6 19 23  6 41.0800000  0  4G 6G 8G 9G11
  20832618.275    20832623.520    -2027187.044 9    399644.871 8
  21173306.592    21173310.995      963107.259 9   2518400.831 8
  23117892.851    23117897.586    -3350088.204 8   -688671.309 7
  20863344.266    20863349.773    -2250241.802 7    296911.266 7
 86  6 19 23  6 47.0800000  0  4G 6G 8G 9G11
  20831075.728    20831080.067    -2035293.710 8    393327.975 8
  21175819.450    21175824.480      976313.287 9   2528691.233 7
  23114487.857    23114493.652    -3367979.254 8   -702612.368 7
  20861680.077    20861686.588    -2258983.325 7    290099.697 7
 86  6 19 23  6 53.0800000  0  4G 6G 8G 9G11
  20829534.695    20829539.638    -2043389.474 9    387019.585 8
  21178337.170    21178341.615      989540.360 9   2538998.037 9
  23111083.950    23111089.166    -3385869.769 8   -716553.040 7
  20860022.557    20860025.661    -2267702.367 8    283305.650 8
 86  6 19 23  6 59.0800000  0  4G 6G 8G 9G11
  20827996.705    20828000.586    -2051474.426 8    380719.623 8
  21180858.560    21180863.111     1002788.437 8   2549321.209 8
  23107678.977    23107684.328    -3403759.886 7   -730493.382 6
  20858366.066    20858372.635    -2276398.912 9    276529.125 7
 86  6 19 23  7  5.0800000  0  4G 6G 8G 9G11
  20826460.257    20826465.387    -2059548.539 8    374428.108 8
  21183383.380    21183388.038     1016057.519 9   2559660.763 9
  23104275.808    23104280.637    -3421649.593 8   -744433.398 7
  20856716.188    20856720.739    -2285072.931 8    269770.157 7
 86  6 19 23  7 11.0800000  0  4G 6G 8G 9G11
  20824925.622    20824929.915    -2067611.768 9    368145.078 7
  21185912.591    21185916.491     1029347.528 8   2570016.607 9
  23100871.021    23100877.318    -3439538.904 7   -758373.122 6
  20855069.145    20855075.140    -2293724.405 7    263028.756 7
 86  6 19 23  7 17.0800000  0  4G 6G 8G 9G11
  20823393.861    20823397.468    -2075664.097 8    361870.529 9
  21188445.539    21188448.190     1042658.476 8   2580388.768 8
  23097467.030    23097471.938    -3457427.769 8   -772312.506 7
  20853427.593    20853433.045    -2302353.371 8    256304.890 7
 86  6 19 23  7 23.0800000  0  4G 6G 8G 9G11
  20821862.796    20821866.517    -2083705.529 9    355604.475 8
  21190982.036    21190986.526     1055990.298 9   2590777.203 8
  23094063.624    23094068.123    -3475316.219 8   -786251.553 7
  20851789.505    20851793.425    -2310959.833 9    249598.565 7
 86  6 19 23  7 29.0800000  0  4G 6G 8G 9G11
  20820334.915    20820339.303    -2091735.942 8    349347.027 8
  21193523.295    21193527.630     1069343.122 9   2601181.992 8
  23090659.979    23090664.868    -3493203.989 8   -800190.080 8
  20850156.913    20850160.947    -2319543.634 9    242909.881 7
 86  6 19 23  7 35.0800000  0  4G 6G 8G 9G11
  20818809.683    20818812.891    -2099755.339 9    343098.134 8
  21196067.694    21196071.613     1082716.857 8   2611603.078 8
  23087255.448    23087261.138    -3511091.214 8   -814128.170 7
  20848527.352    20848532.387    -2328104.801 8    236238.858 8
 86  6 19 23  7 41.0800000  0  4G 6G 8G 9G11
  20817285.232    20817289.184    -2107763.687 9    336857.853 8
  21198616.902    21198621.464     1096111.451 9   2622040.423 8
  23083850.988    23083855.662    -3528977.911 7   -828065.859 7
  20846903.203    20846907.579    -2336643.391 8    229585.414 7
 86  6 19 23  7 47.0800000  0  4G 6G 8G 9G11
  20815762.495    20815766.268    -2115761.188 9    330626.030 8
  21201168.685    21201174.791     1109526.772 8   2632493.919 8
  23080448.653    23080453.140    -3546864.185 8   -842003.214 7
  20845283.427    20845286.405    -2345159.547 8    222949.440 7
 86  6 19 23  7 53.0800000  0  4G 6G 8G 9G11
  20814242.850    20814247.250    -2123747.755 9    324402.743 8
  21203726.001    21203730.735     1122962.813 9   2642963.553 8
  23077044.777    23077049.232    -3564749.949 9   -855940.166 7
  20843666.688    20843670.495    -2353653.156 9    216331.041 7
 86  6 19 23  7 59.0800000  0  4G 6G 8G 9G11
  20812725.465    20812729.485    -2131723.416 7    318187.935 8
  21206287.279    21206291.477     1136419.473 9   2653449.265 7
  23073640.365    23073645.830    -3582635.401 8   -869876.873 6
  20842053.986    20842058.807    -2362124.325 8    209730.130 8
 86  6 19 23  8  5.0800000  0  4G 6G 8G 9G11
  20811209.307    20811213.737    -2139688.128 9    311981.663 8
  21208852.162    21208856.220     1149896.837 9   2663951.096 9
  23070237.160    23070242.611    -3600520.387 9   -883813.238 7
  20840446.549    20840451.599    -2370572.940 8    203146.774 7
 86  6 19 23  8 11.0800000  0  4G 6G 8G 9G11
  20809695.675    20809700.920    -2147641.771 9    305784.014 8
  21211420.147    21211425.763     1163394.952 9   2674469.105 8
  23066834.504    23066839.319    -3618404.764 8   -897749.112 8
  20838842.145    20838848.126    -2378998.941 8    196581.069 7
 86  6 19 23  8 17.0800000  0  4G 6G 8G 9G11
  20808185.235    20808189.150    -2155584.436 9    299594.930 8
  21213993.001    21213997.471     1176913.594 9   2685003.116 8
  23063430.940    23063436.723    -3636288.534 8   -911684.506 8
  20837244.409    20837248.831    -2387402.382 8    190032.929 8
 86  6 19 23  8 23.0800000  0  4G 6G 8G 9G11
  20806675.669    20806679.543    -2163515.904 8    293414.560 8
  21216568.876    21216574.614     1190453.018 9   2695553.302 9
  23060028.178    23060033.359    -3654171.690 8   -925619.441 8
  20835650.334    20835654.397    -2395783.130 8    183502.494 7
 86  6 19 23  8 29.0800000  0  4G 6G 8G 9G11
  20805168.475    20805173.250    -2171436.073 9    287243.011 8
  21219150.022    21219154.181     1204013.244 9   2706119.705 9
  23056625.383    23056630.961    -3672054.113 8   -939553.791 8
  20834058.723    20834062.317    -2404141.146 9    176989.756 7
 86  6 19 23  8 35.0800000  0  4G 6G 8G 9G11
  20803664.688    20803667.808    -2179345.063 8    281080.153 9
  21221733.607    21221738.575     1217594.233 9   2716702.300 8
  23053222.077    23053227.415    -3689935.754 8   -953487.543 8
  20832472.548    20832477.457    -2412476.328 9    170494.801 8
 86  6 19 23  8 41.0800000  0  4G 6G 8G 9G11
  20802160.365    20802164.976    -2187242.720 9    274926.124 8
  21224322.554    21224327.290     1231195.976 8   2727301.055 8
  23049818.208    23049824.016    -3707816.619 8   -967420.677 7
  20830890.495    20830895.633    -2420788.712 8    164017.618 7
 86  6 19 23  8 47.0800000  0  4G 6G 8G 9G11
  20800659.827    20800664.652    -2195129.065 8    268780.934 9
  21226915.748    21226919.247     1244818.388 8   2737915.915 8
  23046415.491    23046423.192    -3725696.681 8   -981353.194 8
  20829314.051    20829317.628    -2429078.283 8    157558.218 6
 86  6 19 23  8 53.0800000  0  4G 6G 8G 9G11
  20799160.551    20799165.234    -2203004.066 9    262644.566 8
  21229510.281    21229515.933     1258461.533 9   2748546.932 9
  23043015.574    23043020.867    -3743575.871 9   -995285.033 8
  20827739.953    20827745.577    -2437345.021 8    151116.610 8
 86  6 19 23  8 59.0800000  0  4G 6G 8G 9G11
  20797664.773    20797669.100    -2210867.794 9    256516.985 9
  21232110.368    21232115.429     1272125.309 9   2759194.028 9
  23039611.567    23039617.656    -3761454.322 7  -1009216.286 8
  20826170.437    20826176.759    -2445588.996 9    144692.726 7
 86  6 19 23  9  5.0800000  0  4G 6G 8G 9G11
  20796170.489    20796174.773    -2218720.199 8    250398.230 8
  21234714.560    21234720.179     1285809.603 8   2769857.115 7
  23036209.636    23036217.081    -3779332.087 7  -1023147.004 7
  20824606.496    20824610.003    -2453810.345 8    138286.496 7
 86  6 19 23  9 11.0800000  0  4G 6G 8G 9G11
  20794678.508    20794682.817    -2226561.354 8    244288.227 8
  21237323.245    21237326.999     1299514.373 8   2780536.153 8
  23032807.963    23032812.961    -3797209.152 7  -1037077.182 8
  20823045.707    20823052.347    -2462009.034 7    131897.896 7
 86  6 19 23  9 17.0800000  0  4G 6G 8G 9G11
  20793188.543    20793192.154    -2234391.317 9    238186.977 8
  21239934.451    21239938.288     1313239.538 8   2791231.077 8
  23029406.494    23029413.890    -3815085.429 7  -1051006.749 8
  20821489.753    20821495.552    -2470185.123 7    125526.930 8
 86  6 19 23  9 23.0800000  0  4G 6G 8G 9G11
  20791701.519    20791705.376    -2242209.998 9    232094.489 9
  21242551.304    21242555.257     1326985.177 9   2801941.962 8
  23026003.552    23026012.216    -3832960.975 7  -1064935.750 9
  20819938.695    20819944.191    -2478338.440 7    119173.699 7
 86  6 19 23  9 29.0800000  0  4G 6G 8G 9G11
  20790215.058    20790219.728    -2250017.390 9    226010.805 8
  21245170.373    21245173.527     1340751.273 9   2812668.778 8
  23022602.581    23022609.507    -3850835.743 7  -1078864.128 8
  20818391.584    20818396.938    -2486469.018 7    112838.177 7
 86  6 19 23  9 35.0800000  0  4G 6G 8G 9G11
  20788732.222    20788736.540    -2257813.351 9    219936.023 8
  21247793.089    21247796.990     1354537.793 9   2823411.527 8
  23019202.380    23019207.747    -3868709.698 7  -1092791.902 9
  20816847.769    20816854.276    -2494576.876 8    106520.385 7
 86  6 19 23  9 41.0800000  0  4G 6G 8G 9G11
  20787250.773    20787254.841    -2265597.913 8    213870.137 8
  21250421.070    21250424.553     1368344.788 8   2834170.209 8
  23015800.399    23015807.518    -3886582.877 7  -1106719.038 8
  20815311.474    20815315.810    -2502662.010 7    100220.288 7
 86  6 19 23  9 47.0800000  0  4G 6G 8G 9G11
  20785770.556    20785775.169    -2273371.146 9    207813.079 8
  21253052.690    21253056.274     1382172.005 8   2844944.669 7
  23012399.007    23012405.964    -3904455.223 7  -1120645.525 8
  20813775.495    20813781.335    -2510724.462 7     93937.856 7
 86  6 19 23  9 53.0800000  0  4G 6G 8G 9G11
  20784294.210    20784297.492    -2281133.104 9    201764.786 7
  21255687.143    21255691.728     1396019.522 8   2855734.940 8
  23008999.964    23009005.372    -3922326.776 6  -1134571.405 9
  20812247.158    20812251.437    -2518764.196 8     87673.117 7
 86  6 19 23  9 59.0800000  0  4G 6G 8G 9G11
  20782818.907    20782823.517    -2288883.638 9    195725.421 8
  21258326.675    21258329.638     1409887.310 9   2866541.006 9
  23005597.245    23005605.032    -3940197.520 7  -1148496.650 8
  20810720.712    20810726.789    -2526781.267 8     81426.054 7
 86  6 19 23 10  5.0800000  0  4G 6G 8G 9G11
  20781347.140    20781351.506    -2296622.849 8    189694.870 8
  21260968.602    21260973.912     1423775.331 8   2877362.822 7
  23002198.031    23002203.811    -3958067.470 6  -1162421.265 8
  20809199.130    20809204.638    -2534775.709 7     75196.633 7
 86  6 19 23 10 11.0800000  0  4G 6G 8G 9G11
  20779876.044    20779880.693    -2304350.612 9    183673.214 7
  21263616.432    21263618.417     1437683.627 9   2888200.463 8
  22998797.161    22998804.048    -3975936.499 7  -1176345.161 8
  20807681.811    20807687.377    -2542747.361 7     68984.964 7
 86  6 19 23 10 17.0800000  0  4G 6G 8G 9G11
  20778407.924    20778412.053    -2312066.859 9    177660.567 8
  21266267.500    21266270.277     1451612.196 9   2899053.902 8
  22995397.035    22995402.367    -3993804.625 7  -1190268.364 8
  20806169.012    20806174.422    -2550696.169 7     62791.074 8
 86  6 19 23 10 23.0800000  0  4G 6G 8G 9G11
  20776941.734    20776946.061    -2319771.456 9    171656.986 9
  21268921.279    21268924.284     1465561.082 8   2909923.156 8
  22991997.309    22992003.118    -4011671.681 6  -1204190.742 8
  20804662.483    20804667.164    -2558622.046 7     56615.091 8
 86  6 19 23 10 29.0800000  0  4G 6G 8G 9G11
  20775477.691    20775482.217    -2327464.430 8    165662.458 7
  21271578.260    21271582.880     1479530.313 9   2920808.263 8
  22988596.315    22988603.925    -4029537.681 7  -1218112.293 9
  20803157.587    20803161.650    -2566524.955 8     50456.972 8
 86  6 19 23 10 35.0800000  0  4G 6G 8G 9G11
  20774016.035    20774020.544    -2335145.780 9    159676.989 8
  21274239.994    21274245.073     1493519.835 8   2931709.180 7
  22985197.586    22985203.947    -4047402.701 7  -1232033.076 8
  20801657.553    20801661.759    -2574404.925 9     44316.749 7
 86  6 19 23 10 41.0800000  0  4G 6G 8G 9G11
  20772555.983    20772560.073    -2342815.473 9    153700.599 8
  21276907.000    21276911.310     1507529.566 9   2942625.845 8
  22981798.782    22981804.104    -4065266.671 7  -1245953.041 9
  20800162.959    20800167.894    -2582261.982 7     38194.369 7
 86  6 19 23 10 47.0800000  0  4G 6G 8G 9G11
  20771098.795    20771103.027    -2350473.465 8    147733.337 8
  21279577.229    21279581.348     1521559.556 9   2953558.301 7
  22978399.482    22978404.949    -4083129.498 6  -1259872.117 9
  20798672.512    20798677.406    -2590096.087 7     32089.861 8
 86  6 19 23 10 53.0800000  0  4G 6G 8G 9G11
  20769643.919    20769649.121    -2358119.755 8    141775.186 8
  21282250.108    21282254.774     1535609.742 8   2964506.502 8
  22974997.637    22975006.151    -4100991.232 7  -1273790.342 8
  20797184.785    20797191.738    -2597907.216 7     26003.286 7
 86  6 19 23 10 59.0800000  0  4G 6G 8G 9G11
  20768191.775    20768195.576    -2365754.406 9    135826.107 8
  21284927.689    21284932.378     1549680.130 9   2975470.430 8
  22971600.883    22971607.145    -4118851.871 7  -1287707.711 8
  20795702.610    20795709.193    -2605695.449 8     19934.528 7
 86  6 19 23 11  5.0800000  0  4G 6G 8G 9G11
  20766740.473    20766745.187    -2373377.396 9    129886.116 9
  21287608.934    21287613.712     1563770.610 9   2986450.013 8
  22968203.146    22968209.470    -4136711.508 7  -1301624.304 9
  20794225.617    20794230.294    -2613460.779 7     13883.630 6
 86  6 19 23 11 11.0800000  0  4G 6G 8G 9G11
  20765292.274    20765297.686    -2380988.747 8    123955.193 7
  21290295.018    21290299.105     1577881.125 9   2997445.223 8
  22964804.454    22964811.167    -4154570.096 7  -1315540.076 8
  20792753.054    20792757.764    -2621203.204 8      7850.577 7
 86  6 19 23 11 17.0800000  0  4G 6G 8G 9G11
  20763846.292    20763849.253    -2388588.471 9    118033.331 8
  21292982.784    21292988.983     1592011.585 8   3008455.963 9
  22961406.782    22961413.053    -4172427.666 7  -1329455.069 8
  20791284.160    20791289.394    -2628922.784 7      1835.330 7
 86  6 19 23 11 23.0800000  0  4G 6G 8G 9G11
  20762401.710    20762407.342    -2396176.599 9    112120.497 8
  21295676.919    21295680.433     1606161.987 8   3019482.254 8
  22958010.087    22958014.551    -4190284.262 8  -1343369.291 8
  20789819.097    20789823.820    -2636619.621 8     -4162.212 8
 86  6 19 23 11 29.0800000  0  4G 6G 8G 9G11
  20760959.454    20760964.987    -2403753.102 9    106216.742 8
  21298373.245    21298377.068     1620332.281 8   3030524.030 8
  22954610.766    22954616.352    -4208139.771 8  -1357282.664 8
  20788358.558    20788363.624    -2644293.705 8    -10142.025 7
 86  6 19 23 11 35.0800000  0  4G 6G 8G 9G11
  20759520.550    20759525.392    -2411317.961 9    100322.040 8
  21301073.491    21301077.296     1634522.367 8   3041581.239 8
  22951213.312    22951219.206    -4225994.311 8  -1371195.291 8
  20786902.485    20786907.876    -2651945.032 7    -16104.077 7
 86  6 19 23 11 41.0800000  0  4G 6G 8G 9G11
  20758082.677    20758088.137    -2418871.137 8     94436.445 9
  21303776.980    21303781.915     1648732.308 9   3052653.917 8
  22947815.916    22947821.875    -4243847.845 8  -1385107.127 8
  20785450.901    20785457.582    -2659573.543 7    -22048.367 7
 86  6 19 23 11 47.0800000  0  4G 6G 8G 9G11
  20756648.283    20756652.702    -2426412.626 8     88559.963 8
  21306484.979    21306490.029     1662962.112 8   3063742.067 8
  22944419.084    22944424.559    -4261700.341 8  -1399018.166 9
  20784003.869    20784009.295    -2667179.247 9    -27974.891 7
 86  6 19 23 11 53.0800000  0  4G 6G 8G 9G11
  20755214.463    20755219.648    -2433942.366 8     82692.630 8
  21309196.286    21309201.340     1677211.731 9   3074845.669 8
  22941022.333    22941027.006    -4279551.679 9  -1412928.295 7
  20782560.214    20782565.583    -2674762.091 8    -33883.601 8
 86  6 19 23 11 59.0800000  0  4G 6G 8G 9G11
  20753785.417    20753789.823    -2441460.305 8     76834.486 8
  21311911.651    21311916.701     1691481.139 9   3085964.679 8
  22937624.838    22937631.841    -4297401.914 8  -1426837.565 9
  20781121.484    20781127.105    -2682322.048 8    -39774.462 7
 86  6 19 23 12  5.0800000  0  4G 6G 8G 9G11
  20752356.244    20752362.018    -2448966.495 7     70985.519 9
  21314630.223    21314635.133     1705770.335 8   3097099.111 7
  22934228.896    22934233.081    -4315250.974 8  -1440745.926 8
  20779687.702    20779693.138    -2689859.159 7    -45647.542 7
 86  6 19 23 12 11.0800000  0  4G 6G 8G 9G11
  20750930.190    20750934.872    -2456460.868 8     65145.744 7
  21317353.041    21317358.014     1720079.328 8   3108248.963 8
  22930832.273    22930837.395    -4333098.823 8  -1454653.334 9
  20778257.212    20778261.990    -2697373.401 8    -51502.788 8
 86  6 19 23 12 17.0800000  0  4G 6G 8G 9G11
  20749506.428    20749510.980    -2463943.344 8     59315.251 8
  21320080.332    21320085.288     1734408.129 8   3119414.273 8
  22927436.744    22927441.387    -4350945.413 9  -1468559.768 8
  20776832.417    20776836.952    -2704864.604 8    -57340.082 7
 86  6 19 23 12 23.0800000  0  4G 6G 8G 9G11
  20748084.435    20748089.087    -2471413.773 8     53494.137 8
  21322810.481    21322815.381     1748756.838 8   3130595.073 8
  22924039.491    22924045.522    -4368790.665 8  -1482465.161 9
  20775411.198    20775416.536    -2712332.645 8    -63159.347 6
 86  6 19 23 12 29.0800000  0  4G 6G 8G 9G11
  20746664.040    20746670.326    -2478872.186 8     47682.381 8
  21325545.418    21325551.392     1763125.393 8   3141791.351 8
  22920644.877    22920650.029    -4386634.589 9  -1496369.513 8
  20773994.876    20773998.896    -2719777.667 8    -68960.653 7
 86  6 19 23 12 35.0800000  0  4G 6G 8G 9G11
  20745247.730    20745252.192    -2486318.536 8     41880.032 8
  21328283.251    21328288.418     1777513.858 8   3153003.131 8
  22917249.706    22917255.573    -4404477.067 8  -1510272.743 7
  20772581.813    20772587.978    -2727199.530 8    -74743.916 7
 86  6 19 23 12 41.0800000  0  4G 6G 8G 9G11
  20743833.905    20743838.285    -2493752.750 9     36087.146 7
  21331026.186    21331028.659     1791922.100 7   3164230.332 8
  22913853.760    22913859.337    -4422318.150 8  -1524174.875 8
  20771175.018    20771179.412    -2734598.344 8    -80509.236 8
 86  6 19 23 12 47.0800000  0  4G 6G 8G 9G11
  20742421.079    20742426.105    -2501175.007 8     30303.552 8
  21333770.349    21333776.259     1806350.031 7   3175472.877 9
  22910459.130    22910464.552    -4440157.844 7  -1538075.933 8
  20769770.828    20769775.233    -2741974.179 7    -86256.638 8
 86  6 19 23 12 53.0800000  0  4G 6G 8G 9G11
  20741011.118    20741015.077    -2508585.247 9     24529.351 9
  21336519.870    21336523.590     1820797.699 8   3186730.796 8
  22907064.474    22907069.833    -4457996.207 7  -1551975.946 7
  20768371.214    20768377.040    -2749326.952 7    -91986.069 8
 86  6 19 23 12 59.0800000  0  4G 6G 8G 9G11
  20739603.545    20739607.172    -2515983.460 8     18764.508 9
  21339273.130    21339277.547     1835265.026 8   3198004.030 7
  22903670.084    22903676.429    -4475833.217 8  -1565874.925 9
  20766976.213    20766980.536    -2756656.663 8    -97697.516 7
 86  6 19 23 13  5.0800000  0  4G 6G 8G 9G11
  20738197.467    20738201.481    -2523369.582 8     13009.081 9
  21342030.656    21342035.017     1849751.990 8   3209292.570 8
  22900276.192    22900282.727    -4493668.862 7  -1579772.822 8
  20765585.619    20765592.442    -2763963.271 8   -103390.979 6
 86  6 19 23 13 11.0800000  0  4G 6G 8G 9G11
  20736794.441    20736798.376    -2530743.489 8      7263.186 7
  21344790.346    21344795.239     1864258.679 8   3220596.472 9
  22896882.698    22896889.121    -4511503.014 8  -1593669.554 8
  20764198.312    20764205.236    -2771246.725 7   -109066.384 7
 86  6 19 23 13 17.0800000  0  4G 6G 8G 9G11
  20735393.749    20735398.369    -2538105.227 8      1526.770 8
  21347554.538    21347558.992     1878785.122 8   3231915.764 8
  22893489.916    22893495.232    -4529335.596 8  -1607565.070 8
  20762818.818    20762824.184    -2778507.038 7   -114723.771 8
 86  6 19 23 13 23.0800000  0  4G 6G 8G 9G11
  20733994.895    20733998.994    -2545454.652 8     -4200.053 8
  21350321.875    21350327.256     1893331.212 9   3243250.385 8
  22890096.019    22890102.136    -4547166.566 8  -1621459.333 9
  20761440.415    20761445.050    -2785744.196 8   -120363.121 8
 86  6 19 23 13 29.0800000  0  4G 6G 8G 9G11
  20732598.671    20732603.493    -2552791.995 8     -9917.480 9
  21353094.028    21353098.801     1907896.771 9   3254600.171 8
  22886702.739    22886708.540    -4564996.257 9  -1635352.593 8
  20760067.791    20760073.056    -2792958.381 8   -125984.555 7
 86  6 19 23 13 35.0800000  0  4G 6G 8G 9G11
  20731205.038    20731208.076    -2560117.348 8    -15625.545 7
  21355869.659    21355874.943     1922481.738 8   3265965.066 7
  22883311.163    22883316.596    -4582824.590 9  -1649244.812 8
  20758698.917    20758705.701    -2800149.601 7   -131588.114 7
 86  6 19 23 13 41.0800000  0  4G 6G 8G 9G11
  20729812.639    20729817.865    -2567430.650 9    -21324.215 8
  21358650.145    21358654.002     1937086.047 8   3277345.050 7
  22879919.041    22879924.028    -4600651.547 8  -1663135.931 8
  20757335.993    20757341.475    -2807317.918 7   -137173.803 7
 86  6 19 23 13 47.0800000  0  4G 6G 8G 9G11
  20728424.267    20728428.236    -2574731.843 9    -27013.460 8
  21361430.085    21361436.660     1951709.763 9   3288740.160 8
  22876526.569    22876531.749    -4618477.004 8  -1677025.900 8
  20755975.619    20755981.842    -2814463.212 7   -142741.553 7
 86  6 19 23 13 53.0800000  0  4G 6G 8G 9G11
  20727036.583    20727040.925    -2582020.911 8    -32693.243 8
  21364217.447    21364222.946     1966352.879 8   3300150.369 9
  22873134.254    22873139.498    -4636301.041 8  -1690914.756 8
  20754620.079    20754625.660    -2821585.469 7   -148291.358 8
 86  6 19 23 13 59.0800000  0  4G 6G 8G 9G11
  20725651.371    20725656.526    -2589297.784 8    -38363.541 8
  21367008.125    21367012.792     1981015.343 8   3311575.660 8
  22869742.343    22869748.569    -4654123.660 8  -1704802.487 9
  20753271.266    20753275.330    -2828684.675 7   -153823.207 8
 86  6 19 23 14  5.0800000  0  4G 6G 8G 9G11
  20724269.672    20724272.946    -2596562.459 8    -44024.326 8
  21369801.710    21369806.633     1995697.107 9   3323015.988 8
  22866351.417    22866358.455    -4671944.899 9  -1718689.165 9
  20751923.023    20751928.476    -2835760.879 7   -159337.134 7
 86  6 19 23 14 11.0800000  0  4G 6G 8G 9G11
  20722889.077    20722894.481    -2603814.944 8    -49675.616 8
  21372599.121    21372604.434     2010398.172 8   3334471.351 9
  22862961.012    22862966.525    -4689764.629 8  -1732574.666 9
  20750581.680    20750585.717    -2842814.034 8   -164833.107 7
 86  6 19 23 14 17.0800000  0  4G 6G 8G 9G11
  20721510.147    20721515.687    -2611055.277 8    -55317.433 7
  21375399.182    21375404.867     2025118.423 9   3345941.677 8
  22859569.453    22859575.905    -4707582.934 8  -1746459.055 8
  20749243.627    20749249.166    -2849844.235 9   -170311.176 7
 86  6 19 23 14 23.0800000  0  4G 6G 8G 9G11
  20720135.559    20720141.420    -2618283.345 8    -60949.702 8
  21378205.071    21378210.200     2039857.938 9   3357427.009 8
  22856179.743    22856185.600    -4725399.674 8  -1760342.203 9
  20747909.955    20747914.777    -2856851.343 8   -175771.253 7
 86  6 19 23 14 29.0800000  0  4G 6G 8G 9G11
  20718761.393    20718767.083    -2625499.225 9    -66572.455 8
  21381013.737    21381019.212     2054616.653 9   3368927.289 8
  22852789.615    22852795.388    -4743214.914 9  -1774224.209 9
  20746581.233    20746586.141    -2863835.456 7   -181213.413 8
 86  6 19 23 14 35.0800000  0  4G 6G 8G 9G11
  20717391.390    20717396.676    -2632702.867 8    -72185.693 8
  21383826.527    21383830.869     2069394.554 8   3380442.538 8
  22849399.981    22849405.213    -4761028.600 9  -1788105.012 8
  20745257.888    20745261.809    -2870796.472 6   -186637.588 6
 86  6 19 23 14 41.0800000  0  4G 6G 8G 9G11
  20716023.222    20716028.515    -2639894.190 8    -77789.333 8
  21386642.073    21386645.844     2084191.621 8   3391972.728 8
  22846010.763    22846014.665    -4778840.678 9  -1801984.549 7
  20743937.234    20743941.769    -2877734.522 7   -192043.850 8
 86  6 19 23 14 47.0800000  0  4G 6G 8G 9G11
  20714656.728    20714661.494    -2647073.280 9    -83383.416 8
  21389460.653    21389465.842     2099007.763 8   3403517.767 9
  22842621.346    22842626.055    -4796651.302 8  -1815862.944 9
  20742620.446    20742625.626    -2884649.617 8   -197432.238 7
 86  6 19 23 14 53.0800000  0  4G 6G 8G 9G11
  20713291.784    20713297.907    -2654240.113 8    -88967.967 8
  21392284.769    21392289.621     2113842.988 8   3415077.664 8
  22839233.621    22839236.728    -4814460.401 7  -1829740.160 8
  20741308.808    20741314.672    -2891541.649 8   -202802.645 8
 86  6 19 23 14 59.0800000  0  4G 6G 8G 9G11
  20711932.767    20711936.317    -2661394.652 9    -94542.929 8
  21395110.733    21395115.741     2128697.261 8   3426652.423 8
  22835843.115    22835848.827    -4832267.976 9  -1843616.210 8
  20740001.577    20740007.113    -2898410.656 8   -208155.116 8
 86  6 19 23 15  5.0800000  0  4G 6G 8G 9G11
  20710573.009    20710577.658    -2668536.804 9   -100108.253 8
  21397942.146    21397947.280     2143570.604 8   3438242.046 8
  22832454.601    22832460.904    -4850073.941 8  -1857490.961 9
  20738699.498    20738705.234    -2905256.563 7   -213489.586 8
 86  6 19 23 15 11.0800000  0  4G 6G 8G 9G11
  20709216.721    20709220.274    -2675666.634 8   -105663.971 8
  21400776.252    21400780.156     2158463.001 8   3449846.490 8
  22829066.391    22829071.937    -4867878.231 9  -1871364.432 9
  20737401.110    20737405.601    -2912079.405 7   -218806.070 7
 86  6 19 23 15 17.0800000  0  4G 6G 8G 9G11
  20707861.923    20707867.087    -2682783.972 8   -111209.937 8
  21403612.683    21403616.499     2173374.452 8   3461465.804 7
  22825679.391    22825684.606    -4885680.816 8  -1885236.561 8
  20736106.298    20736111.434    -2918879.122 8   -224104.564 8
 86  6 19 23 15 23.0800000  0  4G 6G 8G 9G11
  20706510.595    20706514.738    -2689888.762 9   -116746.159 8
  21406454.235    21406458.713     2188305.010 8   3473099.989 8
  22822292.076    22822297.855    -4903481.591 8  -1899107.298 8
  20734818.326    20734823.176    -2925655.634 8   -229384.964 7
 86  6 19 23 15 29.0800000  0  4G 6G 8G 9G11
  20705159.763    20705164.945    -2696981.023 9   -122272.585 8
  21409300.032    21409303.536     2203254.709 8   3484749.100 8
  22818905.146    22818909.370    -4921280.611 8  -1912976.664 8
  20733532.847    20733537.211    -2932408.998 8   -234647.314 8
 86  6 19 23 15 35.0800000  0  4G 6G 8G 9G11
  20703813.811    20703817.250    -2704060.750 8   -127789.250 8
  21412147.327    21412152.606     2218223.385 8   3496413.017 8
  22815517.790    22815523.253    -4939077.890 9  -1926844.657 7
  20732251.199    20732257.066    -2939139.103 8   -239891.552 8
 86  6 19 23 15 41.0800000  0  4G 6G 8G 9G11
  20702468.518    20702473.727    -2711128.053 8   -133296.256 8
  21414998.941    21415003.455     2233210.939 8   3508091.617 9
  22812131.626    22812136.634    -4956873.525 7  -1940711.382 8
  20730974.734    20730980.201    -2945846.135 8   -245117.812 8
 86  6 19 23 15 47.0800000  0  4G 6G 8G 9G11
  20701125.766    20701130.297    -2718182.948 9   -138793.564 9
  21417855.060    21417860.334     2248217.309 8   3519784.890 7
  22808746.513    22808751.300    -4974667.403 8  -1954576.740 7
  20729703.391    20729707.999    -2952530.216 8   -250326.186 8
 86  6 19 23 15 53.0800000  0  4G 6G 8G 9G11
  20699785.595    20699790.058    -2725225.440 8   -144281.231 8
  21420715.013    21420718.962     2263242.491 9   3531492.809 8
  22805359.291    22805364.573    -4992459.686 8  -1968440.841 8
  20728436.053    20728440.705    -2959191.267 7   -255516.611 8
 86  6 19 23 15 59.0800000  0  4G 6G 8G 9G11
  20698448.898    20698452.554    -2732255.317 9   -149759.065 8
  21423577.282    21423581.849     2278286.521 8   3543215.434 8
  22801973.007    22801980.449    -5010250.237 9  -1982303.609 8
  20727172.294    20727177.045    -2965829.178 8   -260689.014 8
 86  6 19 23 16  5.0800000  0  4G 6G 8G 9G11
  20697112.785    20697117.203    -2739272.756 8   -155227.196 9
  21426444.688    21426447.598     2293349.305 8   3554952.677 8
  22798588.597    22798593.962    -5028039.060 9  -1996165.040 7
  20725912.226    20725920.284    -2972444.041 8   -265843.461 8
 86  6 19 23 16 11.0800000  0  4G 6G 8G 9G11
  20695780.389    20695784.528    -2746277.715 8   -160685.600 8
  21429312.983    21429317.403     2308430.840 8   3566704.506 8
  22795204.251    22795209.453    -5045826.171 7  -2010025.100 7
  20724659.713    20724665.467    -2979035.879 8   -270979.936 7
 86  6 19 23 16 17.0800000  0  4G 6G 8G 9G11
  20694449.358    20694452.828    -2753270.091 8   -166134.203 8
  21432186.886    21432190.821     2323531.112 8   3578470.949 8
  22791819.135    22791826.554    -5063611.420 7  -2023883.736 7
  20723409.117    20723415.142    -2985604.595 8   -276098.416 7
 86  6 19 23 16 23.0800000  0  4G 6G 8G 9G11
  20693121.063    20693125.573    -2760249.859 8   -171572.991 9
  21435064.141    21435069.823     2338650.132 9   3590252.002 8
  22788434.918    22788441.235    -5081394.852 8  -2037740.947 8
  20722164.018    20722168.384    -2992150.183 8   -281198.877 7
 86  6 19 23 16 29.0800000  0  4G 6G 8G 9G11
  20691795.785    20691799.928    -2767216.983 8   -177001.911 8
  21437944.524    21437947.859     2353787.883 8   3602047.651 8
  22785051.981    22785057.741    -5099176.513 7  -2051596.774 8
  20720922.551    20720927.733    -2998672.608 8   -286281.275 7
 86  6 19 23 16 35.0800000  0  4G 6G 8G 9G11
  20690472.544    20690476.231    -2774171.400 9   -182420.940 8
  21440829.127    21440832.561     2368944.412 8   3613857.913 7
  22781669.357    22781673.716    -5116956.250 7  -2065451.103 8
  20719685.807    20719691.532    -3005171.807 8   -291345.590 7
 86  6 19 23 16 41.0800000  0  4G 6G 8G 9G11
  20689150.835    20689154.674    -2781113.111 8   -187830.058 9
  21443716.461    21443720.598     2384119.695 9   3625682.814 8
  22778286.679    22778291.924    -5134734.058 7  -2079303.941 8
  20718452.988    20718457.751    -3011647.830 7   -296391.844 7
 86  6 19 23 16 47.0800000  0  4G 6G 8G 9G11
  20687833.541    20687836.509    -2788042.067 9   -193229.256 7
  21446607.310    21446611.167     2399313.615 8   3637522.234 7
  22774903.429    22774908.953    -5152510.040 7  -2093155.358 7
  20717225.886    20717230.894    -3018100.688 7   -301420.044 7
 86  6 19 23 16 53.0800000  0  4G 6G 8G 9G11
  20686517.077    20686520.261    -2794958.311 9   -198618.532 9
  21449503.267    21449506.492     2414526.259 8   3649376.232 8
  22771519.856    22771526.367    -5170283.935 7  -2107005.136 8
  20716003.423    20716007.273    -3024530.290 8   -306430.117 8
 86  6 19 23 16 59.0800000  0  4G 6G 8G 9G11
  20685203.740    20685206.589    -2801861.655 8   -203997.758 9
  21452401.020    21452405.185     2429757.650 8   3661244.845 9
  22768138.773    22768142.900    -5188055.730 8  -2120853.268 8
  20714782.619    20714789.618    -3030936.566 8   -311422.012 8
 86  6 19 23 17  5.0800000  0  4G 6G 8G 9G11
  20683891.696    20683895.806    -2808752.192 9   -209367.018 9
  21455302.802    21455308.151     2445007.725 8   3673128.013 8
  22764755.087    22764763.414    -5205825.555 7  -2134699.866 7
  20713567.254    20713572.991    -3037319.570 8   -316395.781 7
 86  6 19 23 17 11.0800000  0  4G 6G 8G 9G11
  20682583.746    20682587.012    -2815629.923 9   -214726.284 9
  21458209.016    21458212.137     2460276.374 8   3685025.650 8
  22761376.256    22761380.591    -5223593.409 7  -2148544.948 7
  20712357.812    20712363.522    -3043679.326 8   -321351.441 8
 86  6 19 23 17 17.0800000  0  4G 6G 8G 9G11
  20681277.407    20681281.314    -2822494.971 9   -220075.670 8
  21461118.823    21461121.986     2475563.468 7   3696937.673 9
  22757994.936    22758000.938    -5241359.365 8  -2162388.548 7
  20711152.950    20711157.157    -3050015.950 6   -326289.060 8
 86  6 19 23 17 23.0800000  0  4G 6G 8G 9G11
  20679972.602    20679976.566    -2829347.306 8   -225415.154 8
  21464031.186    21464033.699     2490868.953 8   3708864.028 8
  22754614.990    22754620.092    -5259123.415 8  -2176230.666 8
  20709950.890    20709956.630    -3056329.483 9   -331208.695 8
 86  6 19 23 17 29.0800000  0  4G 6G 8G 9G11
  20678671.229    20678675.493    -2836186.965 9   -230744.752 9
  21466945.743    21466950.193     2506192.797 9   3720804.670 8
  22751234.217    22751241.010    -5276885.552 7  -2190071.290 7
  20708753.296    20708760.979    -3062619.914 8   -336110.309 7
 86  6 19 23 17 35.0800000  0  4G 6G 8G 9G11
  20677372.930    20677376.872    -2843013.824 9   -236064.390 9
  21469865.440    21469870.566     2521535.057 8   3732759.675 9
  22747855.370    22747861.373    -5294645.751 7  -2203910.403 7
  20707560.284    20707566.606    -3068887.225 7   -340993.926 8
 86  6 19 23 17 41.0800000  0  4G 6G 8G 9G11
  20676076.396    20676078.931    -2849827.969 8   -241374.110 9
  21472788.690    21472793.461     2536895.573 9   3744728.912 9
  22744476.104    22744480.621    -5312404.050 8  -2217748.024 7
  20706371.963    20706376.970    -3075131.485 7   -345859.583 8
 86  6 19 23 17 47.0800000  0  4G 6G 8G 9G11
  20674780.973    20674785.173    -2856629.319 9   -246673.858 8
  21475715.406    21475719.706     2552274.484 9   3756712.470 8
  22741096.201    22741101.796    -5330160.332 8  -2231584.085 7
  20705188.847    20705195.129    -3081352.566 7   -350707.171 7
 86  6 19 23 17 53.0800000  0  4G 6G 8G 9G11
  20673489.047    20673492.904    -2863417.830 8   -251963.610 8
  21478645.070    21478649.961     2567671.693 8   3768710.292 8
  22737718.924    22737723.355    -5347914.596 9  -2245418.560 8
  20704008.511    20704015.164    -3087550.504 8   -355536.735 8
 86  6 19 23 17 59.0800000  0  4G 6G 8G 9G11
  20672200.014    20672205.193    -2870193.431 8   -257243.306 8
  21481579.019    21481583.855     2583087.259 8   3780722.415 9
  22734340.552    22734345.523    -5365666.834 8  -2259251.489 7
  20702835.501    20702839.735    -3093725.265 8   -360348.227 8
 86  6 19 23 18  5.0800000  0  4G 6G 8G 9G11
  20670912.845    20670917.222    -2876956.168 9   -262512.974 7
  21484516.074    21484520.359     2598521.092 9   3792748.787 7
  22730962.736    22730968.478    -5383417.085 8  -2273082.826 8
  20701663.604    20701669.229    -3099876.841 7   -365141.670 7
 86  6 19 23 18 11.0800000  0  4G 6G 8G 9G11
  20669629.041    20669634.271    -2883706.059 9   -267772.628 8
  21487456.299    21487460.544     2613973.193 9   3804789.377 8
  22727585.890    22727590.348    -5401165.233 7  -2286912.545 7
  20700498.149    20700505.219    -3106005.239 7   -369917.038 8
 86  6 19 23 18 17.0800000  0  4G 6G 8G 9G11
  20668346.298    20668351.688    -2890442.999 8   -273022.189 8
  21490401.376    21490404.777     2629443.529 8   3816844.172 8
  22724208.050    22724212.550    -5418911.334 8  -2300740.662 8
  20699337.015    20699340.852    -3112110.473 7   -374674.367 7
 86  6 19 23 18 23.0800000  0  4G 6G 8G 9G11
  20667066.264    20667071.966    -2897166.881 9   -278261.581 8
  21493347.238    21493351.839     2644932.154 9   3828913.236 8
  22720832.132    22720837.255    -5436655.251 9  -2314567.094 8
  20698179.174    20698183.909    -3118192.472 8   -379413.586 8
 86  6 19 23 18 29.0800000  0  4G 6G 8G 9G11
  20665789.834    20665794.195    -2903877.794 8   -283490.862 9
  21496299.371    21496303.492     2660439.035 9   3840996.515 9
  22717455.994    22717460.415    -5454396.954 7  -2328391.798 8
  20697027.080    20697031.417    -3124251.231 8   -384134.684 8
 86  6 19 23 18 35.0800000  0  4G 6G 8G 9G11
  20664515.142    20664520.190    -2910575.662 8   -288709.989 9
  21499253.349    21499257.778     2675964.076 9   3853093.948 8
  22714080.784    22714085.474    -5472136.471 9  -2342214.808 7
  20695875.993    20695882.531    -3130286.711 9   -388837.662 7
 86  6 19 23 18 41.0800000  0  4G 6G 8G 9G11
  20663243.055    20663247.593    -2917260.504 9   -293918.969 9
  21502211.052    21502215.223     2691507.332 8   3865205.570 8
  22710704.200    22710710.337    -5489873.748 7  -2356036.046 8
  20694733.491    20694737.667    -3136298.905 8   -393522.485 8
 86  6 19 23 18 47.0800000  0  4G 6G 8G 9G11
  20661973.432    20661978.834    -2923932.214 9   -299117.696 8
  21505172.078    21505177.153     2707068.791 9   3877331.391 7
  22707329.384    22707334.672    -5507608.705 7  -2369855.490 8
  20693593.961    20693599.688    -3142287.828 8   -398189.177 7
 86  6 19 23 18 53.0800000  0  4G 6G 8G 9G11
  20660705.288    20660711.409    -2930590.814 8   -304306.205 8
  21508137.400    21508142.231     2722648.428 8   3889471.349 8
  22703954.664    22703960.801    -5525341.505 7  -2383673.250 8
  20692458.471    20692463.678    -3148253.484 8   -402837.740 8
 86  6 19 23 18 59.0800000  0  4G 6G 8G 9G11
  20659442.089    20659446.947    -2937236.390 9   -309484.590 8
  21511106.248    21511109.869     2738246.101 9   3901625.376 8
  22700581.634    22700586.277    -5543072.140 8  -2397489.308 8
  20691327.586    20691333.482    -3154195.966 8   -407468.241 8
 86  6 19 23 19  5.0800000  0  4G 6G 8G 9G11
  20658179.369    20658184.441    -2943868.900 9   -314652.777 8
  21514076.058    21514081.037     2753861.809 8   3913793.463 9
  22697205.961    22697213.115    -5560800.524 7  -2411303.627 8
  20690200.852    20690206.975    -3160115.228 8   -412080.657 8
 86  6 19 23 19 11.0800000  0  4G 6G 8G 9G11
  20656919.327    20656925.289    -2950488.328 8   -319810.767 9
  21517052.457    21517055.060     2769495.466 8   3925975.525 8
  22693834.544    22693838.979    -5578526.687 7  -2425116.209 8
  20689079.669    20689085.020    -3166011.303 8   -416674.989 8
 86  6 19 23 19 17.0800000  0  4G 6G 8G 9G11
  20655662.573    20655667.471    -2957094.619 8   -324958.525 8
  21520028.651    21520034.085     2785147.138 9   3938171.639 8
  22690460.650    22690467.518    -5596250.600 7  -2438927.051 8
  20687961.406    20687967.399    -3171884.149 9   -421251.225 8
 86  6 19 23 19 23.0800000  0  4G 6G 8G 9G11
  20654408.471    20654412.287    -2963687.858 9   -330096.122 8
  21523012.530    21523016.577     2800816.725 9   3950381.688 9
  22687089.046    22687093.941    -5613972.291 7  -2452736.144 8
  20686848.980    20686853.830    -3177733.785 8   -425809.387 8
 86  6 19 23 19 29.0800000  0  4G 6G 8G 9G11
  20653155.027    20653160.765    -2970267.969 9   -335223.481 8
  21525997.210    21526001.646     2816504.232 9   3962605.724 8
  22683718.137    22683723.064    -5631691.699 8  -2466543.472 7
  20685740.303    20685745.367    -3183560.267 8   -430349.508 9
 86  6 19 23 19 35.0800000  0  4G 6G 8G 9G11
  20651904.957    20651910.837    -2976834.937 8   -340340.601 8
  21528985.767    21528990.662     2832209.636 9   3974843.699 8
  22680345.561    22680350.491    -5649408.813 7  -2480349.006 9
  20684634.374    20684640.113    -3189363.557 8   -434871.535 8
 86  6 19 23 19 41.0800000  0  4G 6G 8G 9G11
  20650658.181    20650663.686    -2983388.788 8   -345447.505 9
  21531977.223    21531982.974     2847932.872 8   3987095.569 9
  22676974.951    22676981.397    -5667123.644 7  -2494152.772 8
  20683535.513    20683541.624    -3195143.637 8   -439375.483 7
 86  6 19 23 19 47.0800000  0  4G 6G 8G 9G11
  20649413.981    20649420.161    -2989929.432 7   -350544.113 8
  21534973.068    21534978.293     2863673.985 8   3999361.364 8
  22673603.485    22673608.314    -5684836.127 6  -2507954.692 8
  20682439.801    20682446.398    -3200900.484 8   -443861.342 8
 86  6 19 23 19 53.0800000  0  4G 6G 8G 9G11
  20648170.808    20648176.503    -2996456.884 8   -355630.431 8
  21537971.531    21537976.257     2879432.847 9   4011640.988 9
  22670232.471    22670239.944    -5702546.337 7  -2521754.842 8
  20681348.438    20681354.506    -3206634.161 8   -448329.139 8
 86  6 19 23 19 59.0800000  0  4G 6G 8G 9G11
  20646931.524    20646936.725    -3002971.057 8   -360706.406 8
  21540974.654    21540978.955     2895209.542 9   4023934.517 8
  22666865.236    22666870.395    -5720254.159 7  -2535553.126 7
  20680260.969    20680268.395    -3212344.569 8   -452778.808 8
 86  6 19 23 20  5.0800000  0  4G 6G 8G 9G11
  20645695.099    20645700.441    -3009471.944 9   -365772.039 8
  21543979.401    21543984.952     2911004.132 8   4036241.983 8
  22663495.105    22663501.442    -5737959.525 7  -2549349.500 7
  20679178.708    20679186.076    -3218031.615 8   -457210.262 8
 86  6 19 23 20 11.0800000  0  4G 6G 8G 9G11
  20644460.508    20644465.152    -3015959.431 8   -370827.213 8
  21546988.840    21546994.170     2926816.558 8   4048563.355 8
  22660126.399    22660131.044    -5755662.422 7  -2563143.973 7
  20678101.709    20678108.307    -3223695.340 8   -461623.547 8
 86  6 19 23 20 17.0800000  0  4G 6G 8G 9G11
  20643229.202    20643232.975    -3022433.509 9   -375871.941 8
  21550001.678    21550005.989     2942646.837 9   4060898.639 8
  22656758.095    22656763.897    -5773362.788 7  -2576936.458 8
  20677029.264    20677034.100    -3229335.706 7   -466018.639 8
 86  6 19 23 20 23.0800000  0  4G 6G 8G 9G11
  20641998.974    20642004.693    -3028894.254 9   -380906.298 9
  21553016.114    21553021.524     2958494.868 8   4073247.738 9
  22653391.027    22653396.805    -5791060.675 8  -2590727.019 7
  20675960.483    20675965.862    -3234952.791 7   -470395.591 7
 86  6 19 23 20 29.0800000  0  4G 6G 8G 9G11
  20640772.387    20640777.398    -3035341.492 8   -385930.120 8
  21556035.378    21556040.217     2974360.734 9   4085610.753 8
  22650024.595    22650028.294    -5808755.996 7  -2604515.566 7
  20674895.334    20674900.843    -3240546.523 8   -474754.320 8
 86  6 19 23 20 35.0800000  0  4G 6G 8G 9G11
  20639548.420    20639553.713    -3041775.298 8   -390943.466 9
  21559058.657    21559063.807     2990244.365 9   4097987.607 8
  22646657.157    22646662.202    -5826448.671 8  -2618302.068 9
  20673834.852    20673840.888    -3246116.824 8   -479094.811 8
 86  6 19 23 20 41.0800000  0  4G 6G 8G 9G11
  20638326.520    20638330.099    -3048195.662 8   -395946.349 8
  21562084.516    21562090.128     3006145.691 8   4110378.245 9
  22643288.481    22643295.028    -5844138.831 7  -2632086.600 8
  20672779.749    20672786.287    -3251663.778 8   -483417.119 8
 86  6 19 23 20 47.0800000  0  4G 6G 8G 9G11
  20637107.198    20637112.008    -3054602.668 8   -400938.813 7
  21565114.047    21565118.609     3022064.628 8   4122782.607 8
  22639925.089    22639929.176    -5861826.485 8  -2645869.183 8
  20671730.139    20671733.129    -3257187.431 7   -487721.264 9
 86  6 19 23 20 53.0800000  0  4G 6G 8G 9G11
  20635890.577    20635895.716    -3060996.200 9   -405920.781 7
  21568146.296    21568151.918     3038001.108 8   4135200.635 9
  22636559.002    22636564.061    -5879511.598 8  -2659649.781 9
  20670681.504    20670688.058    -3262687.813 8   -492007.264 7
 86  6 19 23 20 59.0800000  0  4G 6G 8G 9G11
  20634675.596    20634681.002    -3067376.339 8   -410892.314 9
  21571182.093    21571186.822     3053955.163 9   4147632.362 9
  22633195.245    22633199.484    -5897194.212 8  -2673428.452 8
  20669640.196    20669645.420    -3268164.946 9   -496275.158 8
 86  6 19 23 21  5.0800000  0  4G 6G 8G 9G11
  20633465.455    20633469.506    -3073743.080 9   -415853.411 9
  21574221.671    21574226.147     3069926.677 8   4160077.703 9
  22629830.592    22629834.312    -5914874.322 7  -2687205.152 8
  20668602.263    20668607.087    -3273618.847 8   -500524.954 8
 86  6 19 23 21 11.0800000  0  4G 6G 8G 9G11
  20632255.845    20632260.752    -3080096.447 9   -420804.088 8
  21577264.391    21577269.910     3085915.654 9   4172536.641 9
  22626466.564    22626471.107    -5932551.914 8  -2700979.884 8
  20667568.313    20667574.290    -3279049.537 8   -504756.658 8
 86  6 19 23 21 17.0800000  0  4G 6G 8G 9G11
  20631050.273    20631053.323    -3086436.463 9   -425744.353 9
  21580310.863    21580315.077     3101921.945 8   4185009.067 9
  22623101.774    22623107.925    -5950227.061 8  -2714752.709 7
  20666539.821    20666544.788    -3284457.092 8   -508970.335 8
 86  6 19 23 21 23.0800000  0  4G 6G 8G 9G11
  20629846.597    20629850.174    -3092763.003 8   -430674.122 8
  21583359.728    21583363.867     3117945.644 9   4197495.063 9
  22619738.820    22619744.608    -5967899.622 7  -2728523.540 8
  20665515.396    20665520.131    -3289841.395 8   -513165.891 8
 86  6 19 23 21 29.0800000  0  4G 6G 8G 9G11
  20628644.386    20628647.956    -3099076.136 9   -435593.440 8
  21586412.662    21586416.288     3133986.729 8   4209994.605 8
  22616376.088    22616381.258    -5985569.651 7  -2742292.391 9
  20664494.893    20664500.717    -3295202.481 8   -517343.346 8
 86  6 19 23 21 35.0800000  0  4G 6G 8G 9G11
  20627446.469    20627450.254    -3105375.667 8   -440502.169 8
  21589468.399    21589472.934     3150045.271 9   4222507.753 9
  22613015.537    22613020.160    -6003237.068 8  -2756059.187 8
  20663479.772    20663485.538    -3300540.222 9   -521502.638 8
 86  6 19 23 21 41.0800000  0  4G 6G 8G 9G11
  20626249.142    20626254.109    -3111661.663 9   -445400.343 8
  21592527.158    21592532.510     3166121.184 8   4235034.447 9
  22609653.328    22609657.407    -6020901.780 7  -2769823.901 8
  20662468.054    20662473.176    -3305854.709 8   -525643.788 9
 86  6 19 23 21 47.0800000  0  4G 6G 8G 9G11
  20625056.249    20625059.799    -3117934.061 8   -450287.922 8
  21595587.913    21595593.116     3182214.394 8   4247574.606 8
  22606293.700    22606297.393    -6038563.834 8  -2783586.542 8
  20661461.916    20661466.522    -3311145.918 8   -529766.799 7
 86  6 19 23 21 53.0800000  0  4G 6G 8G 9G11
  20623864.611    20623870.379    -3124193.008 9   -455165.031 8
  21598655.764    21598660.370     3198324.824 7   4260128.177 8
  22602932.257    22602935.992    -6056223.412 8  -2797347.229 7
  20660459.756    20660462.877    -3316413.913 9   -533871.733 8
 86  6 19 23 21 59.0800000  0  4G 6G 8G 9G11
  20622676.904    20622681.425    -3130438.420 9   -460031.568 8
  21601724.281    21601728.799     3214452.482 9   4272695.178 9
  22599571.507    22599576.593    -6073880.388 8  -2811105.922 8
  20659461.434    20659465.898    -3321658.718 8   -537958.585 8
 86  6 19 23 22  5.0800000  0  4G 6G 8G 9G11
  20621491.190    20621495.548    -3136670.299 8   -464887.573 8
  21604795.025    21604800.535     3230597.352 8   4285275.601 8
  22596214.200    22596216.625    -6091534.779 8  -2824862.576 9
  20658466.916    20658471.310    -3326880.329 8   -542027.380 8
 86  6 19 23 22 11.0800000  0  4G 6G 8G 9G11
  20620307.212    20620311.926    -3142888.610 9   -469733.022 9
  21607872.122    21607876.965     3246759.361 8   4297869.372 8
  22592853.651    22592858.276    -6109186.384 8  -2838617.075 8
  20657476.462    20657482.343    -3332078.784 8   -546078.114 8
 86  6 19 23 22 17.0800000  0  4G 6G 8G 9G11
  20619126.443    20619130.931    -3149093.299 9   -474567.848 8
  21610950.586    21610954.211     3262938.611 9   4310476.571 8
  22589494.615    22589499.838    -6126835.246 8  -2852369.431 8
  20656492.762    20656497.370    -3337253.904 8   -550110.689 8
 86  6 19 23 22 23.0800000  0  4G 6G 8G 9G11
  20617948.870    20617952.145    -3155284.246 9   -479391.959 9
  21614032.050    21614037.709     3279135.056 8   4323097.179 8
  22586136.751    22586141.993    -6144481.289 7  -2866119.587 8
  20655512.612    20655517.405    -3342405.717 8   -554125.085 8
 86  6 19 23 22 29.0800000  0  4G 6G 8G 9G11
  20616773.678    20616777.283    -3161461.425 8   -484205.335 8
  21617117.901    21617122.691     3295348.746 8   4335731.214 8
  22582779.257    22582784.815    -6162124.526 8  -2879867.543 9
  20654537.124    20654541.459    -3347534.160 8   -558121.258 8
 86  6 19 23 22 35.0800000  0  4G 6G 8G 9G11
  20615601.075    20615604.810    -3167624.804 8   -489007.963 9
  21620205.718    21620210.908     3311579.630 8   4348378.651 9
  22579424.022    22579427.806    -6179764.862 8  -2893613.261 8
  20653565.071    20653570.738    -3352639.230 8   -562099.228 8
 86  6 19 23 22 41.0800000  0  4G 6G 8G 9G11
  20614431.591    20614434.868    -3173774.421 9   -493799.870 9
  21623298.373    21623303.505     3327827.621 8   4361039.423 8
  22576067.113    22576070.749    -6197402.337 7  -2907356.731 9
  20652597.999    20652603.079    -3357720.970 8   -566059.027 8
 86  6 19 23 22 47.0800000  0  4G 6G 8G 9G11
  20613262.915    20613268.070    -3179910.269 8   -498581.051 9
  21626393.917    21626398.682     3344092.774 8   4373713.551 9
  22572711.529    22572715.199    -6215036.902 8  -2921097.956 8
  20651634.645    20651640.986    -3362779.364 8   -570000.629 8
 86  6 19 23 22 53.0800000  0  4G 6G 8G 9G11
  20612097.504    20612102.875    -3186032.316 8   -503351.471 9
  21629491.973    21629496.486     3360374.988 8   4386400.999 9
  22569355.380    22569359.652    -6232668.712 8  -2934837.025 9
  20650676.931    20650682.727    -3367814.323 8   -573923.970 8
 86  6 19 23 22 59.0800000  0  4G 6G 8G 9G11
  20610935.124    20610939.359    -3192140.523 8   -508111.111 9
  21632593.342    21632598.207     3376674.299 8   4399101.758 8
  22566002.336    22566005.389    -6250297.585 8  -2948573.796 8
  20649723.825    20649728.575    -3372825.918 9   -577829.107 8
 86  6 19 23 23  5.0800000  0  4G 6G 8G 9G11
  20609776.607    20609780.552    -3198234.936 9   -512860.011 9
  21635698.216    21635703.707     3392990.654 7   4411815.794 8
  22562647.180    22562652.330    -6267923.573 8  -2962308.336 8
  20648775.840    20648779.561    -3377814.229 7   -581716.106 7
 86  6 19 23 23 11.0800000  0  4G 6G 8G 9G11
  20608618.263    20608623.718    -3204315.476 8   -517598.094 8
  21638807.158    21638811.523     3409323.985 8   4424543.068 8
  22559294.099    22559297.741    -6285546.626 8  -2976040.568 9
  20647828.113    20647834.065    -3382779.218 7   -585584.910 8
 86  6 19 23 23 17.0800000  0  4G 6G 8G 9G11
  20607463.679    20607468.568    -3210382.141 8   -522325.360 9
  21641919.190    21641922.810     3425674.346 8   4437283.587 8
  22555940.576    22555945.528    -6303166.688 8  -2989770.488 9
  20646889.629    20646893.995    -3387720.801 8   -589435.506 8
 86  6 19 23 23 23.0800000  0  4G 6G 8G 9G11
  20606312.415    20606316.902    -3216434.920 8   -527041.811 9
  21645032.115    21645036.925     3442041.636 8   4450037.332 8
  22552586.938    22552593.020    -6320783.805 8  -3003498.100 7
  20645953.036    20645958.173    -3392639.041 8   -593267.878 8
 86  6 19 23 23 29.0800000  0  4G 6G 8G 9G11
  20605162.647    20605167.412    -3222473.770 9   -531747.410 8
  21648150.440    21648155.434     3458425.927 8   4462804.294 8
  22549236.183    22549241.248    -6338397.892 8  -3017223.366 8
  20645021.793    20645027.474    -3397533.897 7   -597082.059 7
 86  6 19 23 23 35.0800000  0  4G 6G 8G 9G11
  20604016.388    20604021.355    -3228498.658 9   -536442.126 8
  21651270.257    21651276.008     3474827.104 8   4475584.424 8
  22545885.785    22545890.079    -6356008.994 8  -3030946.286 8
  20644095.043    20644099.881    -3402405.409 8   -600878.045 7
 86  6 19 23 23 41.0800000  0  4G 6G 8G 9G11
  20602872.534    20602877.744    -3234509.600 7   -541125.989 8
  21654395.748    21654400.683     3491245.174 7   4488377.717 9
  22542533.853    22542539.229    -6373617.102 9  -3044666.892 7
  20643172.301    20643177.167    -3407253.626 8   -604655.869 8
 86  6 19 23 23 47.0800000  0  4G 6G 8G 9G11
  20601731.284    20601735.854    -3240506.639 8   -545799.007 9
  21657522.564    21657527.895     3507680.065 7   4501184.124 9
  22539184.526    22539187.668    -6391222.195 8  -3058385.137 8
  20642254.308    20642258.760    -3412078.484 8   -608415.485 8
 86  6 19 23 23 53.0800000  0  4G 6G 8G 9G11
  20600593.674    20600598.357    -3246489.716 8   -550461.133 8
  21660653.026    21660658.057     3524131.765 8   4514003.634 8
  22535834.909    22535838.795    -6408824.269 9  -3072101.036 8
  20641340.495    20641345.175    -3416880.023 8   -612156.951 8
 86  6 19 23 23 59.0800000  0  4G 6G 8G 9G11
  20599457.894    20599462.110    -3252458.820 8   -555112.387 8
  21663787.456    21663791.770     3540600.266 8   4526836.227 8
  22532485.535    22532489.542    -6426423.228 9  -3085814.507 8
  20640430.514    20640436.096    -3421658.173 8   -615880.177 8
 86  6 19 23 24  5.0800000  0  4G 6G 8G 9G11
  20598323.114    20598328.661    -3258413.932 8   -559752.742 8
  21666924.571    21666930.122     3557085.526 8   4539681.874 8
  22529136.300    22529140.046    -6444019.144 8  -3099525.606 8
  20639526.346    20639531.784    -3426413.025 8   -619585.239 7
 86  6 19 23 24 11.0800000  0  4G 6G 8G 9G11
  20597191.721    20597198.693    -3264355.035 9   -564382.163 8
  21670063.897    21670068.585     3573587.501 8   4552540.556 9
  22525789.483    22525794.213    -6461612.011 8  -3113234.332 8
  20638625.554    20638630.590    -3431144.556 8   -623272.163 8
 86  6 19 23 24 17.0800000  0  4G 6G 8G 9G11
  20596064.214    20596070.860    -3270282.135 8   -569000.696 8
  21673208.755    21673212.232     3590106.151 8   4565412.217 8
  22522443.006    22522445.832    -6479201.785 8  -3126940.644 8
  20637728.425    20637735.651    -3435852.792 7   -626940.906 8
 86  6 19 23 24 23.0800000  0  4G 6G 8G 9G11
  20594938.840    20594945.098    -3276195.106 8   -573608.204 8
  21676354.304    21676359.567     3606641.517 8   4578296.921 8
  22519095.800    22519099.065    -6496788.418 9  -3140644.512 8
  20636837.905    20636844.703    -3440537.697 8   -630591.476 9
 86  6 19 23 24 29.0800000  0  4G 6G 8G 9G11
  20593816.777    20593823.086    -3282094.136 9   -578204.855 8
  21679504.608    21679508.471     3623193.465 9   4591194.525 9
  22515749.345    22515753.323    -6514371.951 8  -3154345.968 8
  20635950.764    20635956.159    -3445199.354 8   -634223.935 8
 86  6 19 23 24 35.0800000  0  4G 6G 8G 9G11
  20592697.439    20592701.910    -3287979.052 8   -582790.497 9
  21682657.327    21682662.930     3639762.019 7   4604105.085 8
  22512403.792    22512407.493    -6531952.402 9  -3168045.016 8
  20635070.776    20635074.324    -3449837.705 7   -637838.227 8
 86  6 19 23 24 41.0800000  0  4G 6G 8G 9G11
  20591579.144    20591584.362    -3293849.868 9   -587365.157 9
  21685814.168    21685818.892     3656347.158 8   4617028.564 9
  22509059.112    22509062.960    -6549529.707 8  -3181741.607 9
  20634190.190    20634196.270    -3454452.693 8   -641434.324 8
 86  6 19 23 24 47.0800000  0  4G 6G 8G 9G11
  20590465.517    20590470.299    -3299706.580 8   -591928.843 8
  21688972.134    21688976.882     3672948.850 9   4629964.952 8
  22505714.444    22505718.345    -6567103.866 8  -3195435.752 8
  20633317.041    20633322.008    -3459044.339 8   -645012.226 8
 86  6 19 23 24 53.0800000  0  4G 6G 8G 9G11
  20589352.522    20589359.386    -3305549.184 8   -596481.518 8
  21692134.237    21692140.285     3689567.107 8   4642914.245 8
  22502370.889    22502375.987    -6584674.866 9  -3209127.446 8
  20632446.442    20632452.180    -3463612.630 8   -648571.949 8
 86  6 19 23 24 59.0800000  0  4G 6G 8G 9G11
  20588243.006    20588250.210    -3311377.689 8   -601023.210 8
  21695299.659    21695305.047     3706201.813 8   4655876.341 8
  22499028.388    22499031.738    -6602242.687 9  -3222816.667 7
  20631582.538    20631586.689    -3468157.616 8   -652113.476 8
 86  6 19 23 25  5.0800000  0  4G 6G 8G 9G11
  20587137.132    20587143.198    -3317192.089 8   -605553.908 8
  21698467.967    21698473.731     3722852.977 8   4668851.268 8
  22495685.633    22495689.548    -6619807.396 9  -3236503.454 8
  20630722.785    20630727.236    -3472679.393 8   -655636.947 8
 86  6 19 23 25 11.0800000  0  4G 6G 8G 9G11
  20586034.854    20586039.471    -3322992.322 8   -610073.575 8
  21701640.590    21701645.335     3739520.569 7   4681839.014 8
  22492342.614    22492348.335    -6637368.855 7  -3250187.697 8
  20629867.008    20629871.631    -3477177.800 9   -659142.205 7
 86  6 19 23 25 17.0800000  0  4G 6G 8G 9G11
  20584933.091    20584937.606    -3328778.303 8   -614582.135 9
  21704816.661    21704821.752     3756204.623 9   4694839.551 8
  22489002.481    22489007.237    -6654927.029 8  -3263869.382 8
  20629014.379    20629019.647    -3481652.878 8   -662629.261 7
 86  6 19 23 25 23.0800000  0  4G 6G 8G 9G11
  20583833.966    20583839.961    -3334550.000 8   -619079.553 8
  21707994.236    21707999.644     3772905.144 7   4707852.944 8
  22485661.552    22485666.428    -6672481.828 8  -3277548.433 8
  20628168.022    20628172.269    -3486104.589 8   -666098.136 8
 86  6 19 23 25 29.0800000  0  4G 6G 8G 9G11
  20582739.536    20582744.333    -3340307.461 8   -623565.886 8
  21711174.371    21711178.626     3789622.090 9   4720879.128 8
  22482322.320    22482326.622    -6690033.293 9  -3291224.905 8
  20627325.237    20627329.217    -3490532.914 7   -669548.774 7
 86  6 19 23 25 35.0800000  0  4G 6G 8G 9G11
  20581646.533    20581652.035    -3346050.478 8   -628040.966 9
  21714358.776    21714363.957     3806355.540 8   4733918.183 7
  22478981.734    22478987.491    -6707581.337 8  -3304898.704 9
  20626486.490    20626490.555    -3494937.747 8   -672981.109 8
 86  6 19 23 25 41.0800000  0  4G 6G 8G 9G11
  20580555.941    20580560.238    -3351779.172 8   -632504.874 9
  21717546.680    21717551.576     3823105.370 8   4746969.993 8
  22475642.484    22475648.222    -6725126.025 9  -3318569.895 9
  20625651.233    20625657.515    -3499319.217 8   -676395.251 7
 86  6 19 23 25 47.0800000  0  4G 6G 8G 9G11
  20579469.113    20579473.321    -3357493.492 8   -636957.593 8
  21720736.592    21720742.401     3839871.570 8   4760034.548 8
  22472304.470    22472310.694    -6742667.283 8  -3332238.381 8
  20624823.592    20624827.923    -3503677.303 7   -679791.147 7
 86  6 19 23 25 53.0800000  0  4G 6G 8G 9G11
  20578384.340    20578388.680    -3363193.502 8   -641399.165 8
  21723930.015    21723936.135     3856654.109 8   4773111.849 7
  22468967.869    22468972.276    -6760205.111 8  -3345904.227 9
  20623998.522    20624002.900    -3508011.957 8   -683168.813 9
 86  6 19 23 25 59.0800000  0  4G 6G 8G 9G11
  20577303.535    20577307.165    -3368879.078 9   -645829.483 8
  21727127.283    21727132.850     3873452.921 8   4786201.835 8
  22465630.706    22465636.436    -6777739.525 8  -3359567.395 9
  20623178.774    20623182.912    -3512323.295 7   -686528.286 7
 86  6 19 23 26  5.0800000  0  4G 6G 8G 9G11
  20576223.197    20576227.248    -3374550.291 9   -650248.612 8
  21730327.207    21730332.240     3890268.052 9   4799304.531 8
  22462295.232    22462300.383    -6795270.486 8  -3373227.886 9
  20622361.576    20622366.886    -3516611.239 8   -689869.526 9
 86  6 19 23 26 11.0800000  0  4G 6G 8G 9G11
  20575146.090    20575151.782    -3380207.129 9   -654656.544 8
  21733529.788    21733535.199     3907099.329 8   4812419.801 9
  22458961.007    22458965.490    -6812798.093 8  -3386885.766 8
  20621549.815    20621556.227    -3520875.844 8   -693192.597 8
 86  6 19 23 26 17.0800000  0  4G 6G 8G 9G11
  20574073.680    20574077.080    -3385849.721 9   -659053.355 7
  21736736.154    21736741.283     3923946.661 9   4825547.585 8
  22455625.239    22455631.154    -6830322.358 9  -3400541.023 9
  20620743.235    20620747.742    -3525117.150 8   -696497.508 8
 86  6 19 23 26 23.0800000  0  4G 6G 8G 9G11
  20573002.939    20573007.909    -3391477.873 8   -663438.937 9
  21739944.308    21739949.976     3940810.180 7   4838687.986 8
  22452291.269    22452296.791    -6847843.181 8  -3414193.625 9
  20619939.831    20619945.469    -3529335.030 7   -699784.176 8
 86  6 19 23 26 29.0800000  0  4G 6G 8G 9G11
  20571935.251    20571937.869    -3397091.651 8   -667813.294 9
  21743156.904    21743162.392     3957689.820 9   4851840.955 9
  22448958.535    22448963.392    -6865360.509 8  -3427843.482 8
  20619140.891    20619146.859    -3533529.580 8   -703052.632 8
 86  6 19 23 26 35.0800000  0  4G 6G 8G 9G11
  20570867.778    20570872.085    -3402690.975 9   -672176.413 8
  21746372.354    21746378.113     3974585.534 9   4865006.438 8
  22445623.964    22445630.912    -6882874.380 8  -3441490.643 8
  20618348.391    20618353.271    -3537700.797 8   -706302.939 8
 86  6 19 23 26 41.0800000  0  4G 6G 8G 9G11
  20569805.699    20569809.467    -3408275.833 8   -676528.247 9
  21749591.393    21749594.660     3991497.327 8   4878184.458 8
  22442293.055    22442298.565    -6900384.731 8  -3455135.073 8
  20617559.439    20617565.005    -3541848.680 7   -709535.056 8
 86  6 19 23 26 47.0800000  0  4G 6G 8G 9G11
  20568746.263    20568749.834    -3413846.144 8   -680868.750 8
  21752811.838    21752816.934     4008425.226 9   4891375.024 7
  22438960.682    22438966.148    -6917891.517 8  -3468776.714 9
  20616774.350    20616779.245    -3545973.179 8   -712748.959 8
 86  6 19 23 26 53.0800000  0  4G 6G 8G 9G11
  20567689.284    20567692.191    -3419401.906 9   -685197.920 8
  21756037.458    21756041.555     4025369.158 9   4904578.088 8
  22435629.715    22435636.293    -6935394.690 8  -3482415.551 8
  20615993.411    20615999.349    -3550074.284 8   -715944.626 7
 86  6 19 23 26 59.0800000  0  4G 6G 8G 9G11
  20566634.204    20566636.936    -3424943.124 8   -689515.741 8
  21759264.494    21759268.179     4042329.158 8   4917793.666 8
  22432300.611    22432305.276    -6952894.248 8  -3496051.569 8
  20615218.081    20615223.563    -3554152.007 8   -719122.063 8
 86  6 19 23 27  5.0800000  0  4G 6G 8G 9G11
  20565583.327    20565586.210    -3430469.792 7   -693822.249 8
  21762494.353    21762498.117     4059305.101 8   4931021.681 8
  22428971.163    22428975.950    -6970390.224 8  -3509684.785 8
  20614444.841    20614450.735    -3558206.421 7   -722281.329 8
 86  6 19 23 27 11.0800000  0  4G 6G 8G 9G11
  20564534.298    20564537.368    -3435981.894 8   -698117.375 9
  21765728.381    21765733.420     4076297.066 8   4944262.156 8
  22425642.330    22425646.672    -6987882.604 8  -3523315.216 8
  20613680.127    20613685.022    -3562237.450 8   -725422.400 7
 86  6 19 23 27 17.0800000  0  4G 6G 8G 9G11
  20563488.172    20563492.088    -3441479.406 8   -702401.152 8
  21768963.951    21768968.167     4093304.934 9   4957515.041 8
  22422314.162    22422319.913    -7005371.346 8  -3536942.811 8
  20612917.048    20612921.313    -3566245.141 8   -728545.274 8
 86  6 19 23 27 23.0800000  0  4G 6G 8G 9G11
  20562444.355    20562447.401    -3446962.358 8   -706673.595 7
  21772203.957    21772208.796     4110328.681 8   4970780.300 8
  22418987.590    22418992.675    -7022856.456 7  -3550567.567 9
  20612159.461    20612163.082    -3570229.484 7   -731649.940 8
 86  6 19 23 27 29.0800000  0  4G 6G 8G 9G11
  20561404.528    20561407.616    -3452430.714 9   -710934.657 8
  21775445.534    21775450.494     4127368.256 9   4984057.887 8
  22415660.379    22415665.446    -7040337.941 7  -3564189.504 9
  20611405.968    20611408.989    -3574190.479 8   -734736.441 8
 86  6 19 23 27 35.0800000  0  4G 6G 8G 9G11
  20560365.910    20560369.750    -3457884.510 8   -715184.349 9
  21778690.494    21778696.625     4144423.625 8   4997347.777 8
  22412334.201    22412339.697    -7057815.773 7  -3577808.591 8
  20610655.822    20610661.303    -3578128.158 8   -737804.752 8
 86  6 19 23 27 41.0800000  0  4G 6G 8G 9G11
  20559331.295    20559334.432    -3463323.706 8   -719422.689 9
  21781940.677    21781945.610     4161494.707 8   5010649.916 8
  22409009.288    22409015.233    -7075290.026 7  -3591424.871 8
  20609910.058    20609916.194    -3582042.560 8   -740854.931 8
 86  6 19 23 27 47.0800000  0  4G 6G 8G 9G11
  20558298.330    20558303.427    -3468748.304 8   -723649.638 8
  21785192.576    21785196.875     4178581.612 8   5023964.380 8
  22405683.813    22405689.764    -7092760.626 7  -3605038.341 7
  20609171.073    20609173.976    -3585933.631 8   -743886.948 8
 86  6 19 23 27 53.0800000  0  4G 6G 8G 9G11
  20557268.695    20557273.315    -3474158.267 8   -727865.219 8
  21788446.297    21788450.905     4195684.123 9   5037291.023 8
  22402360.907    22402366.060    -7110227.592 8  -3618648.948 8
  20608433.462    20608440.599    -3589801.477 8   -746900.838 8
 86  6 19 23 27 59.0800000  0  4G 6G 8G 9G11
  20556240.891    20556246.836    -3479553.586 8   -732069.368 9
  21791704.628    21791708.785     4212802.395 8   5050629.916 8
  22399036.734    22399042.277    -7127690.919 7  -3632256.733 8
  20607702.831    20607707.455    -3593646.004 8   -749896.570 7
 86  6 19 23 28  5.0800000  0  4G 6G 8G 9G11
  20555219.024    20555222.870    -3484934.303 8   -736262.113 8
  21794963.935    21794969.382     4229936.203 8   5063980.942 8
  22395714.561    22395719.812    -7145150.561 7  -3645861.656 8
  20606975.500    20606980.089    -3597467.304 7   -752874.218 8
 86  6 19 23 28 11.0800000  0  4G 6G 8G 9G11
  20554196.381    20554202.191    -3490300.361 8   -740443.456 9
  21798228.099    21798231.795     4247085.666 8   5077344.158 7
  22392392.262    22392399.235    -7162606.525 7  -3659463.702 8
  20606254.597    20606257.561    -3601265.412 8   -755833.773 8
 86  6 19 23 28 17.0800000  0  4G 6G 8G 9G11
  20553179.011    20553184.056    -3495651.712 8   -744613.348 8
  21801494.258    21801498.208     4264250.672 8   5090719.480 8
  22389071.526    22389077.442    -7180058.752 7  -3673062.834 8
  20605534.816    20605539.123    -3605040.198 7   -758775.153 7
 86  6 19 23 28 23.0800000  0  4G 6G 8G 9G11
  20552163.004    20552167.613    -3500988.431 8   -748771.824 8
  21804763.924    21804767.710     4281431.268 9   5104106.953 8
  22385752.628    22385757.901    -7197507.213 8  -3686659.026 8
  20604820.302    20604825.197    -3608791.682 8   -761698.393 8
 86  6 19 23 28 29.0800000  0  4G 6G 8G 9G11
  20551150.008    20551155.268    -3506310.392 8   -752918.816 9
  21808036.360    21808041.224     4298627.364 8   5117506.496 8
  22382431.145    22382436.605    -7214951.904 7  -3700252.289 8
  20604110.394    20604116.876    -3612519.899 7   -764603.494 8
 86  6 19 23 28 35.0800000  0  4G 6G 8G 9G11
  20550140.587    20550145.695    -3511617.506 8   -757054.229 9
  21811310.565    21811315.454     4315839.110 8   5130918.249 8
  22379114.923    22379118.195    -7232392.747 7  -3713842.550 8
  20603407.468    20603411.148    -3616224.764 8   -767490.398 8
 86  6 19 23 28 41.0800000  0  4G 6G 8G 9G11
  20549132.781    20549137.906    -3516909.836 9   -761178.124 8
  21814590.007    21814593.872     4333066.371 8   5144342.094 8
  22375794.949    22375800.307    -7249829.775 8  -3727429.836 8
  20602705.402    20602710.281    -3619906.284 8   -770359.126 7
 86  6 19 23 28 47.0800000  0  4G 6G 8G 9G11
  20548128.711    20548134.780    -3522187.213 7   -765290.368 9
  21817871.227    21817875.781     4350309.266 9   5157778.105 8
  22372477.920    22372482.372    -7267262.789 8  -3741014.000 8
  20602009.175    20602013.123    -3623564.382 8   -773209.586 7
 86  6 19 23 28 53.0800000  0  4G 6G 8G 9G11
  20547127.739    20547132.340    -3527449.684 8   -769390.997 8
  21821155.118    21821157.984     4367567.715 9   5171226.242 9
  22369161.750    22369166.802    -7284691.839 8  -3754595.075 7
  20601318.153    20601322.763    -3627199.132 8   -776041.851 7
 86  6 19 23 28 59.0800000  0  4G 6G 8G 9G11
  20546129.486    20546133.765    -3532697.298 8   -773480.045 8
  21824441.800    21824446.466     4384841.630 9   5184686.437 8
  22365846.605    22365850.210    -7302116.913 8  -3768173.071 7
  20600630.311    20600636.364    -3630810.472 7   -778855.889 8
 86  6 19 23 29  5.0800000  0  4G 6G 8G 9G11
  20545133.576    20545137.960    -3537929.974 7   -777557.453 8
  21827732.153    21827736.550     4402130.996 9   5198158.668 8
  22362530.027    22362535.078    -7319538.079 8  -3781747.981 7
  20599948.392    20599951.842    -3634398.448 8   -781651.713 8
 86  6 19 23 29 11.0800000  0  4G 6G 8G 9G11
  20544140.400    20544146.216    -3543147.718 8   -781623.234 9
  21831024.924    21831029.883     4419435.797 8   5211642.918 8
  22359215.754    22359221.218    -7336955.253 8  -3795319.813 8
  20599269.420    20599274.083    -3637963.060 8   -784429.323 8
 86  6 19 23 29 17.0800000  0  4G 6G 8G 9G11
  20543150.032    20543155.840    -3548350.598 8   -785677.437 9
  21834320.834    21834326.232     4436755.965 8   5225139.155 8
  22355901.323    22355907.418    -7354368.631 7  -3808888.669 8
  20598595.201    20598600.595    -3641504.385 8   -787188.809 7
 86  6 19 23 29 23.0800000  0  4G 6G 8G 9G11
  20542162.876    20542168.426    -3553538.593 8   -789720.021 9
  21837620.346    21837623.861     4454091.458 8   5238647.328 8
  22352590.147    22352595.262    -7371777.987 7  -3822454.404 7
  20597927.388    20597930.537    -3645022.451 8   -789930.149 8
 86  6 19 23 29 29.0800000  0  4G 6G 8G 9G11
  20541177.472    20541184.658    -3558711.635 9   -793750.963 9
  21840922.061    21840925.725     4471442.242 9   5252167.420 8
  22349278.271    22349282.026    -7389183.338 9  -3836016.996 8
  20597260.322    20597265.748    -3648517.201 8   -792653.342 7
 86  6 19 23 29 35.0800000  0  4G 6G 8G 9G11
  20540196.637    20540201.748    -3563869.698 8   -797770.231 8
  21844225.317    21844230.722     4488808.361 9   5265699.453 8
  22345964.762    22345969.791    -7406584.611 8  -3849576.428 7
  20596600.438    20596605.819    -3651988.620 7   -795358.334 7
 86  6 19 23 29 41.0800000  0  4G 6G 8G 9G11
  20539218.006    20539224.032    -3569012.691 8   -801777.768 9
  21847533.399    21847538.747     4506189.756 8   5279243.398 8
  22342656.669    22342661.432    -7423981.793 8  -3863132.668 8
  20595944.047    20595948.916    -3655436.696 8   -798045.140 7
 86  6 19 23 29 47.0800000  0  4G 6G 8G 9G11
  20538241.887    20538247.225    -3574140.730 9   -805773.650 9
  21850845.098    21850848.749     4523586.434 9   5292799.240 8
  22339345.421    22339350.746    -7441374.951 8  -3876685.798 7
  20595292.007    20595297.573    -3658861.463 7   -800713.784 8
 86  6 19 23 29 53.0800000  0  4G 6G 8G 9G11
  20537268.744    20537275.393    -3579253.742 8   -809757.809 9
  21854157.043    21854163.154     4540998.318 7   5306366.949 9
  22336037.378    22336041.143    -7458764.145 8  -3890235.810 8
  20594644.658    20594650.811    -3662262.910 9   -803364.263 8
 86  6 19 23 29 59.0800000  0  4G 6G 8G 9G11
  20536299.179    20536303.570    -3584351.753 8   -813730.285 8
  21857474.253    21857477.813     4558425.351 8   5319946.444 8
  22332728.186    22332733.885    -7476149.270 9  -3903782.647 7
  20594001.630    20594007.455    -3665641.083 8   -805996.613 8
 86  6 19 23 30  5.0800000  0  4G 6G 8G 9G11
  20535331.995    20535336.680    -3589434.732 8   -817691.048 9
  21860792.165    21860796.190     4575867.493 9   5333537.730 9
  22329421.223    22329426.246    -7493530.312 8  -3917326.315 7
  20593363.128    20593369.352    -3668995.979 8   -808610.805 7
 86  6 19 23 30 11.0800000  0  4G 6G 8G 9G11
  20534367.342    20534373.158    -3594502.657 8   -821640.076 8
  21864115.374    21864118.371     4593324.815 9   5347140.826 8
  22326113.998    22326118.905    -7510907.246 8  -3930866.782 8
  20592729.458    20592735.125    -3672327.590 6   -811206.853 8
 86  6 19 23 30 17.0800000  0  4G 6G 8G 9G11
  20533406.273    20533411.420    -3599555.438 8   -825577.313 9
  21867438.863    21867443.911     4610797.258 8   5360755.723 8
  22322809.111    22322814.209    -7528280.032 8  -3944404.019 7
  20592099.939    20592105.104    -3675635.835 7   -813784.721 7
 86  6 19 23 30 23.0800000  0  4G 6G 8G 9G11
  20532446.778    20532452.704    -3604593.089 8   -829502.753 8
  21870767.186    21870771.032     4628284.850 8   5374382.415 8
  22319503.366    22319507.600    -7545648.579 8  -3957937.948 8
  20591474.085    20591480.163    -3678920.696 8   -816344.337 7
 86  6 19 23 30 29.0800000  0  4G 6G 8G 9G11
  20531491.297    20531496.146    -3609615.598 9   -833416.396 9
  21874098.655    21874102.665     4645787.517 7   5388020.845 8
  22316199.693    22316203.502    -7563012.916 8  -3971468.605 8
  20590853.922    20590859.375    -3682182.268 7   -818885.805 7
 86  6 19 23 30 35.0800000  0  4G 6G 8G 9G11
  20530539.446    20530542.590    -3614622.919 8   -837318.211 7
  21877431.582    21877436.469     4663305.245 8   5401671.012 7
  22312896.182    22312900.798    -7580373.092 8  -3984996.001 8
  20590237.484    20590244.207    -3685420.468 7   -821409.094 7
 86  6 19 23 30 41.0800000  0  4G 6G 8G 9G11
  20529589.685    20529594.515    -3619615.036 9   -841208.171 8
  21880768.219    21880772.730     4680837.975 8   5415332.892 8
  22309592.533    22309597.892    -7597729.061 8  -3998520.137 8
  20589627.395    20589630.914    -3688635.406 7   -823914.228 8
 86  6 19 23 30 47.0800000  0  4G 6G 8G 9G11
  20528642.461    20528647.714    -3624592.019 8   -845086.343 7
  21884106.681    21884112.693     4698385.698 7   5429006.425 7
  22306291.559    22306295.630    -7615080.795 8  -4012040.965 8
  20589019.340    20589024.692    -3691827.074 6   -826401.242 7
 86  6 19 23 30 53.0800000  0  4G 6G 8G 9G11
  20527699.119    20527701.995    -3629553.827 7   -848952.693 8
  21887450.217    21887453.638     4715948.339 7   5442691.594 9
  22302990.070    22302994.069    -7632428.315 8  -4025558.498 8
  20588414.748    20588421.773    -3694995.466 8   -828870.110 8
 86  6 19 23 30 59.0800000  0  4G 6G 8G 9G11
  20526756.964    20526761.115    -3634500.490 8   -852807.224 8
  21890795.141    21890798.279     4733525.833 8   5456388.346 8
  22299689.228    22299694.255    -7649771.554 8  -4039072.722 7
  20587816.850    20587822.274    -3698140.581 7   -831320.848 8
 86  6 19 23 31  5.0800000  0  4G 6G 8G 9G11
  20525818.720    20525822.472    -3639431.886 8   -856649.874 8
  21894141.840    21894146.328     4751118.233 8   5470096.706 8
  22296389.427    22296395.141    -7667110.503 8  -4052583.598 7
  20587222.706    20587228.114    -3701262.404 7   -833753.434 8
 86  6 19 23 31 11.0800000  0  4G 6G 8G 9G11
  20524882.832    20524886.540    -3644348.103 8   -860480.694 8
  21897493.144    21897496.822     4768725.454 8   5483816.611 8
  22293091.737    22293095.071    -7684445.215 7  -4066091.164 7
  20586633.338    20586639.992    -3704360.993 7   -836167.916 7
 86  6 19 23 31 17.0800000  0  4G 6G 8G 9G11
  20523950.721    20523954.276    -3649249.050 8   -864299.610 8
  21900844.884    21900850.301     4786347.545 8   5497548.105 8
  22289794.289    22289798.011    -7701775.709 8  -4079595.444 8
  20586048.777    20586053.874    -3707436.286 7   -838564.245 8
 86  6 19 23 31 23.0800000  0  4G 6G 8G 9G11
  20523020.805    20523024.031    -3654134.726 8   -868106.629 8
  21904201.821    21904206.129     4803984.455 8   5511291.140 9
  22286496.715    22286501.345    -7719101.803 8  -4093096.292 8
  20585468.254    20585473.005    -3710488.276 8   -840942.420 7
 86  6 19 23 31 29.0800000  0  4G 6G 8G 9G11
  20522094.257    20522097.225    -3659005.063 8   -871901.693 8
  21907560.704    21907565.194     4821636.199 9   5525045.745 8
  22283200.208    22283205.858    -7736423.472 8  -4106593.685 8
  20584891.934    20584897.432    -3713516.976 8   -843302.438 7
 86  6 19 23 31 35.0800000  0  4G 6G 8G 9G11
  20521169.778    20521174.066    -3663860.103 8   -875684.851 8
  21910923.826    21910927.342     4839302.696 8   5538811.835 8
  22279905.201    22279910.121    -7753740.792 8  -4120087.698 7
  20584320.570    20584323.975    -3716522.400 7   -845644.338 8
 86  6 19 23 31 41.0800000  0  4G 6G 8G 9G11
  20520248.282    20520252.539    -3668699.877 8   -879456.081 8
  21914288.085    21914292.458     4856983.838 8   5552589.353 8
  22276610.143    22276615.160    -7771053.821 9  -4133578.364 7
  20583753.696    20583756.660    -3719504.568 8   -847968.098 7
 86  6 19 23 31 47.0800000  0  4G 6G 8G 9G11
  20519331.012    20519335.214    -3673524.398 8   -883215.455 8
  21917655.324    21917658.344     4874679.643 8   5566378.289 8
  22273316.405    22273322.629    -7788362.587 8  -4147065.713 7
  20583188.341    20583193.788    -3722463.510 8   -850273.764 7
 86  6 19 23 31 53.0800000  0  4G 6G 8G 9G11
  20518416.092    20518419.346    -3678333.581 9   -886962.871 8
  21921025.563    21921029.392     4892390.052 9   5580178.599 9
  22270023.357    22270028.665    -7805666.926 9  -4160549.613 8
  20582630.596    20582635.446    -3725399.275 7   -852561.362 8
 86  6 19 23 31 59.0800000  0  4G 6G 8G 9G11
  20517504.237    20517507.677    -3683127.473 9   -890698.363 8
  21924397.377    21924402.948     4910115.010 8   5593990.248 9
  22266731.592    22266735.905    -7822966.993 9  -4174030.185 8
  20582074.741    20582080.408    -3728311.897 9   -854830.955 7
 86  6 19 23 32  5.0800000  0  4G 6G 8G 9G11
  20516594.509    20516597.757    -3687906.030 9   -894421.916 8
  21927774.806    21927779.254     4927854.580 8   5607813.277 8
  22263440.106    22263445.587    -7840262.552 8  -4187507.248 8
  20581526.386    20581530.977    -3731201.303 8   -857082.425 8
 86  6 19 23 32 11.0800000  0  4G 6G 8G 9G11
  20515687.873    20515692.019    -3692669.175 8   -898133.469 8
  21931151.783    21931156.535     4945608.685 9   5621647.647 8
  22260149.993    22260153.902    -7857553.657 8  -4200980.822 8
  20580982.604    20580985.671    -3734067.521 8   -859315.832 8
 86  6 19 23 32 17.0800000  0  4G 6G 8G 9G11
  20514785.764    20514789.591    -3697416.987 8   -901833.055 8
  21934533.359    21934538.141     4963377.279 9   5635493.297 8
  22256860.241    22256865.491    -7874840.358 8  -4214450.988 8
  20580440.745    20580445.582    -3736910.505 6   -861531.146 8
 86  6 19 23 32 23.0800000  0  4G 6G 8G 9G11
  20513883.503    20513887.522    -3702149.386 8   -905520.634 9
  21937917.178    21937922.884     4981160.425 8   5649350.295 8
  22253572.293    22253576.280    -7892122.554 9  -4227917.616 7
  20579903.518    20579909.000    -3739730.281 7   -863728.395 8
 86  6 19 23 32 29.0800000  0  4G 6G 8G 9G11
  20512986.303    20512989.305    -3706866.233 9   -909196.096 8
  21941303.914    21941309.756     4998958.090 8   5663218.594 8
  22250284.271    22250287.594    -7909400.176 8  -4241380.704 8
  20579371.905    20579375.812    -3742526.812 8   -865907.498 7
 86  6 19 23 32 35.0800000  0  4G 6G 8G 9G11
  20512092.180    20512095.487    -3711567.510 8   -912859.428 8
  21944693.860    21944697.688     5016770.373 8   5677098.294 8
  22246997.320    22247002.308    -7926673.173 9  -4254840.172 8
  20578843.151    20578848.801    -3745299.977 7   -868068.402 7
 86  6 19 23 32 41.0800000  0  4G 6G 8G 9G11
  20511199.875    20511204.196    -3716253.228 8   -916510.633 9
  21948086.356    21948089.513     5034597.213 8   5690989.323 8
  22243710.669    22243717.239    -7943941.557 8  -4268296.041 9
  20578320.209    20578325.144    -3748049.823 7   -870211.155 7
 86  6 19 23 32 47.0800000  0  4G 6G 8G 9G11
  20510311.270    20510315.744    -3720923.271 8   -920149.628 7
  21951481.794    21951485.813     5052438.586 8   5704891.699 8
  22240425.772    22240430.468    -7961205.299 8  -4281748.292 9
  20577802.156    20577807.223    -3750776.257 7   -872335.636 7
 86  6 19 23 32 53.0800000  0  4G 6G 8G 9G11
  20509425.337    20509429.900    -3725577.734 9   -923776.479 9
  21954878.948    21954883.205     5070294.429 8   5718805.329 8
  22237142.743    22237146.306    -7978464.344 8  -4295196.907 8
  20577285.168    20577292.348    -3753479.437 7   -874441.986 8
 86  6 19 23 32 59.0800000  0  4G 6G 8G 9G11
  20508543.188    20508547.111    -3730216.577 9   -927391.165 8
  21958279.236    21958284.480     5088164.734 8   5732730.243 9
  22233858.856    22233862.806    -7995718.666 9  -4308641.821 8
  20576777.586    20576782.813    -3756159.257 7   -876530.154 8
 86  6 19 23 33  5.0800000  0  4G 6G 8G 9G11
  20507663.199    20507666.347    -3734839.808 8   -930993.675 8
  21961683.716    21961687.596     5106049.451 7   5746666.373 9
  22230577.436    22230580.370    -8012968.235 9  -4322083.049 9
  20576269.813    20576276.080    -3758815.814 7   -878600.191 7
 86  6 19 23 33 11.0800000  0  4G 6G 8G 9G11
  20506785.689    20506789.077    -3739447.466 9   -934584.063 8
  21965089.124    21965094.583     5123948.497 8   5760613.675 9
  22227293.633    22227298.463    -8030213.116 9  -4335520.604 8
  20575769.137    20575775.202    -3761449.131 6   -880652.131 7
 86  6 19 23 33 17.0800000  0  4G 6G 8G 9G11
  20505912.338    20505915.871    -3744039.577 7   -938162.331 8
  21968498.723    21968504.006     5141861.766 8   5774572.072 8
  22224013.874    22224018.715    -8047453.491 8  -4348954.653 8
  20575272.490    20575279.617    -3764059.293 7   -882686.022 7
 86  6 19 23 33 23.0800000  0  4G 6G 8G 9G11
  20505041.571    20505045.251    -3748616.120 8   -941728.472 8
  21971909.541    21971914.287     5159789.286 8   5788541.555 9
  22220734.578    22220738.520    -8064689.183 9  -4362385.061 8
  20574780.798    20574786.463    -3766646.280 7   -884701.858 7
 86  6 19 23 33 29.0800000  0  4G 6G 8G 9G11
  20504172.618    20504177.858    -3753177.072 8   -945282.467 8
  21975323.398    21975328.824     5177730.962 7   5802522.077 8
  22217454.155    22217458.846    -8081920.245 9  -4375811.859 8
  20574291.395    20574298.204    -3769210.103 7   -886699.637 8
 86  6 19 23 33 35.0800000  0  4G 6G 8G 9G11
  20503307.528    20503312.689    -3757722.405 8   -948824.292 8
  21978739.431    21978745.277     5195686.837 8   5816513.647 8
  22214176.991    22214181.835    -8099146.637 8  -4389235.010 8
  20573808.517    20573815.669    -3771750.742 6   -888679.358 7
 86  6 19 23 33 41.0800000  0  4G 6G 8G 9G11
  20502446.579    20502451.478    -3762252.100 8   -952353.918 8
  21982159.553    21982165.434     5213656.891 8   5830516.293 9
  22210899.934    22210904.071    -8116368.241 9  -4402654.424 9
  20573331.019    20573334.953    -3774268.148 8   -890640.965 7
 86  6 19 23 33 47.0800000  0  4G 6G 8G 9G11
  20501587.128    20501590.842    -3766766.160 8   -955871.367 8
  21985583.711    21985588.596     5231641.093 7   5844529.949 9
  22207623.502    22207628.182    -8133585.056 8  -4416070.124 8
  20572853.862    20572862.493    -3776762.371 7   -892584.501 8
 86  6 19 23 33 53.0800000  0  4G 6G 8G 9G11
  20500731.079    20500736.090    -3771264.470 7   -959376.559 8
  21989007.245    21989012.515     5249639.449 8   5858554.626 8
  22204347.083    22204352.735    -8150797.231 9  -4429482.201 9
  20572384.519    20572391.531    -3779233.369 7   -894509.955 7
 86  6 19 23 33 59.0800000  0  4G 6G 8G 9G11
  20499876.944    20499883.953    -3775747.059 8   -962869.485 8
  21992433.579    21992440.831     5267651.900 8   5872590.310 8
  22201072.862    22201077.741    -8168004.512 9  -4442890.476 8
  20571917.528    20571925.727    -3781681.194 7   -896417.349 7
 86  6 19 23 34  5.0800000  0  4G 6G 8G 9G11
  20499027.983    20499032.904    -3780213.804 7   -966350.059 8
  21995863.729    21995870.440     5285678.567 8   5886637.046 9
  22197800.972    22197804.649    -8185206.855 8  -4456294.884 8
  20571457.654    20571463.539    -3784105.743 7   -898306.596 8
 86  6 19 23 34 11.0800000  0  4G 6G 8G 9G11
  20498180.415    20498186.504    -3784664.779 8   -969818.359 8
  21999298.699    21999303.252     5303719.299 8   5900694.731 9
  22194526.794    22194531.796    -8202404.369 9  -4469695.530 8
  20571001.164    20571008.122    -3786507.066 7   -900177.769 8
 86  6 19 23 34 17.0800000  0  4G 6G 8G 9G11
  20497336.084    20497342.158    -3789099.980 7   -973274.359 8
  22002735.595    22002739.544     5321774.057 8   5914763.384 9
  22191255.382    22191259.833    -8219597.027 9  -4483092.400 8
  20570550.198    20570554.386    -3788885.179 7   -902030.833 7
 86  6 19 23 34 23.0800000  0  4G 6G 8G 9G11
  20496495.466    20496501.782    -3793519.445 8   -976718.115 8
  22006172.193    22006178.046     5339842.776 8   5928842.906 9
  22187985.294    22187990.674    -8236784.798 9  -4496485.468 8
  20570099.832    20570105.279    -3791240.182 6   -903865.880 7
 86  6 19 23 34 29.0800000  0  4G 6G 8G 9G11
  20495657.335    20495663.003    -3797923.120 8   -980149.529 8
  22009612.549    22009619.208     5357925.495 9   5942933.324 8
  22184714.815    22184720.623    -8253967.645 9  -4509874.676 8
  20569657.102    20569664.126    -3793571.978 7   -905682.871 8
 86  6 19 23 34 35.0800000  0  4G 6G 8G 9G11
  20494822.932    20494828.069    -3802310.974 7   -983568.636 8
  22013057.847    22013062.744     5376022.116 8   5957034.585 8
  22181446.144    22181450.531    -8271145.717 8  -4523260.188 9
  20569217.094    20569223.102    -3795880.626 7   -907481.819 7
 86  6 19 23 34 41.0800000  0  4G 6G 8G 9G11
  20493990.420    20493995.806    -3806682.946 8   -986975.379 8
  22016504.100    22016508.663     5394132.725 7   5971146.737 9
  22178178.897    22178183.097    -8288318.789 8  -4536641.787 9
  20568781.036    20568787.360    -3798166.074 6   -909262.676 8
 86  6 19 23 34 47.0800000  0  4G 6G 8G 9G11
  20493162.652    20493166.712    -3811039.047 8   -990369.743 8
  22019951.271    22019957.920     5412257.259 8   5985269.742 8
  22174910.922    22174915.528    -8305486.856 8  -4550019.501 8
  20568352.903    20568357.166    -3800428.332 8   -911025.472 7
 86  6 19 23 34 53.0800000  0  4G 6G 8G 9G11
  20492336.258    20492340.686    -3815379.260 8   -993751.725 7
  22023403.122    22023409.386     5430395.638 7   5999403.542 9
  22171644.404    22171650.437    -8322649.925 9  -4563393.310 8
  20567926.090    20567931.713    -3802667.419 8   -912770.203 8
 86  6 19 23 34 59.0800000  0  4G 6G 8G 9G11
  20491513.900    20491517.958    -3819703.659 8   -997121.385 8
  22026859.328    22026863.848     5448547.858 8   6013548.113 8
  22168380.435    22168384.349    -8339808.076 8  -4576763.295 8
  20567504.653    20567509.520    -3804883.306 7   -914496.880 7
 86  6 19 23 35  5.0800000  0  4G 6G 8G 9G11
  20490693.347    20490699.213    -3824012.162 8  -1000478.665 8
  22030315.677    22030320.421     5466713.883 8   6027703.456 8
  22165116.165    22165121.087    -8356961.248 8  -4590129.384 9
  20567088.656    20567091.949    -3807076.075 9   -916205.531 8
 86  6 19 23 35 11.0800000  0  4G 6G 8G 9G11
  20489877.134    20489881.306    -3828304.763 9  -1003823.552 8
  22033774.619    22033780.644     5484893.628 7   6041869.488 8
  22161853.275    22161857.389    -8374109.437 8  -4603491.608 8
  20566673.834    20566679.613    -3809245.750 7   -917896.178 8
 86  6 19 23 35 17.0800000  0  4G 6G 8G 9G11
  20489062.166    20489068.156    -3832581.482 8  -1007156.053 7
  22037236.851    22037242.113     5503087.131 8   6056046.248 9
  22158590.236    22158595.494    -8391252.629 9  -4616849.927 8
  20566266.335    20566271.603    -3811392.280 7   -919568.804 8
 86  6 19 23 35 23.0800000  0  4G 6G 8G 9G11
  20488252.542    20488256.094    -3836842.170 8  -1010476.083 8
  22040701.565    22040706.322     5521294.385 8   6070233.713 9
  22155329.915    22155334.671    -8408390.701 7  -4630204.269 8
  20565863.530    20565867.350    -3813515.609 8   -921223.345 8
 86  6 19 23 35 29.0800000  0  4G 6G 8G 9G11
  20487444.416    20487449.421    -3841086.844 8  -1013783.601 8
  22044168.248    22044174.027     5539515.409 8   6084431.895 9
  22152067.907    22152073.535    -8425523.670 8  -4643554.628 8
  20565463.529    20565467.853    -3815615.706 8   -922859.778 7
 86  6 19 23 35 35.0800000  0  4G 6G 8G 9G11
  20486640.046    20486644.738    -3845315.442 8  -1017078.620 8
  22047638.309    22047644.198     5557750.235 8   6098640.860 8
  22148810.210    22148814.872    -8442651.435 8  -4656900.931 8
  20565069.314    20565072.922    -3817692.509 7   -924478.069 8
 86  6 19 23 35 41.0800000  0  4G 6G 8G 9G11
  20485838.050    20485842.820    -3849527.980 9  -1020361.103 8
  22051110.564    22051117.398     5575998.751 9   6112860.473 9
  22145549.904    22145555.563    -8459773.918 9  -4670243.121 8
  20564677.154    20564681.347    -3819746.125 8   -926078.289 7
 86  6 19 23 35 47.0800000  0  4G 6G 8G 9G11
  20485039.365    20485044.714    -3853724.517 8  -1023631.136 8
  22054587.254    22054591.837     5594260.912 8   6127090.726 9
  22142294.406    22142298.405    -8476891.249 8  -4683581.285 8
  20564291.064    20564295.216    -3821776.522 8   -927660.413 7
 86  6 19 23 35 53.0800000  0  4G 6G 8G 9G11
  20484243.644    20484249.234    -3857904.975 8  -1026888.653 8
  22058064.068    22058069.449     5612536.659 7   6141331.572 8
  22139036.224    22139042.849    -8494003.547 9  -4696915.548 7
  20563909.094    20563913.948    -3823783.862 7   -929224.575 7
 86  6 19 23 35 59.0800000  0  4G 6G 8G 9G11
  20483451.974    20483456.821    -3862069.535 8  -1030133.757 8
  22061544.231    22061549.898     5630825.904 8   6155582.914 8
  22135781.861    22135787.080    -8511110.717 9  -4710245.805 9
  20563531.272    20563536.354    -3825768.176 7   -930770.786 9
 86  6 19 23 36  5.0800000  0  4G 6G 8G 9G11
  20482663.079    20482667.331    -3866218.047 9  -1033366.359 8
  22065027.146    22065032.273     5649128.615 7   6169844.759 8
  22132527.923    22132532.752    -8528212.803 8  -4723572.104 8
  20563156.686    20563162.839    -3827729.430 8   -932299.050 8
 86  6 19 23 36 11.0800000  0  4G 6G 8G 9G11
  20481876.506    20481879.731    -3870350.550 8  -1036586.491 7
  22068512.399    22068517.473     5667444.780 9   6184117.087 7
  22129273.046    22129278.907    -8545309.705 8  -4736894.361 9
  20562788.340    20562794.049    -3829667.672 7   -933809.342 6
 86  6 19 23 36 17.0800000  0  4G 6G 8G 9G11
  20481093.138    20481096.010    -3874466.921 9  -1039794.046 8
  22072000.763    22072006.483     5685774.444 8   6198399.937 8
  22126020.838    22126026.734    -8562401.412 7  -4750212.557 8
  20562425.744    20562429.350    -3831582.850 7   -935301.692 7
 86  6 19 23 36 23.0800000  0  4G 6G 8G 9G11
  20480312.569    20480315.489    -3878567.227 9  -1042989.095 8
  22075491.433    22075498.656     5704117.556 8   6212693.269 8
  22122770.163    22122775.686    -8579487.854 7  -4763526.652 7
  20562064.007    20562070.218    -3833474.914 8   -936776.019 8
 86  6 19 23 36 29.0800000  0  4G 6G 8G 9G11
  20479535.532    20479539.658    -3882651.352 8  -1046171.530 7
  22078985.093    22078990.334     5722474.108 8   6226997.077 9
  22119520.780    22119524.587    -8596569.116 8  -4776836.714 9
  20561707.995    20561714.348    -3835343.812 7   -938232.307 8
 86  6 19 23 36 35.0800000  0  4G 6G 8G 9G11
  20478761.023    20478765.971    -3886719.272 9  -1049341.339 8
  22082480.049    22082485.736     5740844.142 7   6241311.384 8
  22116270.132    22116274.434    -8613644.927 8  -4790142.538 8
  20561356.561    20561363.000    -3837189.581 6   -939670.563 7
 86  6 19 23 36 41.0800000  0  4G 6G 8G 9G11
  20477990.651    20477993.847    -3890770.916 8  -1052498.462 8
  22085977.911    22085984.394     5759227.622 8   6255636.162 9
  22113021.602    22113027.640    -8630715.400 8  -4803444.199 8
  20561010.078    20561014.501    -3839012.188 7   -941090.772 8
 86  6 19 23 36 47.0800000  0  4G 6G 8G 9G11
  20477222.541    20477226.024    -3894806.335 9  -1055642.945 8
  22089478.135    22089484.802     5777624.496 7   6269971.389 7
  22109774.045    22109779.639    -8647780.483 8  -4816741.677 8
  20560667.800    20560673.525    -3840811.656 9   -942492.949 8
 86  6 19 23 36 53.0800000  0  4G 6G 8G 9G11
  20476458.538    20476462.556    -3898825.531 8  -1058774.780 7
  22092982.831    22092987.645     5796034.793 7   6284317.071 8
  22106527.175    22106533.058    -8664840.161 8  -4830034.912 8
  20560328.902    20560333.740    -3842588.043 7   -943877.146 7
 86  6 19 23 36 59.0800000  0  4G 6G 8G 9G11
  20475695.088    20475699.440    -3902828.412 9  -1061893.908 8
  22096487.730    22096494.345     5814458.484 7   6298673.189 8
  22103281.263    22103288.233    -8681894.346 9  -4843323.876 8
  20559994.496    20560001.307    -3844341.218 8   -945243.241 7
 86  6 19 23 37  5.0800000  0  4G 6G 8G 9G11
  20474937.169    20474941.128    -3906814.981 8  -1065000.326 8
  22099996.630    22100002.269     5832895.524 7   6313039.691 8
  22100037.691    22100044.050    -8698943.128 8  -4856608.650 8
  20559666.101    20559672.536    -3846071.221 7   -946591.291 7
 86  6 19 23 37 11.0800000  0  4G 6G 8G 9G11
  20474180.956    20474185.327    -3910785.294 8  -1068094.083 8
  22103506.897    22103513.662     5851345.817 7   6327416.539 8
  22096794.936    22096800.631    -8715986.427 8  -4869889.130 8
  20559342.853    20559347.504    -3847778.085 7   -947921.312 6
 86  6 19 23 37 17.0800000  0  4G 6G 8G 9G11
  20473429.142    20473432.902    -3914739.282 8  -1071175.100 9
  22107021.119    22107026.872     5869809.295 7   6341803.668 9
  22093553.311    22093557.732    -8733024.319 8  -4883165.393 8
  20559019.352    20559026.980    -3849461.881 7   -949233.365 7
 86  6 19 23 37 23.0800000  0  4G 6G 8G 9G11
  20472679.168    20472683.216    -3918677.026 8  -1074243.479 8
  22110538.126    22110543.625     5888285.980 8   6356201.080 8
  22090312.842    22090317.144    -8750056.811 8  -4896437.465 8
  20558704.893    20558711.231    -3851122.610 7   -950527.434 7
 86  6 19 23 37 29.0800000  0  4G 6G 8G 9G11
  20471932.509    20471937.792    -3922598.476 8  -1077299.154 8
  22114056.401    22114062.169     5906775.800 9   6370608.728 8
  22087071.967    22087076.826    -8767083.886 9  -4909705.306 8
  20558395.985    20558400.678    -3852760.325 8   -951803.566 7
 86  6 19 23 37 35.0800000  0  4G 6G 8G 9G11
  20471189.788    20471194.545    -3926503.588 7  -1080342.105 8
  22117578.192    22117582.464     5925278.820 8   6385026.659 8
  22083831.882    22083837.504    -8784105.527 8  -4922968.918 8
  20558087.164    20558091.815    -3854374.958 6   -953061.714 8
 86  6 19 23 37 41.0800000  0  4G 6G 8G 9G11
  20470449.262    20470453.442    -3930392.327 8  -1083372.281 7
  22121100.363    22121105.632     5943794.966 8   6399454.819 7
  22080594.348    22080599.846    -8801121.556 8  -4936228.153 7
  20557785.756    20557789.331    -3855966.499 7   -954301.883 8
 86  6 19 23 37 47.0800000  0  4G 6G 8G 9G11
  20469712.873    20469718.475    -3934264.678 7  -1086389.707 7
  22124625.739    22124631.599     5962324.253 8   6413893.221 8
  22077357.107    22077361.770    -8818132.036 8  -4949483.073 8
  20557484.862    20557490.899    -3857534.926 7   -955524.025 8
 86  6 19 23 37 53.0800000  0  4G 6G 8G 9G11
  20468978.344    20468982.833    -3938120.635 9  -1089394.346 7
  22128155.420    22128160.628     5980866.660 8   6428341.851 8
  22074120.660    22074126.527    -8835136.914 7  -4962733.609 8
  20557190.492    20557197.247    -3859080.236 7   -956728.173 8
 86  6 19 23 37 59.0800000  0  4G 6G 8G 9G11
  20468247.835    20468253.156    -3941960.170 8  -1092386.195 8
  22131686.210    22131691.130     5999422.156 9   6442800.675 8
  22070887.843    22070891.698    -8852136.226 8  -4975979.822 8
  20556900.647    20556907.126    -3860602.523 7   -957914.355 8
 86  6 19 23 38  5.0800000  0  4G 6G 8G 9G11
  20467519.541    20467525.384    -3945783.268 8  -1095365.239 7
  22135220.278    22135224.528     6017990.627 8   6457269.598 8
  22067652.628    22067659.601    -8869129.925 8  -4989221.657 8
  20556616.437    20556622.890    -3862101.759 7   -959082.591 7
 86  6 19 23 38 11.0800000  0  4G 6G 8G 9G11
  20466796.342    20466801.277    -3949589.939 8  -1098331.461 7
  22138755.885    22138759.705     6036572.094 7   6471748.670 9
  22064421.130    22064425.437    -8886118.043 8  -5002459.139 8
  20556335.206    20556341.155    -3863577.971 7   -960232.891 7
 86  6 19 23 38 17.0800000  0  4G 6G 8G 9G11
  20466074.987    20466080.380    -3953380.242 8  -1101284.941 8
  22142294.754    22142299.257     6055166.500 8   6486237.806 8
  22061187.920    22061192.585    -8903100.525 8  -5015692.234 8
  20556059.463    20556064.716    -3865031.202 8   -961365.270 7
 86  6 19 23 38 23.0800000  0  4G 6G 8G 9G11
  20465356.033    20465361.267    -3957154.064 7  -1104225.583 9
  22145834.976    22145840.574     6073773.882 8   6500737.065 9
  22057957.398    22057962.254    -8920077.384 8  -5028920.941 7
  20555787.015    20555791.910    -3866461.413 7   -962479.736 8
 86  6 19 23 38 29.0800000  0  4G 6G 8G 9G11
  20464641.709    20464647.955    -3960911.370 8  -1107153.360 8
  22149377.180    22149383.239     6092394.127 8   6515246.344 8
  22054727.356    22054732.779    -8937048.648 8  -5042145.295 8
  20555519.662    20555525.157    -3867868.618 7   -963576.227 7
 86  6 19 23 38 35.0800000  0  4G 6G 8G 9G11
  20463929.572    20463934.580    -3964652.202 9  -1110068.293 7
  22152924.498    22152929.556     6111027.242 8   6529765.643 8
  22051499.009    22051503.158    -8954014.202 7  -5055365.194 8
  20555256.544    20555262.196    -3869252.728 8   -964654.763 8
 86  6 19 23 38 41.0800000  0  4G 6G 8G 9G11
  20463221.092    20463227.083    -3968376.562 9  -1112970.398 8
  22156471.853    22156476.436     6129673.213 9   6544294.963 8
  22048271.089    22048278.030    -8970974.128 8  -5068580.720 8
  20554996.692    20555002.087    -3870613.888 7   -965715.406 8
 86  6 19 23 38 47.0800000  0  4G 6G 8G 9G11
  20462517.089    20462520.608    -3972084.387 8  -1115859.606 9
  22160022.879    22160027.470     6148332.038 8   6558834.309 7
  22045046.414    22045049.834    -8987928.272 9  -5081791.732 8
  20554743.330    20554747.652    -3871952.013 7   -966758.097 8
 86  6 19 23 38 53.0800000  0  4G 6G 8G 9G11
  20461812.676    20461818.143    -3975775.685 7  -1118735.944 7
  22163574.894    22163581.878     6167003.650 8   6573383.615 8
  22041820.233    22041825.872    -9004876.726 8  -5094998.311 9
  20554491.976    20554497.686    -3873267.179 6   -967782.906 8
 86  6 19 23 38 59.0800000  0  4G 6G 8G 9G11
  20461114.569    20461119.383    -3979450.385 9  -1121599.345 8
  22167131.486    22167135.865     6185688.072 8   6587942.898 7
  22038596.389    22038602.525    -9021819.392 8  -5108200.378 8
  20554244.942    20554252.211    -3874559.363 7   -968789.815 7
 86  6 19 23 39  5.0800000  0  4G 6G 8G 9G11
  20460418.274    20460422.098    -3983108.463 8  -1124449.796 7
  22170690.848    22170695.149     6204385.266 8   6602512.132 8
  22035374.372    22035378.979    -9038756.151 8  -5121397.843 8
  20554004.003    20554010.399    -3875828.506 8   -969778.748 7
 86  6 19 23 39 11.0800000  0  4G 6G 8G 9G11
  20459724.708    20459729.236    -3986749.863 8  -1127287.246 8
  22174249.792    22174255.302     6223095.248 9   6617091.342 8
  22032153.072    22032156.744    -9055687.051 8  -5134590.743 7
  20553766.928    20553771.751    -3877074.632 7   -970749.755 7
 86  6 19 23 39 17.0800000  0  4G 6G 8G 9G11
  20459035.269    20459040.235    -3990374.629 8  -1130111.755 8
  22177813.315    22177817.854     6241817.973 7   6631680.466 8
  22028932.678    22028935.456    -9072612.158 7  -5147779.142 8
  20553534.089    20553539.441    -3878297.665 7   -971702.761 8
 86  6 19 23 39 23.0800000  0  4G 6G 8G 9G11
  20458349.979    20458353.526    -3993982.733 9  -1132923.248 8
  22181378.131    22181382.896     6260553.412 8   6646279.506 8
  22025711.194    22025716.525    -9089531.382 9  -5160962.930 7
  20553306.599    20553311.293    -3879497.693 7   -972637.856 9
 86  6 19 23 39 29.0800000  0  4G 6G 8G 9G11
  20457666.220    20457669.930    -3997574.192 8  -1135721.789 7
  22184946.814    22184950.484     6279301.549 8   6660888.430 8
  22022493.144    22022497.487    -9106444.657 8  -5174142.104 8
  20553082.918    20553088.713    -3880674.741 8   -973555.046 8
 86  6 19 23 39 35.0800000  0  4G 6G 8G 9G11
  20456986.479    20456989.172    -4001148.910 8  -1138507.279 7
  22188515.499    22188521.645     6298062.301 9   6675507.200 8
  22019275.437    22019280.801    -9123352.063 8  -5187316.708 8
  20552862.386    20552867.810    -3881828.832 7   -974454.321 8
 86  6 19 23 39 41.0800000  0  4G 6G 8G 9G11
  20456308.923    20456313.027    -4004707.047 8  -1141279.863 8
  22192089.603    22192092.692     6316835.610 7   6690135.753 7
  22016059.095    22016063.295    -9140253.649 7  -5200486.754 8
  20552647.719    20552653.255    -3882959.931 7   -975335.693 7
 86  6 19 23 39 47.0800000  0  4G 6G 8G 9G11
  20455635.529    20455637.984    -4008248.465 8  -1144039.393 8
  22195664.470    22195666.870     6335621.441 8   6704774.053 8
  22012844.146    22012848.934    -9157149.325 8  -5213652.207 8
  20552435.314    20552442.279    -3884068.119 7   -976199.214 6
 86  6 19 23 39 53.0800000  0  4G 6G 8G 9G11
  20454964.224    20454968.405    -4011773.267 8  -1146785.993 8
  22199240.820    22199245.877     6354419.773 9   6719422.106 8
  22009630.582    22009634.194    -9174039.175 8  -5226813.128 9
  20552229.372    20552235.386    -3885153.461 7   -977044.942 8
 86  6 19 23 39 59.0800000  0  4G 6G 8G 9G11
  20454296.898    20454298.570    -4015281.364 8  -1149519.575 8
  22202820.235    22202825.114     6373230.589 9   6734079.877 8
  22006417.883    22006421.895    -9190923.062 9  -5239969.394 8
  20552027.354    20552033.669    -3886215.852 8   -977872.775 8
 86  6 19 23 40  5.0800000  0  4G 6G 8G 9G11
  20453632.566    20453634.662    -4018772.675 7  -1152240.065 7
  22206401.932    22206407.350     6392053.882 8   6748747.376 7
  22003207.430    22003210.491    -9207800.976 8  -5253121.015 8
  20551828.972    20551835.029    -3887255.307 7   -978682.730 7
 86  6 19 23 40 11.0800000  0  4G 6G 8G 9G11
  20452971.339    20452974.445    -4022247.262 8  -1154947.535 7
  22209985.105    22209989.755     6410889.642 8   6763424.576 7
  21999995.917    21999998.538    -9224672.970 8  -5266268.009 7
  20551636.543    20551641.450    -3888271.796 7   -979474.805 7
 86  6 19 23 40 17.0800000  0  4G 6G 8G 9G11
  20452314.305    20452315.927    -4025705.035 8  -1157641.891 8
  22213572.444    22213576.918     6429737.862 8   6778111.493 7
  21996785.671    21996788.110    -9241538.834 8  -5279410.245 8
  20551446.347    20551453.886    -3889265.356 6   -980249.018 8
 86  6 19 23 40 23.0800000  0  4G 6G 8G 9G11
  20451657.863    20451661.711    -4029146.045 8  -1160323.208 7
  22217163.194    22217166.681     6448598.474 8   6792808.082 7
  21993578.602    21993580.978    -9258398.678 8  -5292547.782 8
  20551261.783    20551268.725    -3890236.058 7   -981005.372 9
 86  6 19 23 40 29.0800000  0  4G 6G 8G 9G11
  20451007.400    20451009.956    -4032570.183 8  -1162991.365 8
  22220754.007    22220758.520     6467471.484 8   6807514.314 8
  21990370.273    21990374.523    -9275252.400 9  -5305680.536 7
  20551082.345    20551088.872    -3891183.746 7   -981743.830 7
 86  6 19 23 40 35.0800000  0  4G 6G 8G 9G11
  20450358.640    20450361.698    -4035977.454 8  -1165646.385 8
  22224348.289    22224351.332     6486356.933 8   6822230.232 8
  21987164.192    21987168.941    -9292100.019 8  -5318808.552 8
  20550905.772    20550911.179    -3892108.551 7   -982464.450 7
 86  6 19 23 40 41.0800000  0  4G 6G 8G 9G11
  20449713.146    20449716.297    -4039367.824 8  -1168288.230 7
  22227943.877    22227948.025     6505254.716 8   6836955.781 7
  21983960.421    21983963.804    -9308941.531 9  -5331931.788 8
  20550733.175    20550740.470    -3893010.331 7   -983167.147 7
 86  6 19 23 40 47.0800000  0  4G 6G 8G 9G11
  20449069.811    20449074.316    -4042741.293 8  -1170916.897 8
  22231542.173    22231546.449     6524164.923 8   6851690.989 9
  21980756.306    21980759.504    -9325776.799 8  -5345050.193 8
  20550568.332    20550572.321    -3893889.148 7   -983851.935 9
 86  6 19 23 40 53.0800000  0  4G 6G 8G 9G11
  20448432.648    20448435.448    -4046097.857 8  -1173532.392 8
  22235143.487    22235146.376     6543087.461 8   6866435.826 7
  21977553.264    21977558.830    -9342605.892 8  -5358163.750 8
  20550401.716    20550410.001    -3894744.954 6   -984518.795 8
 86  6 19 23 40 59.0800000  0  4G 6G 8G 9G11
  20447796.325    20447801.428    -4049437.362 8  -1176134.612 8
  22238745.228    22238750.373     6562022.377 8   6881190.293 8
  21974351.941    21974355.702    -9359428.771 9  -5371272.486 8
  20550244.684    20550251.568    -3895577.803 7   -985167.761 8
 86  6 19 23 41  5.0800000  0  4G 6G 8G 9G11
  20447164.434    20447169.294    -4052759.835 9  -1178723.552 8
  22242350.888    22242355.701     6580969.573 7   6895954.352 9
  21971152.046    21971155.532    -9376245.322 8  -5384376.277 8
  20550090.860    20550098.274    -3896387.629 7   -985798.793 8
 86  6 19 23 41 11.0800000  0  4G 6G 8G 9G11
  20446534.718    20446539.313    -4056065.337 9  -1181299.266 7
  22245958.778    22245964.385     6599929.076 8   6910727.983 7
  21967953.455    21967955.531    -9393055.579 9  -5397475.178 8
  20549941.643    20549948.154    -3897174.544 7   -986411.964 8
 86  6 19 23 41 17.0800000  0  4G 6G 8G 9G11
  20445909.092    20445914.089    -4059353.931 8  -1183861.806 8
  22249569.757    22249573.200     6618900.671 7   6925511.037 8
  21964755.374    21964758.170    -9409859.665 9  -5410569.261 7
  20549796.893    20549802.216    -3897938.617 6   -987007.343 7
 86  6 19 23 41 23.0800000  0  4G 6G 8G 9G11
  20445287.231    20445292.405    -4062625.674 8  -1186411.216 8
  22253182.902    22253186.823     6637884.344 8   6940303.498 8
  21961558.807    21961561.411    -9426657.556 9  -5423658.520 8
  20549656.776    20549660.969    -3898679.919 7   -987584.988 7
 86  6 19 23 41 29.0800000  0  4G 6G 8G 9G11
  20444666.924    20444671.954    -4065880.488 8  -1188947.436 9
  22256797.139    22256800.831     6656880.085 8   6955105.366 9
  21958364.372    21958366.890    -9443449.357 9  -5436743.035 8
  20549518.091    20549525.474    -3899398.434 7   -988144.853 8
 86  6 19 23 41 35.0800000  0  4G 6G 8G 9G11
  20444050.506    20444057.484    -4069118.332 8  -1191470.421 8
  22260413.725    22260417.841     6675887.913 8   6969916.653 8
  21955169.487    21955173.572    -9460234.851 9  -5449822.629 8
  20549386.589    20549392.958    -3900094.140 8   -988686.962 7
 86  6 19 23 41 41.0800000  0  4G 6G 8G 9G11
  20443437.450    20443442.049    -4072339.163 7  -1193980.168 8
  22264032.386    22264037.663     6694907.772 8   6984737.326 8
  21951977.272    21951981.028    -9477014.097 9  -5462897.360 7
  20549258.092    20549264.619    -3900766.985 7   -989211.246 7
 86  6 19 23 41 47.0800000  0  4G 6G 8G 9G11
  20442828.040    20442833.040    -4075542.979 8  -1196476.651 8
  22267655.318    22267659.567     6713939.673 9   6999567.366 8
  21948785.141    21948787.287    -9493787.014 9  -5475967.147 8
  20549135.176    20549140.828    -3901416.937 8   -989717.707 7
 86  6 19 23 41 53.0800000  0  4G 6G 8G 9G11
  20442220.961    20442228.070    -4078729.715 8  -1198959.817 8
  22271277.567    22271283.822     6732983.633 8   7014406.799 8
  21945594.761    21945597.059    -9510553.562 9  -5489031.984 7
  20549014.836    20549020.472    -3902043.990 7   -990206.329 8
 86  6 19 23 41 59.0800000  0  4G 6G 8G 9G11
  20441618.089    20441623.697    -4081899.355 8  -1201429.677 8
  22274903.409    22274909.943     6752039.636 7   7029255.626 8
  21942405.085    21942408.501    -9527313.673 9  -5502091.799 8
  20548901.992    20548906.587    -3902648.235 7   -990677.169 8
 86  6 19 23 42  5.0800000  0  4G 6G 8G 9G11
  20441019.212    20441023.438    -4085051.970 8  -1203886.257 8
  22278533.657    22278537.531     6771107.524 8   7044113.706 8
  21939218.386    21939221.104    -9544067.464 8  -5515146.708 7
  20548791.266    20548795.360    -3903229.691 8   -991130.261 8
 86  6 19 23 42 11.0800000  0  4G 6G 8G 9G11
  20440421.380    20440427.097    -4088187.512 8  -1206329.534 8
  22282165.068    22282169.191     6790187.341 8   7058981.091 8
  21936029.783    21936031.720    -9560814.902 8  -5528196.655 8
  20548684.806    20548688.325    -3903788.339 7   -991565.558 7
 86  6 19 23 42 17.0800000  0  4G 6G 8G 9G11
  20439828.817    20439833.521    -4091306.032 7  -1208759.547 7
  22285796.110    22285801.562     6809278.978 8   7073857.692 7
  21932844.441    21932845.902    -9577555.951 8  -5541241.611 8
  20548581.324    20548586.819    -3904324.207 8   -991983.117 7
 86  6 19 23 42 23.0800000  0  4G 6G 8G 9G11
  20439237.351    20439242.437    -4094407.330 8  -1211176.143 8
  22289431.137    22289437.866     6828382.536 8   7088743.579 8
  21929659.981    21929662.723    -9594290.522 8  -5554281.535 9
  20548484.421    20548488.454    -3904837.292 8   -992382.920 6
 86  6 19 23 42 29.0800000  0  4G 6G 8G 9G11
  20438650.697    20438656.391    -4097491.539 8  -1213579.419 8
  22293070.014    22293074.175     6847497.940 8   7103638.694 9
  21926475.951    21926478.834    -9611018.655 9  -5567316.446 8
  20548391.270    20548395.774    -3905327.612 7   -992764.981 7
 86  6 19 23 42 35.0800000  0  4G 6G 8G 9G11
  20438068.345    20438072.880    -4100558.568 9  -1215969.308 8
  22296709.773    22296715.209     6866625.219 8   7118543.048 8
  21923295.180    21923296.764    -9627740.375 9  -5580346.346 7
  20548300.691    20548306.213    -3905795.127 8   -993129.291 7
 86  6 19 23 42 41.0800000  0  4G 6G 8G 9G11
  20437487.010    20437493.476    -4103608.387 8  -1218345.813 6
  22300352.040    22300357.176     6885764.343 9   7133456.651 8
  21920114.105    21920116.130    -9644455.435 8  -5593371.048 7
  20548217.410    20548221.763    -3906239.807 7   -993475.785 7
 86  6 19 23 42 47.0800000  0  4G 6G 8G 9G11
  20436911.695    20436916.002    -4106640.933 8  -1220708.830 8
  22303996.350    22304000.684     6904915.334 7   7148379.483 8
  21916934.122    21916936.869    -9661163.933 9  -5606390.653 8
  20548137.422    20548142.603    -3906661.618 7   -993804.462 7
 86  6 19 23 42 53.0800000  0  4G 6G 8G 9G11
  20436337.121    20436342.007    -4109656.260 8  -1223058.433 8
  22307643.938    22307647.993     6924078.069 8   7163311.485 9
  21913755.529    21913758.560    -9677865.810 8  -5619405.085 7
  20548060.952    20548065.661    -3907060.599 7   -994115.347 7
 86  6 19 23 42 59.0800000  0  4G 6G 8G 9G11
  20435766.041    20435771.277    -4112654.325 8  -1225394.574 7
  22311291.167    22311296.572     6943252.539 9   7178252.634 8
  21910578.810    21910581.680    -9694561.178 8  -5632414.462 7
  20547990.037    20547994.204    -3907436.801 8   -994408.509 8
 86  6 19 23 43  5.0800000  0  4G 6G 8G 9G11
  20435198.954    20435203.693    -4115635.153 7  -1227717.288 7
  22314942.198    22314947.323     6962438.805 8   7193202.964 8
  21907402.311    21907405.695    -9711249.983 9  -5645418.716 8
  20547921.696    20547927.077    -3907790.259 7   -994683.909 7
 86  6 19 23 43 11.0800000  0  4G 6G 8G 9G11
  20434634.750    20434639.578    -4118598.725 8  -1230026.566 7
  22318594.575    22318601.428     6981636.700 8   7208162.355 8
  21904228.224    21904231.909    -9727932.172 8  -5658417.813 8
  20547858.078    20547864.545    -3908120.897 7   -994941.556 7
 86  6 19 23 43 17.0800000  0  4G 6G 8G 9G11
  20434075.352    20434078.445    -4121545.013 8  -1232322.381 7
  22322251.449    22322256.079     7000846.206 8   7223130.791 8
  21901056.248    21901057.086    -9744607.743 9  -5671411.762 7
  20547800.238    20547806.004    -3908428.733 7   -995181.426 7
 86  6 19 23 43 23.0800000  0  4G 6G 8G 9G11
  20433517.163    20433521.416    -4124474.035 8  -1234604.727 7
  22325908.371    22325913.651     7020067.394 7   7238108.342 9
  21897883.939    21897886.161    -9761276.603 9  -5684400.489 7
  20547747.380    20547752.245    -3908713.823 8   -995403.567 7
 86  6 19 23 43 29.0800000  0  4G 6G 8G 9G11
  20432963.395    20432966.468    -4127385.761 8  -1236873.598 7
  22329570.021    22329573.485     7039300.146 8   7253094.906 9
  21894712.998    21894715.596    -9777938.865 8  -5697384.057 8
  20547696.695    20547701.264    -3908976.176 7   -995608.009 7
 86  6 19 23 43 35.0800000  0  4G 6G 8G 9G11
  20432411.743    20432416.423    -4130280.176 7  -1239128.999 8
  22333229.576    22333236.937     7058544.477 8   7268090.467 8
  21891543.360    21891547.526    -9794594.391 8  -5710362.359 8
  20547651.734    20547655.699    -3909215.810 7   -995794.722 7
 86  6 19 23 43 41.0800000  0  4G 6G 8G 9G11
  20431865.266    20431869.009    -4133157.240 8  -1241370.843 7
  22336895.473    22336900.527     7077800.359 7   7283095.062 9
  21888375.536    21888377.474    -9811243.209 8  -5723335.474 8
  20547609.668    20547615.418    -3909432.723 7   -995963.745 6
 86  6 19 23 43 47.0800000  0  4G 6G 8G 9G11
  20431320.871    20431324.202    -4136017.006 8  -1243599.237 7
  22340560.805    22340566.045     7097067.726 9   7298108.590 8
  21885207.143    21885210.757    -9827885.347 8  -5736303.357 8
  20547570.689    20547578.015    -3909626.986 8   -996115.125 7
 86  6 19 23 43 53.0800000  0  4G 6G 8G 9G11
  20430781.354    20430783.251    -4138859.394 9  -1245814.083 6
  22344229.714    22344235.640     7116346.592 8   7313131.060 8
  21882042.136    21882044.700    -9844520.728 9  -5749265.994 8
  20547539.978    20547544.947    -3909798.599 7   -996248.827 8
 86  6 19 23 43 59.0800000  0  4G 6G 8G 9G11
  20430243.405    20430246.275    -4141684.398 8  -1248015.379 7
  22347900.636    22347906.242     7135636.921 9   7328162.489 8
  21878876.736    21878880.166    -9861149.297 8  -5762223.309 7
  20547511.647    20547515.511    -3909947.492 8   -996364.848 8
 86  6 19 23 44  5.0800000  0  4G 6G 8G 9G11
  20429708.000    20429711.356    -4144491.995 9  -1250203.117 7
  22351573.970    22351579.422     7154938.679 7   7343202.803 9
  21875714.357    21875717.726    -9877771.111 8  -5775175.371 8
  20547487.952    20547491.845    -3910073.681 7   -996463.173 8
 86  6 19 23 44 11.0800000  0  4G 6G 8G 9G11
  20429177.775    20429180.412    -4147282.250 9  -1252377.341 7
  22355249.024    22355255.113     7174251.729 8   7358251.943 9
  21872553.524    21872557.312    -9894386.180 9  -5788122.169 7
  20547467.917    20547472.598    -3910177.224 8   -996543.864 7
 86  6 19 23 44 17.0800000  0  4G 6G 8G 9G11
  20428650.742    20428653.947    -4150055.133 8  -1254538.028 7
  22358927.246    22358931.982     7193576.128 9   7373309.908 8
  21869392.618    21869396.367    -9910994.422 8  -5801063.657 8
  20547452.578    20547457.015    -3910258.125 8   -996606.891 8
 86  6 19 23 44 23.0800000  0  4G 6G 8G 9G11
  20428125.645    20428128.383    -4152810.689 8  -1256685.199 7
  22362605.563    22362610.769     7212911.824 8   7388376.672 9
  21866233.220    21866236.868    -9927595.992 8  -5813999.934 8
  20547441.446    20547446.354    -3910316.460 6   -996652.336 8
 86  6 19 23 44 29.0800000  0  4G 6G 8G 9G11
  20427603.859    20427606.896    -4155548.784 9  -1258818.775 7
  22366287.007    22366292.532     7232258.810 9   7403452.256 9
  21863074.944    21863079.137    -9944190.711 8  -5826930.871 8
  20547432.575    20547440.074    -3910352.166 7   -996680.167 7
 86  6 19 23 44 35.0800000  0  4G 6G 8G 9G11
  20427086.464    20427090.940    -4158269.374 8  -1260938.727 8
  22369971.727    22369976.561     7251617.118 8   7418536.632 9
  21859919.173    21859922.779    -9960778.470 8  -5839856.395 8
  20547431.402    20547437.052    -3910365.213 7   -996690.321 7
 86  6 19 23 44 41.0800000  0  4G 6G 8G 9G11
  20426573.244    20426574.972    -4160972.410 8  -1263044.975 6
  22373657.142    22373661.167     7270986.781 8   7433629.871 8
  21856763.559    21856768.080    -9977359.277 8  -5852776.492 7
  20547432.259    20547438.224    -3910355.565 8   -996682.789 7
 86  6 19 23 44 47.0800000  0  4G 6G 8G 9G11
  20426062.311    20426065.763    -4163657.880 8  -1265137.548 7
  22377346.200    22377350.808     7290367.750 8   7448731.917 8
  21853608.862    21853613.928    -9993933.127 8  -5865691.173 8
  20547439.041    20547445.008    -3910323.234 7   -996657.613 7
 86  6 19 23 44 53.0800000  0  4G 6G 8G 9G11
  20425553.412    20425556.738    -4166325.820 8  -1267216.456 8
  22381035.655    22381040.576     7309759.909 8   7463842.695 9
  21850458.234    21850459.978   -10010499.970 9  -5878600.400 8
  20547449.772    20547455.882    -3910268.222 7   -996614.726 8
 86  6 19 23 44 59.0800000  0  4G 6G 8G 9G11
  20425049.217    20425053.747    -4168976.270 8  -1269281.741 8
  22384728.320    22384733.857     7329163.295 9   7478962.201 8
  21847305.670    21847310.741   -10027059.869 8  -5891504.210 7
  20547465.427    20547470.736    -3910190.605 7   -996554.245 7
 86  6 19 23 45  5.0800000  0  4G 6G 8G 9G11
  20424547.877    20424551.630    -4171609.218 8  -1271333.395 7
  22388423.056    22388427.142     7348577.765 7   7494090.356 9
  21844156.711    21844159.868   -10043612.923 8  -5904402.685 7
  20547483.342    20547489.707    -3910090.419 8   -996476.186 7
 86  6 19 23 45 11.0800000  0  4G 6G 8G 9G11
  20424050.124    20424054.947    -4174224.566 9  -1273371.324 8
  22392119.086    22392124.373     7368003.391 8   7509227.203 9
  21841006.444    21841011.018   -10060158.959 9  -5917295.709 8
  20547507.895    20547513.964    -3909967.611 8   -996380.477 8
 86  6 19 23 45 17.0800000  0  4G 6G 8G 9G11
  20423556.040    20423560.565    -4176822.396 9  -1275395.608 7
  22395817.184    22395822.568     7387440.117 8   7524372.698 8
  21837860.650    21837863.443   -10076697.926 9  -5930183.180 8
  20547533.653    20547541.048    -3909822.176 7   -996267.150 7
 86  6 19 23 45 23.0800000  0  4G 6G 8G 9G11
  20423065.998    20423070.091    -4179402.626 8  -1277406.174 7
  22399517.867    22399524.192     7406887.965 8   7539526.860 8
  21834713.932    21834718.874   -10093229.858 8  -5943065.218 8
  20547566.934    20547572.643    -3909654.170 7   -996136.242 7
 86  6 19 23 45 29.0800000  0  4G 6G 8G 9G11
  20422576.166    20422582.018    -4181965.180 8  -1279402.978 8
  22403221.516    22403226.178     7426346.894 9   7554689.653 8
  21831569.372    21831573.536   -10109754.698 9  -5955941.704 8
  20547603.451    20547608.946    -3909463.526 7   -995987.681 8
 86  6 19 23 45 35.0800000  0  4G 6G 8G 9G11
  20422091.548    20422096.976    -4184510.027 8  -1281385.968 8
  22406926.877    22406931.790     7445816.900 8   7569861.077 8
  21828425.913    21828430.864   -10126272.348 8  -5968812.595 9
  20547643.519    20547648.910    -3909250.236 7   -995821.489 8
 86  6 19 23 45 41.0800000  0  4G 6G 8G 9G11
  20421611.123    20421616.852    -4187037.225 8  -1283355.234 8
  22410633.702    22410639.042     7465297.935 8   7585041.108 8
  21825284.280    21825289.081   -10142782.890 9  -5981677.958 8
  20547689.963    20547695.385    -3909014.441 7   -995637.737 7
 86  6 19 23 45 47.0800000  0  4G 6G 8G 9G11
  20421134.435    20421139.105    -4189546.728 9  -1285310.676 8
  22414342.849    22414348.622     7484789.965 9   7600229.701 8
  21822143.620    21822147.957   -10159286.317 8  -5994537.755 8
  20547737.842    20547743.208    -3908756.090 8   -995436.421 8
 86  6 19 23 45 53.0800000  0  4G 6G 8G 9G11
  20420659.634    20420664.262    -4192038.579 7  -1287252.371 8
  22418054.989    22418059.859     7504293.004 8   7615426.871 8
  21819004.733    21819009.248   -10175782.576 8  -6007391.995 8
  20547791.613    20547796.723    -3908475.164 8   -995217.506 7
 86  6 19 23 45 59.0800000  0  4G 6G 8G 9G11
  20420187.857    20420194.093    -4194512.705 7  -1289180.279 7
  22421768.751    22421773.544     7523806.989 8   7630632.553 8
  21815865.120    21815871.863   -10192271.602 9  -6020240.565 8
  20547850.225    20547853.790    -3908171.675 7   -994981.030 9
 86  6 19 23 46  5.0800000  0  4G 6G 8G 9G11
  20419721.676    20419726.037    -4196969.090 7  -1291094.332 7
  22425482.641    22425488.801     7543331.906 8   7645846.778 9
  21812730.511    21812734.327   -10208753.384 9  -6033083.513 9
  20547911.584    20547916.347    -3907845.555 7   -994726.920 8
 86  6 19 23 46 11.0800000  0  4G 6G 8G 9G11
  20419257.661    20419262.083    -4199407.708 7  -1292994.563 7
  22429201.191    22429207.099     7562867.756 8   7661069.504 8
  21809597.003    21809600.255   -10225227.921 7  -6045920.807 9
  20547977.692    20547983.845    -3907496.823 7   -994455.164 7
 86  6 19 23 46 17.0800000  0  4G 6G 8G 9G11
  20418797.067    20418801.263    -4201828.565 8  -1294880.936 8
  22432921.406    22432924.789     7582414.472 8   7676300.719 8
  21806461.524    21806465.991   -10241695.162 8  -6058752.416 8
  20548049.552    20548053.715    -3907125.540 7   -994165.857 8
 86  6 19 23 46 23.0800000  0  4G 6G 8G 9G11
  20418339.774    20418343.204    -4204231.676 7  -1296753.502 8
  22436643.456    22436647.723     7601971.985 9   7691540.330 9
  21803329.637    21803335.223   -10258155.154 7  -6071578.382 9
  20548123.929    20548129.269    -3906731.686 7   -993858.962 8
 86  6 19 23 46 29.0800000  0  4G 6G 8G 9G11
  20417884.885    20417889.511    -4206617.018 7  -1298612.204 8
  22440366.049    22440371.490     7621540.389 9   7706788.431 8
  21800197.812    21800204.208   -10274607.800 8  -6084398.621 8
  20548202.200    20548207.996    -3906315.310 6   -993534.511 8
 86  6 19 23 46 35.0800000  0  4G 6G 8G 9G11
  20417433.938    20417438.524    -4208984.487 8  -1300456.987 7
  22444090.743    22444096.623     7641119.575 9   7722044.935 8
  21797068.856    21797073.428   -10291053.193 8  -6097213.191 8
  20548285.739    20548291.592    -3905876.351 8   -993192.461 7
 86  6 19 23 46 41.0800000  0  4G 6G 8G 9G11
  20416988.322    20416992.387    -4211334.131 8  -1302287.878 7
  22447820.848    22447824.464     7660709.601 8   7737309.898 8
  21793941.624    21793946.339   -10307491.167 8  -6110022.002 8
  20548374.027    20548379.435    -3905414.852 6   -992832.849 7
 86  6 19 23 46 47.0800000  0  4G 6G 8G 9G11
  20416544.641    20416550.625    -4213665.933 9  -1304104.873 9
  22451549.394    22451554.982     7680310.390 8   7752583.230 8
  21790813.862    21790819.601   -10323921.813 8  -6122825.078 9
  20548464.687    20548471.871    -3904930.840 7   -992455.689 7
 86  6 19 23 46 53.0800000  0  4G 6G 8G 9G11
  20416104.688    20416107.088    -4215979.863 8  -1305907.932 7
  22455281.224    22455287.051     7699921.899 9   7767864.914 9
  21787688.480    21787694.418   -10340345.009 9  -6135622.377 9
  20548561.559    20548567.914    -3904424.343 8   -992061.016 9
 86  6 19 23 46 59.0800000  0  4G 6G 8G 9G11
  20415666.642    20415672.062    -4218275.922 8  -1307697.066 7
  22459015.167    22459020.574     7719544.104 9   7783154.941 8
  21784564.618    21784571.351   -10356760.825 7  -6148413.913 8
  20548663.672    20548668.637    -3903895.301 7   -991648.759 8
 86  6 19 23 47  5.0800000  0  4G 6G 8G 9G11
  20415234.737    20415237.296    -4220554.191 9  -1309472.346 7
  22462751.542    22462756.749     7739176.831 8   7798453.168 8
  21781443.233    21781447.697   -10373169.326 7  -6161199.769 8
  20548768.070    20548773.537    -3903343.807 7   -991219.037 8
 86  6 19 23 47 11.0800000  0  4G 6G 8G 9G11
  20414803.744    20414807.105    -4222814.618 8  -1311233.707 7
  22466488.465    22466494.071     7758820.194 8   7813759.677 8
  21778321.059    21778326.289   -10389570.406 8  -6173979.811 9
  20548876.191    20548884.119    -3902769.933 7   -990771.864 7
 86  6 19 23 47 17.0800000  0  4G 6G 8G 9G11
  20414377.387    20414380.761    -4225057.084 8  -1312981.075 9
  22470229.441    22470234.577     7778474.207 8   7829074.488 9
  21775202.086    21775207.193   -10405963.987 7  -6186754.026 7
  20548989.031    20548996.128    -3902173.497 7   -990307.092 8
 86  6 19 23 47 23.0800000  0  4G 6G 8G 9G11
  20413954.424    20413957.497    -4227281.648 7  -1314714.511 8
  22473971.703    22473977.031     7798138.792 8   7844397.534 8
  21772084.403    21772089.885   -10422350.130 9  -6199522.445 8
  20549107.542    20549113.792    -3901554.655 8   -989824.898 7
 86  6 19 23 47 29.0800000  0  4G 6G 8G 9G11
  20413534.716    20413537.036    -4229488.297 8  -1316433.969 7
  22477716.072    22477721.252     7817813.890 8   7859728.781 8
  21768968.656    21768971.969   -10438728.756 8  -6212285.014 8
  20549229.882    20549235.908    -3900913.418 7   -989325.216 7
 86  6 19 23 47 35.0800000  0  4G 6G 8G 9G11
  20413118.525    20413120.694    -4231676.999 7  -1318139.459 7
  22481462.062    22481466.647     7837499.489 9   7875068.205 9
  21765852.923    21765856.250   -10455099.841 8  -6225041.713 9
  20549356.722    20549361.329    -3900249.757 6   -988808.066 8
 86  6 19 23 47 41.0800000  0  4G 6G 8G 9G11
  20412705.231    20412708.373    -4233847.757 8  -1319830.955 7
  22485209.456    22485214.672     7857195.662 8   7890415.861 8
  21762738.128    21762742.663   -10471463.389 8  -6237792.509 8
  20549486.477    20549493.401    -3899563.675 7   -988273.460 7
 86  6 19 23 47 47.0800000  0  4G 6G 8G 9G11
  20412295.019    20412298.793    -4236000.511 9  -1321508.438 8
  22488960.304    22488965.122     7876902.260 7   7905771.652 8
  21759626.121    21759631.070   -10487819.381 8  -6250537.432 8
  20549621.897    20549626.779    -3898855.280 7   -987721.444 7
 86  6 19 23 47 53.0800000  0  4G 6G 8G 9G11
  20411889.808    20411892.108    -4238135.358 9  -1323171.939 8
  22492712.215    22492716.945     7896619.278 8   7921135.559 8
  21756514.638    21756518.579   -10504167.835 8  -6263276.484 8
  20549760.641    20549766.262    -3898124.511 7   -987152.046 7
 86  6 19 23 47 59.0800000  0  4G 6G 8G 9G11
  20411485.993    20411489.446    -4240252.186 8  -1324821.410 8
  22496466.846    22496470.709     7916346.692 9   7936507.568 8
  21753404.992    21753409.233   -10520508.692 8  -6276009.624 8
  20549902.899    20549909.685    -3897371.315 7   -986565.120 8
 86  6 19 23 48  5.0800000  0  4G 6G 8G 9G11
  20411086.939    20411089.474    -4242350.902 8  -1326456.762 7
  22500221.790    22500226.706     7936084.572 8   7951887.719 7
  21750296.635    21750302.122   -10536841.817 8  -6288736.730 8
  20550052.776    20550057.713    -3896595.624 8   -985960.694 8
 86  6 19 23 48 11.0800000  0  4G 6G 8G 9G11
  20410690.682    20410694.660    -4244431.572 8  -1328078.068 7
  22503980.111    22503984.552     7955832.850 8   7967275.981 8
  21747190.487    21747195.862   -10553167.395 8  -6301457.941 8
  20550203.739    20550209.490    -3895797.530 7   -985338.813 7
 86  6 19 23 48 17.0800000  0  4G 6G 8G 9G11
  20410297.563    20410299.858    -4246494.230 8  -1329685.332 8
  22507739.460    22507744.799     7975591.449 8   7982672.298 8
  21744086.063    21744089.707   -10569485.194 8  -6314173.115 8
  20550359.248    20550365.446    -3894977.042 7   -984699.447 7
 86  6 19 23 48 23.0800000  0  4G 6G 8G 9G11
  20409908.942    20409912.125    -4248538.780 8  -1331278.482 7
  22511501.923    22511506.866     7995360.392 8   7998076.657 8
  21740982.300    21740987.537   -10585795.291 9  -6326882.265 8
  20550521.801    20550525.293    -3894134.159 8   -984042.658 8
 86  6 19 23 48 29.0800000  0  4G 6G 8G 9G11
  20409523.080    20409527.287    -4250565.290 8  -1332857.572 7
  22515266.271    22515270.483     8015139.553 8   8013488.989 8
  21737880.254    21737884.290   -10602097.780 8  -6339585.497 8
  20550685.670    20550691.206    -3893269.001 8   -983368.510 7
 86  6 19 23 48 35.0800000  0  4G 6G 8G 9G11
  20409141.213    20409144.957    -4252573.724 9  -1334422.591 8
  22519031.244    22519036.131     8034928.979 8   8028909.321 8
  21734778.938    21734783.388   -10618392.491 8  -6352282.672 8
  20550854.575    20550860.443    -3892381.525 7   -982676.969 9
 86  6 19 23 48 41.0800000  0  4G 6G 8G 9G11
  20408762.522    20408764.814    -4254564.062 8  -1335973.501 8
  22522799.022    22522803.765     8054728.625 8   8044337.609 8
  21731681.238    21731684.617   -10634679.436 9  -6364973.811 8
  20551028.632    20551032.510    -3891471.762 7   -981968.056 7
 86  6 19 23 48 47.0800000  0  4G 6G 8G 9G11
  20408386.994    20408389.777    -4256536.412 8  -1337510.396 6
  22526569.556    22526573.919     8074538.411 8   8059773.803 8
  21728581.484    21728586.026   -10650958.755 8  -6377658.984 9
  20551206.437    20551209.830    -3890539.700 8   -981241.776 8
 86  6 19 23 48 53.0800000  0  4G 6G 8G 9G11
  20408014.746    20408018.662    -4258490.585 8  -1339033.120 8
  22530340.367    22530345.927     8094358.313 8   8075217.870 7
  21725484.601    21725490.146   -10667230.403 9  -6390338.186 9
  20551385.818    20551391.526    -3889585.380 7   -980498.141 7
 86  6 19 23 48 59.0800000  0  4G 6G 8G 9G11
  20407646.551    20407651.141    -4260426.590 8  -1340541.719 7
  22534113.456    22534118.428     8114188.409 8   8090669.897 8
  21722390.967    21722396.027   -10683494.134 9  -6403011.217 7
  20551572.611    20551578.620    -3888608.743 7   -979737.127 8
 86  6 19 23 49  5.0800000  0  4G 6G 8G 9G11
  20407281.543    20407284.160    -4262344.471 8  -1342036.150 7
  22537890.695    22537894.444     8134028.650 8   8106129.806 8
  21719296.720    21719302.315   -10699750.078 9  -6415678.182 8
  20551762.062    20551767.671    -3887609.786 7   -978958.717 7
 86  6 19 23 49 11.0800000  0  4G 6G 8G 9G11
  20406920.716    20406923.679    -4264244.155 8  -1343516.441 7
  22541667.352    22541671.548     8153878.973 8   8121597.595 8
  21716205.290    21716210.583   -10715998.191 8  -6428339.045 8
  20551957.096    20551962.391    -3886588.579 7   -978162.975 8
 86  6 19 23 49 17.0800000  0  4G 6G 8G 9G11
  20406562.414    20406566.455    -4266125.619 8  -1344982.501 8
  22545446.185    22545451.256     8173739.347 8   8137073.199 8
  21713115.328    21713119.198   -10732238.454 8  -6440993.789 9
  20552155.879    20552160.713    -3885545.074 7   -977349.848 7
 86  6 19 23 49 23.0800000  0  4G 6G 8G 9G11
  20406208.003    20406211.411    -4267988.949 8  -1346434.465 8
  22549228.219    22549232.458     8193609.742 8   8152556.631 8
  21710026.081    21710030.566   -10748470.864 8  -6453642.422 8
  20552358.641    20552363.849    -3884479.360 8   -976519.419 8
 86  6 19 23 49 29.0800000  0  4G 6G 8G 9G11
  20405855.505    20405860.669    -4269834.156 7  -1347872.289 7
  22553010.168    22553015.262     8213490.067 8   8168047.778 7
  21706938.772    21706942.885   -10764695.450 9  -6466284.956 8
  20552564.636    20552569.887    -3883391.438 8   -975671.693 8
 86  6 19 23 49 35.0800000  0  4G 6G 8G 9G11
  20405508.119    20405512.806    -4271661.263 8  -1349296.006 7
  22556795.537    22556799.648     8233380.277 8   8183546.649 8
  21703852.722    21703857.524   -10780912.191 9  -6478921.380 7
  20552776.840    20552781.691    -3882281.423 8   -974806.738 7
 86  6 19 23 49 41.0800000  0  4G 6G 8G 9G11
  20405164.082    20405168.716    -4273470.131 7  -1350705.528 8
  22560582.040    22560586.708     8253280.380 8   8199053.207 9
  21700768.505    21700773.734   -10797121.058 9  -6491551.653 9
  20552992.480    20552996.271    -3881149.261 7   -973924.530 8
 86  6 19 23 49 47.0800000  0  4G 6G 8G 9G11
  20404822.546    20404827.278    -4275260.863 8  -1352100.890 8
  22564371.376    22564376.024     8273190.382 8   8214567.507 7
  21697685.468    21697689.760   -10813322.005 9  -6504175.761 8
  20553211.324    20553217.391    -3879994.908 8   -973025.036 8
 86  6 19 23 49 53.0800000  0  4G 6G 8G 9G11
  20404487.031    20404491.171    -4277033.300 8  -1353482.010 8
  22568161.661    22568167.949     8293110.251 8   8230089.466 9
  21694603.289    21694609.018   -10829515.006 9  -6516793.681 8
  20553435.433    20553440.486    -3878818.385 8   -972108.258 8
 86  6 19 23 49 59.0800000  0  4G 6G 8G 9G11
  20404153.226    20404156.188    -4278787.384 8  -1354848.819 8
  22571953.682    22571958.481     8313040.080 8   8245619.206 8
  21691524.422    21691528.915   -10845700.010 9  -6529405.367 8
  20553662.950    20553669.088    -3877619.598 8   -971174.131 7
 86  6 19 23 50  5.0800000  0  4G 6G 8G 9G11
  20403821.631    20403826.918    -4280523.171 8  -1356201.386 7
  22575748.652    22575752.264     8332979.760 7   8261156.613 8
  21688446.551    21688450.879   -10861876.956 8  -6542010.777 9
  20553895.187    20553902.213    -3876398.609 7   -970222.714 8
 86  6 19 23 50 11.0800000  0  4G 6G 8G 9G11
  20403495.528    20403499.460    -4282240.594 8  -1357539.639 8
  22579546.000    22579549.460     8352929.346 8   8276701.745 8
  21685369.704    21685374.031   -10878045.682 9  -6554609.776 8
  20554132.948    20554137.658    -3875155.411 7   -969253.971 7
 86  6 19 23 50 17.0800000  0  4G 6G 8G 9G11
  20403171.975    20403175.546    -4283939.587 8  -1358863.542 7
  22583342.028    22583348.030     8372888.784 7   8292254.552 8
  21682293.806    21682298.049   -10894206.339 9  -6567202.487 8
  20554371.597    20554378.210    -3873889.914 6   -968267.886 7
 86  6 19 23 50 23.0800000  0  4G 6G 8G 9G11
  20402853.949    20402857.109    -4285620.176 7  -1360173.089 7
  22587143.487    22587147.350     8392858.051 8   8307815.000 8
  21679219.469    21679223.442   -10910358.902 8  -6579788.911 8
  20554617.772    20554623.839    -3872602.257 7   -967264.504 8
 86  6 19 23 50 29.0800000  0  4G 6G 8G 9G11
  20402536.434    20402540.418    -4287282.380 8  -1361468.309 7
  22590944.527    22590949.235     8412837.106 8   8323383.103 8
  21676147.556    21676151.956   -10926503.301 8  -6592368.957 8
  20554866.722    20554872.578    -3871292.408 7   -966243.848 8
 86  6 19 23 50 35.0800000  0  4G 6G 8G 9G11
  20402224.379    20402227.065    -4288926.101 8  -1362749.141 8
  22594748.086    22594753.341     8432825.983 8   8338958.838 8
  21673076.940    21673081.454   -10942639.444 8  -6604942.567 8
  20555120.281    20555126.276    -3869960.292 8   -965205.831 7
 86  6 19 23 50 41.0800000  0  4G 6G 8G 9G11
  20401914.124    20401919.205    -4290551.431 8  -1364015.627 7
  22598553.077    22598558.142     8452824.603 7   8354542.181 8
  21670008.747    21670012.639   -10958767.344 9  -6617509.755 9
  20555378.706    20555384.587    -3868605.981 7   -964150.523 8
 86  6 19 23 50 47.0800000  0  4G 6G 8G 9G11
  20401607.949    20401611.987    -4292158.303 7  -1365267.730 7
  22602362.548    22602364.924     8472832.916 8   8370133.063 8
  21666940.992    21666943.462   -10974887.061 8  -6630070.581 9
  20555640.362    20555645.973    -3867229.480 8   -963077.919 7
 86  6 19 23 50 53.0800000  0  4G 6G 8G 9G11
  20401305.987    20401310.858    -4293746.747 8  -1366505.482 7
  22606170.625    22606175.485     8492850.915 8   8385731.499 9
  21663874.532    21663877.723   -10990998.511 8  -6642624.942 8
  20555906.572    20555911.894    -3865830.752 6   -961988.006 8
 86  6 19 23 50 59.0800000  0  4G 6G 8G 9G11
  20401007.478    20401011.804    -4295316.792 8  -1367728.886 7
  22609982.167    22609987.321     8512878.483 8   8401337.392 7
  21660810.199    21660814.218   -11007101.722 8  -6655172.907 8
  20556176.214    20556182.938    -3864409.968 7   -960880.904 7
 86  6 19 23 51  5.0800000  0  4G 6G 8G 9G11
  20400712.238    20400715.903    -4296868.398 9  -1368937.937 7
  22613795.152    22613799.997     8532915.593 7   8416950.714 7
  21657747.574    21657752.773   -11023196.778 7  -6667714.504 8
  20556451.293    20556455.399    -3862967.091 8   -959756.584 7
 86  6 19 23 51 11.0800000  0  4G 6G 8G 9G11
  20400421.593    20400425.354    -4298401.634 8  -1370132.671 7
  22617608.423    22617615.203     8552962.248 7   8432571.500 8
  21654687.480    21654690.042   -11039283.721 8  -6680249.780 8
  20556729.004    20556735.943    -3861502.171 7   -958615.070 8
 86  6 19 23 51 17.0800000  0  4G 6G 8G 9G11
  20400132.945    20400135.819    -4299916.463 8  -1371313.052 8
  22621427.229    22621431.287     8573018.404 8   8448199.656 8
  21651626.293    21651631.565   -11055362.418 9  -6692778.623 8
  20557011.868    20557018.952    -3860015.225 7   -957456.424 7
 86  6 19 23 51 23.0800000  0  4G 6G 8G 9G11
  20399847.629    20399852.079    -4301412.834 8  -1372479.058 7
  22625244.704    22625249.266     8593083.987 8   8463835.155 8
  21648569.334    21648573.905   -11071432.854 9  -6705301.045 8
  20557300.485    20557306.037    -3858506.328 8   -956280.647 8
 86  6 19 23 51 29.0800000  0  4G 6G 8G 9G11
  20399566.597    20399570.303    -4302890.783 8  -1373630.700 7
  22629065.243    22629069.053     8613158.974 7   8479478.005 8
  21645511.918    21645516.746   -11087495.118 9  -6717817.084 8
  20557590.474    20557596.999    -3856975.451 6   -955087.749 8
 86  6 19 23 51 35.0800000  0  4G 6G 8G 9G11
  20399288.458    20399292.321    -4304350.310 8  -1374768.004 7
  22632885.203    22632891.852     8633243.347 8   8495128.151 8
  21642456.777    21642461.186   -11103549.044 9  -6730326.634 8
  20557887.476    20557892.711    -3855422.632 8   -953877.760 8
 86  6 19 23 51 41.0800000  0  4G 6G 8G 9G11
  20399015.524    20399018.104    -4305791.428 9  -1375890.943 7
  22636710.132    22636715.742     8653337.053 8   8510785.579 8
  21639403.711    21639407.567   -11119594.744 9  -6742829.775 7
  20558187.108    20558192.634    -3853847.867 7   -952650.673 8
 86  6 19 23 51 47.0800000  0  4G 6G 8G 9G11
  20398744.725    20398747.522    -4307213.979 8  -1376999.420 7
  22640534.608    22640539.548     8673440.200 8   8526450.361 8
  21636351.303    21636356.290   -11135632.038 9  -6755326.350 8
  20558490.180    20558495.229    -3852251.049 8   -951406.403 8
 86  6 19 23 51 53.0800000  0  4G 6G 8G 9G11
  20398476.332    20398480.266    -4308617.933 8  -1378093.414 8
  22644364.358    22644368.324     8693552.750 8   8542122.479 9
  21633301.591    21633305.512   -11151660.887 9  -6767816.380 8
  20558798.598    20558803.005    -3850632.214 7   -950144.967 7
 86  6 19 23 51 59.0800000  0  4G 6G 8G 9G11
  20398212.944    20398215.052    -4310003.332 9  -1379172.941 8
  22648193.338    22648196.595     8713674.695 8   8557801.914 9
  21630252.696    21630256.368   -11167681.284 8  -6780299.795 9
  20559110.282    20559116.963    -3848991.370 8   -948866.389 7
 86  6 19 23 52  5.0800000  0  4G 6G 8G 9G11
  20397952.590    20397956.521    -4311370.125 9  -1380237.979 7
  22652023.127    22652027.956     8733805.926 8   8573488.579 8
  21627205.561    21627209.939   -11183693.245 8  -6792776.644 8
  20559427.541    20559432.982    -3847328.525 7   -947570.657 7
 86  6 19 23 52 11.0800000  0  4G 6G 8G 9G11
  20397695.187    20397698.685    -4312718.213 8  -1381288.433 7
  22655856.070    22655861.316     8753946.603 8   8589182.601 8
  21624161.337    21624163.461   -11199696.533 8  -6805246.733 9
  20559748.438    20559752.992    -3845643.569 7   -946257.700 7
 86  6 19 23 52 17.0800000  0  4G 6G 8G 9G11
  20397444.019    20397446.431    -4314047.653 8  -1382324.359 7
  22659690.484    22659695.217     8774096.600 8   8604883.898 8
  21621116.783    21621120.061   -11215691.273 9  -6817710.160 9
  20560071.775    20560078.597    -3843936.557 7   -944927.556 7
 86  6 19 23 52 23.0800000  0  4G 6G 8G 9G11
  20397193.583    20397197.075    -4315358.363 8  -1383345.677 8
  22663526.107    22663530.723     8794255.914 7   8620592.441 8
  21618073.733    21618078.891   -11231677.490 8  -6830166.940 8
  20560400.454    20560407.523    -3842207.519 7   -943580.253 8
 86  6 19 23 52 29.0800000  0  4G 6G 8G 9G11
  20396947.306    20396951.432    -4316650.327 8  -1384352.423 8
  22667365.444    22667368.625     8814424.566 9   8636308.276 8
  21615034.604    21615037.737   -11247655.135 9  -6842617.045 7
  20560734.687    20560739.997    -3840456.457 8   -942215.803 8
 86  6 19 23 52 35.0800000  0  4G 6G 8G 9G11
  20396704.632    20396708.611    -4317923.597 8  -1385344.568 8
  22671203.749    22671208.869     8834602.474 8   8652031.312 8
  21611995.898    21611998.416   -11263624.098 9  -6855060.397 8
  20561071.813    20561076.936    -3838683.418 7   -940834.197 7
 86  6 19 23 52 41.0800000  0  4G 6G 8G 9G11
  20396466.918    20396470.201    -4319178.105 8  -1386322.109 7
  22675045.596    22675051.259     8854789.652 9   8667761.569 7
  21608957.434    21608962.848   -11279584.438 8  -6867497.014 8
  20561413.888    20561418.997    -3836888.355 7   -939435.444 8
 86  6 19 23 52 47.0800000  0  4G 6G 8G 9G11
  20396232.321    20396235.102    -4320413.891 8  -1387285.064 6
  22678888.513    22678893.738     8874986.071 7   8683499.045 8
  21605922.119    21605926.152   -11295536.062 7  -6879926.847 7
  20561760.885    20561764.362    -3835071.328 7   -938019.583 7
 86  6 19 23 52 53.0800000  0  4G 6G 8G 9G11
  20395999.392    20396003.036    -4321630.941 8  -1388233.415 7
  22682733.774    22682738.896     8895191.641 8   8699243.638 8
  21602889.397    21602893.039   -11311479.105 8  -6892349.993 8
  20562109.829    20562114.234    -3833232.379 7   -936586.628 7
 86  6 19 23 52 59.0800000  0  4G 6G 8G 9G11
  20395773.119    20395775.183    -4322829.227 8  -1389167.153 8
  22686580.314    22686586.524     8915406.321 8   8714995.323 8
  21599856.687    21599860.886   -11327413.419 8  -6904766.326 8
  20562464.410    20562468.559    -3831371.496 6   -935136.603 8
 86  6 19 23 53  5.0800000  0  4G 6G 8G 9G11
  20395546.697    20395550.594    -4324008.820 8  -1390086.294 7
  22690428.052    22690433.815     8935630.050 8   8730754.079 9
  21596825.534    21596829.940   -11343339.109 8  -6917175.942 8
  20562822.311    20562826.275    -3829488.721 8   -933669.497 7
 86  6 19 23 53 11.0800000  0  4G 6G 8G 9G11
  20395326.809    20395329.991    -4325169.695 8  -1390990.882 7
  22694279.322    22694283.649     8955862.841 7   8746519.883 8
  21593796.933    21593801.274   -11359256.115 9  -6929578.812 7
  20563184.646    20563189.186    -3827584.046 7   -932185.328 7
 86  6 19 23 53 17.0800000  0  4G 6G 8G 9G11
  20395108.890    20395112.408    -4326311.811 8  -1391880.841 8
  22698130.674    22698135.894     8976104.616 8   8762292.691 8
  21590770.270    21590773.497   -11375164.443 7  -6941974.892 7
  20563550.819    20563555.327    -3825657.563 7   -930684.182 7
 86  6 19 23 53 23.0800000  0  4G 6G 8G 9G11
  20394894.736    20394899.376    -4327435.224 8  -1392756.232 7
  22701984.041    22701988.415     8996355.273 8   8778072.415 9
  21587744.720    21587747.918   -11391064.112 8  -6954364.244 7
  20563922.372    20563927.409    -3823709.268 7   -929166.028 8
 86  6 19 23 53 29.0800000  0  4G 6G 8G 9G11
  20394683.974    20394688.866    -4328540.006 8  -1393617.090 8
  22705838.773    22705844.789     9016614.855 8   8793859.098 8
  21584720.215    21584721.999   -11406955.099 8  -6966746.817 7
  20564295.755    20564302.484    -3821739.237 7   -927630.932 7
 86  6 19 23 53 35.0800000  0  4G 6G 8G 9G11
  20394477.998    20394481.506    -4329626.105 7  -1394463.409 8
  22709696.455    22709701.965     9036883.257 8   8809652.655 9
  21581698.393    21581702.089   -11422837.459 8  -6979122.673 8
  20564675.034    20564680.530    -3819747.475 7   -926078.907 7
 86  6 19 23 53 41.0800000  0  4G 6G 8G 9G11
  20394275.256    20394279.130    -4330693.453 8  -1395295.112 7
  22713555.385    22713559.713     9057160.493 8   8825453.091 7
  21578677.834    21578680.925   -11438711.130 8  -6991491.771 8
  20565058.778    20565063.229    -3817733.912 7   -924509.887 7
 86  6 19 23 53 47.0800000  0  4G 6G 8G 9G11
  20394074.812    20394079.999    -4331742.082 8  -1396112.219 7
  22717416.146    22717420.548     9077446.530 9   8841260.394 8
  21575657.074    21575661.887   -11454576.041 9  -7003854.034 8
  20565446.072    20565450.851    -3815698.662 8   -922923.990 8
 86  6 19 23 53 53.0800000  0  4G 6G 8G 9G11
  20393879.839    20393884.879    -4332771.901 8  -1396914.676 8
  22721277.861    22721282.964     9097741.457 8   8857074.615 8
  21572641.071    21572645.502   -11470432.069 8  -7016209.382 7
  20565838.686    20565842.393    -3813641.616 8   -921321.091 7
 86  6 19 23 53 59.0800000  0  4G 6G 8G 9G11
  20393687.237    20393691.106    -4333782.846 9  -1397702.427 8
  22725140.614    22725146.633     9118045.207 9   8872895.712 8
  21569624.753    21569630.298   -11486279.292 9  -7028557.845 8
  20566233.077    20566238.286    -3811562.747 8   -919701.194 8
 86  6 19 23 54  5.0800000  0  4G 6G 8G 9G11
  20393498.836    20393502.257    -4334774.853 8  -1398475.421 7
  22729006.292    22729012.022     9138357.848 8   8888723.733 8
  21566610.728    21566614.943   -11502117.574 8  -7040899.347 8
  20566631.644    20566636.981    -3809462.027 8   -918064.267 7
 86  6 19 23 54 11.0800000  0  4G 6G 8G 9G11
  20393314.232    20393316.859    -4335747.908 8  -1399233.647 7
  22732873.507    22732879.196     9158679.325 8   8904558.642 8
  21563599.609    21563603.402   -11517946.916 7  -7053233.899 8
  20567037.337    20567041.558    -3807339.466 7   -916410.324 8
 86  6 19 23 54 17.0800000  0  4G 6G 8G 9G11
  20393133.119    20393136.046    -4336702.012 8  -1399977.095 8
  22736741.127    22736747.150     9179009.648 8   8920400.466 8
  21560588.006    21560592.475   -11533767.246 8  -7065561.414 8
  20567444.976    20567450.045    -3805195.035 7   -914739.333 7
 86  6 19 23 54 23.0800000  0  4G 6G 8G 9G11
  20392954.661    20392957.185    -4337637.150 8  -1400705.767 7
  22740611.493    22740617.617     9199348.785 8   8936249.126 8
  21557579.911    21557584.053   -11549578.547 8  -7077881.910 8
  20567855.822    20567862.361    -3803028.786 7   -913051.342 8
 86  6 19 23 54 29.0800000  0  4G 6G 8G 9G11
  20392779.745    20392782.622    -4338553.280 9  -1401419.639 7
  22744485.327    22744490.234     9219696.696 8   8952104.630 8
  21554572.735    21554575.089   -11565380.837 9  -7090195.365 7
  20568272.706    20568279.574    -3800840.701 7   -911346.341 7
 86  6 19 23 54 35.0800000  0  4G 6G 8G 9G11
  20392608.502    20392613.165    -4339450.419 9  -1402118.711 7
  22748358.294    22748364.205     9240053.405 8   8967966.998 8
  21551567.747    21551569.629   -11581174.014 8  -7102501.736 7
  20568693.653    20568699.892    -3798630.822 8   -909624.363 8
 86  6 19 23 54 41.0800000  0  4G 6G 8G 9G11
  20392441.940    20392445.189    -4340328.560 8  -1402802.979 8
  22752234.523    22752238.669     9260418.811 8   8983836.132 8
  21548563.725    21548567.808   -11596958.080 8  -7114801.004 7
  20569117.836    20569124.777    -3796399.155 7   -907885.392 7
 86  6 19 23 54 47.0800000  0  4G 6G 8G 9G11
  20392278.927    20392281.833    -4341187.697 9  -1403472.428 7
  22756110.634    22756116.652     9280792.924 8   8999712.075 9
  21545562.248    21545565.878   -11612733.104 9  -7127093.215 7
  20569548.141    20569553.363    -3794145.780 8   -906129.505 8
 86  6 19 23 54 53.0800000  0  4G 6G 8G 9G11
  20392118.750    20392122.569    -4342027.824 8  -1404127.072 8
  22759989.803    22759994.633     9301175.696 8   9015594.739 9
  21542560.182    21542565.511   -11628499.023 8  -7139378.352 8
  20569981.021    20569985.948    -3791870.575 8   -904356.621 8
 86  6 19 23 54 59.0800000  0  4G 6G 8G 9G11
  20391963.005    20391965.483    -4342848.939 9  -1404766.897 9
  22763871.016    22763875.601     9321567.074 8   9031484.116 9
  21539562.234    21539566.971   -11644255.877 8  -7151656.403 7
  20570418.225    20570422.804    -3789573.609 8   -902566.779 8
 86  6 19 23 55  5.0800000  0  4G 6G 8G 9G11
  20391810.244    20391814.252    -4343651.057 8  -1405391.921 8
  22767751.853    22767757.201     9341967.028 8   9047380.182 8
  21536565.989    21536569.400   -11660003.645 8  -7163927.387 8
  20570859.576    20570864.027    -3787255.012 7   -900760.097 7
 86  6 19 23 55 11.0800000  0  4G 6G 8G 9G11
  20391660.869    20391664.538    -4344434.111 8  -1406002.099 8
  22771636.328    22771641.228     9362375.516 8   9063282.898 8
  21533571.016    21533574.871   -11675742.254 8  -7176191.217 8
  20571305.338    20571310.590    -3784914.771 8   -898936.522 7
 86  6 19 23 55 17.0800000  0  4G 6G 8G 9G11
  20391515.570    20391519.060    -4345198.153 8  -1406597.447 8
  22775521.607    22775525.131     9382792.494 8   9079192.230 8
  21530578.562    21530581.340   -11691471.736 9  -7188447.959 8
  20571752.985    20571759.052    -3782552.889 8   -897096.069 8
 86  6 19 23 55 23.0800000  0  4G 6G 8G 9G11
  20391374.281    20391377.852    -4345943.134 8  -1407177.951 8
  22779407.507    22779413.495     9403218.013 8   9095108.209 8
  21527585.926    21527590.002   -11707191.924 8  -7200697.460 7
  20572207.445    20572213.384    -3780169.313 7   -895238.756 8
 86  6 19 23 55 29.0800000  0  4G 6G 8G 9G11
  20391236.070    20391239.555    -4346668.977 8  -1407743.551 7
  22783296.113    22783302.288     9423652.066 8   9111030.842 8
  21524596.413    21524602.308   -11722902.973 8  -7212939.797 8
  20572665.225    20572670.619    -3777764.070 8   -893364.532 8
 86  6 19 23 55 35.0800000  0  4G 6G 8G 9G11
  20391101.535    20391105.134    -4347375.737 8  -1408294.269 7
  22787185.446    22787190.848     9444094.563 8   9126960.060 8
  21521608.870    21521612.301   -11738604.722 7  -7225174.916 8
  20573126.439    20573133.208    -3775337.133 8   -891473.415 8
 86  6 19 23 55 41.0800000  0  4G 6G 8G 9G11
  20390970.785    20390973.727    -4348063.400 8  -1408830.091 7
  22791078.600    22791083.016     9464545.508 8   9142895.856 8
  21518622.289    21518626.947   -11754297.175 8  -7237402.803 8
  20573592.119    20573597.797    -3772888.532 8   -889565.412 8
 86  6 19 23 55 47.0800000  0  4G 6G 8G 9G11
  20390843.773    20390846.733    -4348731.942 8  -1409351.050 7
  22794972.123    22794976.693     9485004.854 8   9158838.200 8
  21515637.049    21515641.948   -11769980.451 8  -7249623.526 8
  20574064.520    20574068.324    -3770418.273 8   -887640.540 8
 86  6 19 23 55 53.0800000  0  4G 6G 8G 9G11
  20390719.172    20390723.159    -4349381.324 8  -1409857.060 8
  22798864.261    22798871.236     9505472.634 8   9174787.105 8
  21512655.678    21512659.163   -11785654.395 8  -7261836.984 8
  20574537.237    20574543.848    -3767926.440 7   -885698.854 8
 86  6 19 23 55 59.0800000  0  4G 6G 8G 9G11
  20390599.732    20390603.159    -4350011.622 8  -1410348.204 7
  22802763.626    22802767.835     9525948.701 8   9190742.484 9
  21509673.643    21509678.743   -11801319.016 8  -7274043.168 7
  20575015.136    20575021.117    -3765413.005 8   -883740.332 8
 86  6 19 23 56  5.0800000  0  4G 6G 8G 9G11
  20390484.062    20390486.286    -4350622.644 8  -1410824.324 8
  22806660.768    22806666.876     9546433.211 8   9206704.427 9
  21506694.541    21506701.028   -11816974.251 7  -7286242.058 8
  20575497.957    20575504.166    -3762877.940 7   -881764.963 9
 86  6 19 23 56 11.0800000  0  4G 6G 8G 9G11
  20390371.318    20390375.370    -4351214.487 7  -1411285.493 8
  22810561.339    22810566.599     9566925.973 7   9222672.822 9
  21503717.096    21503721.769   -11832620.064 8  -7298433.573 8
  20575983.695    20575991.421    -3760321.275 8   -879772.738 8
 86  6 19 23 56 17.0800000  0  4G 6G 8G 9G11
  20390260.988    20390264.874    -4351787.168 8  -1411731.756 7
  22814462.103    22814468.102     9587427.067 8   9238647.695 9
  21500741.499    21500746.237   -11848256.560 7  -7310617.850 8
  20576474.815    20576481.585    -3757743.062 8   -877763.734 8
 86  6 19 23 56 23.0800000  0  4G 6G 8G 9G11
  20390155.555    20390159.871    -4352340.676 8  -1412163.059 7
  22818364.284    22818369.495     9607936.371 8   9254628.953 9
  21497769.445    21497773.974   -11863883.677 8  -7322794.809 7
  20576970.055    20576975.249    -3755143.321 7   -875737.973 8
 86  6 19 23 56 29.0800000  0  4G 6G 8G 9G11
  20390054.599    20390057.959    -4352875.047 8  -1412579.462 7
  22822269.509    22822274.120     9628453.859 9   9270616.603 8
  21494798.206    21494802.020   -11879501.379 8  -7334964.442 8
  20577470.448    20577474.914    -3752522.053 8   -873695.426 8
 86  6 19 23 56 35.0800000  0  4G 6G 8G 9G11
  20389957.780    20389959.739    -4353390.266 7  -1412980.928 7
  22826174.519    22826179.983     9648979.462 7   9286610.586 9
  21491827.119    21491832.632   -11895109.689 8  -7347126.744 8
  20577970.670    20577977.408    -3749879.317 7   -871636.151 8
 86  6 19 23 56 41.0800000  0  4G 6G 8G 9G11
  20389862.239    20389865.311    -4353886.285 8  -1413367.428 8
  22830082.073    22830087.158     9669513.191 7   9302610.876 8
  21488858.196    21488862.469   -11910708.576 8  -7359281.741 8
  20578479.274    20578484.012    -3747215.093 8   -869560.126 9
 86  6 19 23 56 47.0800000  0  4G 6G 8G 9G11
  20389771.792    20389775.684    -4354363.026 9  -1413738.924 8
  22833991.733    22833996.850     9690055.108 8   9318617.568 9
  21485891.841    21485896.257   -11926297.922 8  -7371429.253 8
  20578989.254    20578994.849    -3744529.384 7   -867467.358 8
 86  6 19 23 56 53.0800000  0  4G 6G 8G 9G11
  20389683.168    20389688.271    -4354820.466 7  -1414095.371 6
  22837901.370    22837906.671     9710605.172 7   9334630.596 9
  21482927.627    21482931.128   -11941877.717 8  -7383569.351 8
  20579503.957    20579510.753    -3741822.114 7   -865357.805 7
 86  6 19 23 56 59.0800000  0  4G 6G 8G 9G11
  20389601.758    20389603.580    -4355258.562 8  -1414436.740 7
  22841813.666    22841818.851     9731163.431 8   9350650.015 8
  21479963.015    21479968.666   -11957447.924 9  -7395701.968 9
  20580023.010    20580030.347    -3739093.280 8   -863231.456 8
 86  6 19 23 57  5.0800000  0  4G 6G 8G 9G11
  20389520.043    20389524.954    -4355677.313 8  -1414763.035 8
  22845728.096    22845733.258     9751729.814 7   9366675.749 8
  21477001.592    21477008.658   -11973008.562 8  -7407827.128 9
  20580547.637    20580553.477    -3736342.932 8   -861088.300 7
 86  6 19 23 57 11.0800000  0  4G 6G 8G 9G11
  20389444.458    20389447.804    -4356076.776 8  -1415074.304 8
  22849642.629    22849648.016     9772304.280 7   9382707.802 7
  21474043.922    21474048.416   -11988559.579 8  -7419944.791 7
  20581074.103    20581081.158    -3733571.035 7   -858928.375 8
 86  6 19 23 57 17.0800000  0  4G 6G 8G 9G11
  20389373.068    20389377.469    -4356456.882 8  -1415370.494 7
  22853560.589    22853564.460     9792886.756 7   9398746.098 8
  21471087.829    21471091.135   -12004100.962 8  -7432054.954 9
  20581605.114    20581612.055    -3730777.678 8   -856751.751 7
 86  6 19 23 57 23.0800000  0  4G 6G 8G 9G11
  20389303.554    20389307.818    -4356817.758 8  -1415651.697 8
  22857478.082    22857482.777     9813477.188 7   9414790.576 9
  21468130.779    21468135.506   -12019632.813 7  -7444157.680 8
  20582141.537    20582147.720    -3727962.971 7   -854558.465 8
 86  6 19 23 57 29.0800000  0  4G 6G 8G 9G11
  20389239.214    20389242.394    -4357159.370 8  -1415917.884 7
  22861397.091    22861402.674     9834075.552 7   9430841.243 8
  21465176.081    21465181.442   -12035155.092 8  -7456252.962 8
  20582681.510    20582687.192    -3725126.889 8   -852348.529 8
 86  6 19 23 57 35.0800000  0  4G 6G 8G 9G11
  20389177.376    20389181.925    -4357481.649 9  -1416169.000 8
  22865317.974    22865322.846     9854681.787 8   9446898.039 8
  21462225.818    21462229.818   -12050667.729 8  -7468340.722 9
  20583224.916    20583230.280    -3722269.439 8   -850121.946 7
 86  6 19 23 57 41.0800000  0  4G 6G 8G 9G11
  20389119.325    20389124.495    -4357784.626 8  -1416405.098 8
  22869242.241    22869246.531     9875295.880 7   9462960.959 8
  21459274.504    21459280.148   -12066170.743 8  -7480421.003 8
  20583772.529    20583778.681    -3719390.643 8   -847878.731 7
 86  6 19 23 57 47.0800000  0  4G 6G 8G 9G11
  20389066.321    20389071.480    -4358068.289 8  -1416626.139 7
  22873165.148    22873170.980     9895917.837 7   9479030.012 7
  21456327.491    21456330.815   -12081664.132 8  -7492493.765 7
  20584325.178    20584330.973    -3716490.502 8   -845618.874 8
 86  6 19 23 57 53.0800000  0  4G 6G 8G 9G11
  20389015.918    20389019.778    -4358332.593 9  -1416832.086 8
  22877090.366    22877096.403     9916547.608 8   9495105.151 8
  21453381.433    21453386.635   -12097147.759 7  -7504558.912 9
  20584881.119    20584886.268    -3713569.038 8   -843342.404 8
 86  6 19 23 57 59.0800000  0  4G 6G 8G 9G11
  20388969.352    20388974.019    -4358577.549 8  -1417022.961 8
  22881019.377    22881024.458     9937185.192 7   9511186.365 9
  21450435.059    21450440.876   -12112621.722 8  -7516616.546 8
  20585439.947    20585446.816    -3710626.284 8   -841049.346 7
 86  6 19 23 58  5.0800000  0  4G 6G 8G 9G11
  20388926.327    20388930.330    -4358803.094 8  -1417198.710 7
  22884946.278    22884952.602     9957830.615 8   9527273.700 8
  21447492.215    21447499.468   -12128085.879 8  -7528666.523 8
  20586005.590    20586010.200    -3707662.162 9   -838739.641 8
 86  6 19 23 58 11.0800000  0  4G 6G 8G 9G11
  20388887.663    20388890.533    -4359009.120 7  -1417359.254 7
  22888877.630    22888882.218     9978483.880 7   9543367.153 9
  21444550.672    21444557.220   -12143540.130 8  -7540708.786 8
  20586571.891    20586577.756    -3704676.648 8   -836413.276 8
 86  6 19 23 58 17.0800000  0  4G 6G 8G 9G11
  20388851.865    20388854.702    -4359195.610 8  -1417504.558 7
  22892809.076    22892814.317     9999145.020 8   9559466.749 8
  21441612.115    21441617.711   -12158984.506 9  -7552743.374 8
  20587145.261    20587150.268    -3701669.688 7   -834070.187 8
 86  6 19 23 58 23.0800000  0  4G 6G 8G 9G11
  20388819.672    20388823.711    -4359362.604 8  -1417634.688 8
  22896741.978    22896746.852    10019813.978 7   9575572.409 8
  21438674.962    21438680.522   -12174418.980 8  -7564770.221 8
  20587721.746    20587726.243    -3698641.322 8   -831710.418 8
 86  6 19 23 58 29.0800000  0  4G 6G 8G 9G11
  20388792.335    20388796.387    -4359510.104 8  -1417749.615 7
  22900676.688    22900681.269    10040490.712 9   9591684.147 8
  21435739.882    21435745.735   -12189843.508 8  -7576789.331 8
  20588302.788    20588308.395    -3695591.556 9   -829333.974 8
 86  6 19 23 58 35.0800000  0  4G 6G 8G 9G11
  20388767.727    20388771.683    -4359638.089 8  -1417849.359 8
  22904613.142    22904618.294    10061175.144 8   9607801.863 8
  21432807.469    21432812.406   -12205258.104 9  -7588800.684 8
  20588886.172    20588892.312    -3692520.478 7   -826940.925 8
 86  6 19 23 58 41.0800000  0  4G 6G 8G 9G11
  20388746.094    20388751.042    -4359746.550 8  -1417933.867 7
  22908550.509    22908556.072    10081867.255 7   9623925.594 8
  21429875.859    21429880.854   -12220662.811 8  -7600804.356 9
  20589474.567    20589479.788    -3689428.119 8   -824531.284 9
 86  6 19 23 58 47.0800000  0  4G 6G 8G 9G11
  20388730.549    20388734.549    -4359835.540 8  -1418003.222 8
  22912489.612    22912494.339    10102567.002 7   9640055.261 8
  21426945.851    21426951.167   -12236057.643 9  -7612800.314 8
  20590067.196    20590072.502    -3686314.563 9   -822105.149 7
 86  6 19 23 58 53.0800000  0  4G 6G 8G 9G11
  20388716.481    20388720.456    -4359905.121 9  -1418057.437 8
  22916431.027    22916435.449    10123274.278 7   9656190.796 8
  21424018.299    21424023.193   -12251442.527 8  -7624788.535 8
  20590664.317    20590669.439    -3683179.848 8   -819662.502 8
 86  6 19 23 58 59.0800000  0  4G 6G 8G 9G11
  20388707.632    20388710.488    -4359955.175 9  -1418096.432 8
  22920372.886    22920377.528    10143989.138 7   9672332.244 8
  21421093.771    21421098.086   -12266817.466 9  -7636769.000 8
  20591264.818    20591270.627    -3680023.844 8   -817203.297 8
 86  6 19 23 59  5.0800000  0  4G 6G 8G 9G11
  20388701.447    20388705.318    -4359985.687 8  -1418120.207 8
  22924315.599    22924320.689    10164711.536 9   9688479.559 9
  21418169.286    21418174.495   -12282182.446 8  -7648741.714 9
  20591869.897    20591874.575    -3676846.657 8   -814727.565 8
 86  6 19 23 59 11.0800000  0  4G 6G 8G 9G11
  20388699.431    20388704.101    -4359996.729 7  -1418128.814 7
  22928260.932    22928265.402    10185441.433 7   9704632.712 8
  21415247.078    21415252.515   -12297537.433 8  -7660706.638 8
  20592477.034    20592482.988    -3673648.287 8   -812235.341 8
 86  6 19 23 59 17.0800000  0  4G 6G 8G 9G11
  20388700.127    20388704.733    -4359988.221 9  -1418122.199 8
  22932205.260    22932210.351    10206178.844 8   9720791.725 7
  21412326.858    21412332.789   -12312882.393 8  -7672663.741 8
  20593090.726    20593095.390    -3670428.726 7   -809726.581 8
 86  6 19 23 59 23.0800000  0  4G 6G 8G 9G11
  20388705.641    20388709.433    -4359960.134 8  -1418100.310 7
  22936154.028    22936158.418    10226923.727 7   9736956.578 8
  21409408.399    21409414.028   -12328217.343 8  -7684613.042 7
  20593706.793    20593712.962    -3667187.968 8   -807201.303 8
 86  6 19 23 59 29.0800000  0  4G 6G 8G 9G11
  20388715.620    20388719.313    -4359912.472 8  -1418063.165 8
  22940103.132    22940108.052    10247676.108 8   9753127.258 8
  21406491.734    21406498.437   -12343542.189 9  -7696554.471 9
  20594328.240    20594333.378    -3663926.022 8   -804659.538 9
 86  6 19 23 59 35.0800000  0  4G 6G 8G 9G11
  20388728.482    20388732.028    -4359845.123 9  -1418010.692 8
  22944053.945    22944057.618    10268436.022 8   9769303.807 8
  21403578.903    21403584.454   -12358856.773 8  -7708487.906 8
  20594953.523    20594957.733    -3660642.839 8   -802101.206 8
 86  6 19 23 59 41.0800000  0  4G 6G 8G 9G11
  20388745.968    20388748.415    -4359758.138 8  -1417942.913 7
  22948006.561    22948010.956    10289203.396 7   9785486.172 8
  21400665.982    21400669.726   -12374161.241 8  -7720413.458 9
  20595582.356    20595586.835    -3657338.434 8   -799526.346 8
 86  6 19 23 59 47.0800000  0  4G 6G 8G 9G11
  20388763.924    20388768.465    -4359651.506 8  -1417859.822 7
  22951959.788    22951962.962    10309978.154 8   9801674.283 8
  21397756.716    21397761.060   -12389455.498 8  -7732331.070 8
  20596214.820    20596219.327    -3654012.937 7   -796935.023 8
 86  6 19 23 59 53.0800000  0  4G 6G 8G 9G11
  20388789.414    20388792.371    -4359525.122 8  -1417761.345 7
  22955913.534    22955916.678    10330760.398 8   9817868.253 8
  21394847.407    21394852.043   -12404739.444 8  -7744240.624 8
  20596851.493    20596855.459    -3650666.186 8   -794327.179 8
 86  6 19 23 59 59.0800000  0  4G 6G 8G 9G11
  20388817.992    20388821.551    -4359379.058 9  -1417647.526 8
  22959869.106    22959874.593    10351550.025 8   9834067.949 8
  21391940.430    21391945.745   -12420013.274 9  -7756142.304 8
  20597492.948    20597497.340    -3647298.260 9   -791702.827 8
 86  6 20  0  0  5.0800000  0  4G 6G 8G 9G11
  20388849.961    20388852.001    -4359213.249 8  -1417518.329 8
  22963826.274    22963831.839    10372347.065 7   9850273.427 7
  21389035.912    21389041.094   -12435276.768 8  -7768035.933 8
  20598137.233    20598142.268    -3643909.206 8   -789061.998 9
 86  6 20  0  0 11.0800000  0  4G 6G 8G 9G11
  20388884.100    20388887.679    -4359027.720 7  -1417373.760 7
  22967786.056    22967790.417    10393151.416 7   9866484.601 7
  21386133.143    21386139.326   -12450530.012 8  -7779921.573 8
  20598785.152    20598792.220    -3640498.996 7   -786404.690 8
 86  6 20  0  0 17.0800000  0  4G 6G 8G 9G11
  20388922.442    20388927.905    -4358822.515 8  -1417213.862 8
  22971746.791    22971750.411    10413962.992 7   9882701.404 8
  21383233.613    21383238.871   -12465772.904 8  -7791799.147 8
  20599439.253    20599444.418    -3637067.689 7   -783730.943 8
 86  6 20  0  0 23.0800000  0  4G 6G 8G 9G11
  20388966.076    20388969.085    -4358597.672 7  -1417038.663 8
  22975707.547    22975712.256    10434781.802 8   9898923.852 8
  21380334.092    21380339.666   -12481005.605 9  -7803668.776 8
  20600094.328    20600100.282    -3633615.351 8   -781040.794 8
 86  6 20  0  0 29.0800000  0  4G 6G 8G 9G11
  20389011.830    20389015.894    -4358353.155 8  -1416848.118 8
  22979671.578    22979675.799    10455607.776 7   9915151.886 8
  21377437.746    21377443.649   -12496228.089 9  -7815530.445 9
  20600756.186    20600762.110    -3630141.929 8   -778334.239 9
 86  6 20  0  0 35.0800000  0  4G 6G 8G 9G11
  20389062.411    20389065.331    -4358088.945 8  -1416642.250 7
  22983635.465    22983639.700    10476440.945 8   9931385.511 8
  21374542.689    21374548.126   -12511440.270 9  -7827384.084 9
  20601421.504    20601428.203    -3626647.488 8   -775611.290 8
 86  6 20  0  0 41.0800000  0  4G 6G 8G 9G11
  20389116.446    20389120.723    -4357804.975 8  -1416420.981 7
  22987600.594    22987606.057    10497281.258 7   9947624.705 9
  21371649.866    21371655.609   -12526642.022 8  -7839229.595 8
  20602090.889    20602096.313    -3623132.009 8   -772871.951 8
 86  6 20  0  0 47.0800000  0  4G 6G 8G 9G11
  20389175.194    20389176.783    -4357501.290 8  -1416184.345 8
  22991569.116    22991573.268    10518128.716 7   9963869.461 8
  21368759.581    21368764.115   -12541833.465 8  -7851067.071 8
  20602763.219    20602769.573    -3619595.520 8   -770116.251 8
 86  6 20  0  0 53.0800000  0  4G 6G 8G 9G11
  20389236.024    20389238.925    -4357177.832 9  -1415932.300 8
  22995537.074    22995542.645    10538983.294 7   9980119.780 8
  21365870.754    21365876.384   -12557014.518 8  -7862896.457 8
  20603441.216    20603446.226    -3616037.997 8   -767344.147 7
 86  6 20  0  0 59.0800000  0  4G 6G 8G 9G11
  20389300.742    20389303.550    -4356834.580 8  -1415664.821 7
  22999506.963    22999511.734    10559845.037 7   9996375.671 7
  21362982.179    21362988.724   -12572185.042 9  -7874717.642 8
  20604121.246    20604127.431    -3612459.438 8   -764555.666 8
 86  6 20  0  1  5.0800000  0  4G 6G 8G 9G11
  20389370.119    20389373.924    -4356471.428 8  -1415381.854 7
  23003478.611    23003482.647    10580713.877 8  10012637.107 7
  21360099.012    21360104.806   -12587345.067 7  -7886530.638 9
  20604806.486    20604811.951    -3608859.859 8   -761750.802 8
 86  6 20  0  1 11.0800000  0  4G 6G 8G 9G11
  20389442.422    20389445.323    -4356088.472 8  -1415083.445 7
  23007450.646    23007456.096    10601589.819 8  10028904.062 7
  21357215.299    21357221.484   -12602494.570 8  -7898335.448 8
  20605495.706    20605501.314    -3605239.255 7   -758929.541 8
 86  6 20  0  1 17.0800000  0  4G 6G 8G 9G11
  20389520.067    20389523.829    -4355685.695 8  -1414769.587 7
  23011425.053    23011428.945    10622472.834 8  10045176.548 8
  21354335.448    21354339.933   -12617633.575 8  -7910132.067 8
  20606187.809    20606194.391    -3601597.608 8   -756091.898 8
 86  6 20  0  1 23.0800000  0  4G 6G 8G 9G11
  20389600.141    20389604.952    -4355262.962 9  -1414440.208 8
  23015399.749    23015404.967    10643362.915 9  10061454.515 8
  21351455.306    21351461.526   -12632762.004 9  -7921920.452 8
  20606885.609    20606891.333    -3597934.929 8   -753237.861 9
 86  6 20  0  1 29.0800000  0  4G 6G 8G 9G11
  20389683.374    20389687.045    -4354820.374 7  -1414095.319 8
  23019376.839    23019382.165    10664260.025 8  10077737.975 8
  21348579.002    21348585.433   -12647879.751 8  -7933700.499 8
  20607586.876    20607591.112    -3594251.265 7   -750367.475 8
 86  6 20  0  1 35.0800000  0  4G 6G 8G 9G11
  20389772.202    20389776.327    -4354357.921 8  -1413734.966 8
  23023354.500    23023359.959    10685164.150 9  10094026.888 9
  21345705.493    21345709.086   -12662986.989 8  -7945472.359 8
  20608291.488    20608297.642    -3590546.673 8   -747480.781 8
 86  6 20  0  1 41.0800000  0  4G 6G 8G 9G11
  20389865.701    20389866.088    -4353875.688 8  -1413359.181 7
  23027334.589    23027338.391    10706075.110 9  10110321.158 8
  21342832.316    21342836.794   -12678083.684 9  -7957236.027 9
  20609000.737    20609007.190    -3586821.262 7   -744577.852 9
 86  6 20  0  1 47.0800000  0  4G 6G 8G 9G11
  20389959.455    20389962.912    -4353373.637 8  -1412968.000 7
  23031315.522    23031319.984    10726992.842 9  10126620.677 8
  21339961.434    21339966.272   -12693169.858 9  -7968991.471 8
  20609713.019    20609719.345    -3583075.115 8   -741658.776 8
 86  6 20  0  1 53.0800000  0  4G 6G 8G 9G11
  20390059.101    20390063.327    -4352851.761 8  -1412561.339 7
  23035296.752    23035300.746    10747917.420 8  10142925.544 9
  21337092.019    21337097.821   -12708245.479 9  -7980738.709 8
  20610430.139    20610435.963    -3579308.206 8   -738723.526 8
 86  6 20  0  1 59.0800000  0  4G 6G 8G 9G11
  20390162.073    20390165.768    -4352310.130 8  -1412139.289 8
  23039278.641    23039283.640    10768848.715 8  10159235.633 8
  21334225.938    21334231.018   -12723310.589 8  -7992477.744 9
  20611151.037    20611155.273    -3575520.506 8   -735772.070 9
 86  6 20  0  2  5.0800000  0  4G 6G 8G 9G11
  20390267.799    20390272.512    -4351748.715 8  -1411701.837 8
  23043264.073    23043268.248    10789786.710 8  10175550.955 8
  21331360.864    21331366.195   -12738365.099 9  -8004208.524 9
  20611875.653    20611880.906    -3571712.004 8   -732804.410 8
 86  6 20  0  2 11.0800000  0  4G 6G 8G 9G11
  20390379.084    20390382.359    -4351167.469 7  -1411248.897 7
  23047249.723    23047253.930    10810731.446 9  10191871.509 8
  21328497.875    21328501.864   -12753409.020 8  -8015931.051 9
  20612605.106    20612610.256    -3567882.738 8   -729820.574 8
 86  6 20  0  2 17.0800000  0  4G 6G 8G 9G11
  20390494.301    20390497.030    -4350566.395 8  -1410780.531 8
  23051236.337    23051241.605    10831682.892 9  10208197.314 9
  21325637.937    21325641.823   -12768442.229 8  -8027645.232 8
  20613336.995    20613342.514    -3564032.734 8   -726820.566 8
 86  6 20  0  2 23.0800000  0  4G 6G 8G 9G11
  20390612.324    20390615.422    -4349945.335 8  -1410296.594 8
  23055225.286    23055229.894    10852641.134 9  10224528.407 8
  21322778.453    21322782.612   -12783464.808 9  -8039351.136 7
  20614073.628    20614079.038    -3560161.919 9   -723804.344 8
 86  6 20  0  2 29.0800000  0  4G 6G 8G 9G11
  20390734.432    20390738.283    -4349304.252 8  -1409797.055 7
  23059213.708    23059219.453    10873606.096 9  10240864.742 8
  21319922.004    21319927.005   -12798476.546 9  -8051048.585 8
  20614814.359    20614818.638    -3556270.256 9   -720771.883 8
 86  6 20  0  2 35.0800000  0  4G 6G 8G 9G11
  20390859.374    20390862.949    -4348643.130 8  -1409281.888 8
  23063204.431    23063210.290    10894577.844 8  10257206.353 9
  21317067.727    21317071.969   -12813477.424 9  -8062737.573 8
  20615560.039    20615563.818    -3552357.705 8   -717723.144 8
 86  6 20  0  2 41.0800000  0  4G 6G 8G 9G11
  20390988.608    20390993.053    -4347962.047 8  -1408751.171 7
  23067197.870    23067202.076    10915556.327 9  10273553.222 8
  21314216.105    21314219.008   -12828467.392 8  -8074418.059 8
  20616307.466    20616312.959    -3548424.286 8   -714658.139 8
 86  6 20  0  2 47.0800000  0  4G 6G 8G 9G11
  20391121.559    20391127.209    -4347260.859 8  -1408204.804 8
  23071190.105    23071195.862    10936541.537 8  10289905.329 8
  21311365.672    21311369.111   -12843446.449 8  -8086090.055 8
  20617060.158    20617065.609    -3544470.004 8   -711576.894 8
 86  6 20  0  2 53.0800000  0  4G 6G 8G 9G11
  20391260.159    20391263.895    -4346539.530 8  -1407642.722 8
  23075184.859    23075190.109    10957533.533 8  10306262.725 8
  21308517.260    21308520.459   -12858414.564 8  -8097753.503 8
  20617816.742    20617821.964    -3540494.868 9   -708479.387 8
 86  6 20  0  2 59.0800000  0  4G 6G 8G 9G11
  20391401.457    20391404.376    -4345798.126 8  -1407065.011 7
  23079180.874    23079185.691    10978532.214 8  10322625.321 9
  21305669.818    21305674.462   -12873371.757 9  -8109408.453 8
  20618576.217    20618582.855    -3536498.930 8   -705365.668 8
 86  6 20  0  3  5.0800000  0  4G 6G 8G 9G11
  20391546.801    20391550.160    -4345036.678 8  -1406471.698 7
  23083178.903    23083182.792    10999537.480 8  10338993.065 9
  21302825.509    21302830.023   -12888317.938 8  -8121054.824 8
  20619341.154    20619346.280    -3532482.219 8   -702235.753 8
 86  6 20  0  3 11.0800000  0  4G 6G 8G 9G11
  20391694.967    20391698.729    -4344255.223 8  -1405862.763 8
  23087175.857    23087180.812    11020549.307 9  10355365.889 8
  21299983.539    21299987.531   -12903253.203 8  -8132692.689 8
  20620110.618    20620114.768    -3528444.874 8   -699089.775 8
 86  6 20  0  3 17.0800000  0  4G 6G 8G 9G11
  20391847.294    20391851.503    -4343453.782 8  -1405238.261 8
  23091177.062    23091181.308    11041567.600 8  10371743.785 8
  21297143.858    21297148.086   -12918177.582 8  -8144322.058 7
  20620882.342    20620886.977    -3524386.879 8   -695927.683 8
 86  6 20  0  3 23.0800000  0  4G 6G 8G 9G11
  20392003.760    20392007.693    -4342632.394 8  -1404598.212 7
  23095177.105    23095182.470    11062592.319 8  10388126.677 9
  21294305.542    21294309.657   -12933091.189 9  -8155943.044 8
  20621657.527    20621662.363    -3520308.290 8   -692749.578 8
 86  6 20  0  3 29.0800000  0  4G 6G 8G 9G11
  20392164.392    20392168.880    -4341791.046 7  -1403942.624 7
  23099179.638    23099183.367    11083623.343 8  10404514.477 8
  21291470.219    21291473.548   -12947993.985 8  -8167555.609 8
  20622438.981    20622442.915    -3516209.210 8   -689555.490 8
 86  6 20  0  3 35.0800000  0  4G 6G 8G 9G11
  20392327.691    20392332.120    -4340929.772 8  -1403271.518 8
  23103182.177    23103187.542    11104660.687 8  10420907.208 8
  21288635.912    21288639.938   -12962885.842 9  -8179159.644 8
  20623222.009    20623226.528    -3512089.603 8   -686345.412 9
 86  6 20  0  3 41.0800000  0  4G 6G 8G 9G11
  20392495.904    20392499.535    -4340048.499 8  -1402584.802 8
  23107186.114    23107191.062    11125704.429 8  10437304.909 8
  21285804.852    21285808.452   -12977766.751 9  -8190755.154 7
  20624010.815    20624014.681    -3507949.429 8   -683119.306 8
 86  6 20  0  3 47.0800000  0  4G 6G 8G 9G11
  20392666.155    20392670.582    -4339147.172 8  -1401882.473 7
  23111192.455    23111196.977    11146754.500 8  10453707.579 8
  21282975.768    21282979.095   -12992636.643 8  -8202342.073 8
  20624802.485    20624807.665    -3503788.712 8   -679877.170 8
 86  6 20  0  3 53.0800000  0  4G 6G 8G 9G11
  20392842.495    20392846.810    -4338225.792 7  -1401164.506 8
  23115199.735    23115203.858    11167810.954 8  10470115.181 9
  21280146.997    21280150.095   -13007495.504 9  -8213920.401 8
  20625596.617    20625602.198    -3499607.421 8   -676619.028 8
 86  6 20  0  3 59.0800000  0  4G 6G 8G 9G11
  20393022.407    20393025.122    -4337284.193 8  -1400430.796 7
  23119206.768    23119213.107    11188873.799 8  10486527.796 8
  21277321.096    21277325.172   -13022343.216 8  -8225490.035 8
  20626397.472    20626402.011    -3495405.563 8   -673344.852 8
 86  6 20  0  4  5.0800000  0  4G 6G 8G 9G11
  20393204.562    20393206.959    -4336322.363 8  -1399681.320 8
  23123217.091    23123221.767    11209943.100 8  10502945.417 8
  21274499.072    21274502.263   -13037179.678 8  -8237050.920 8
  20627201.020    20627205.385    -3491183.014 9   -670054.554 8
 86  6 20  0  4 11.0800000  0  4G 6G 8G 9G11
  20393391.692    20393395.483    -4335340.309 8  -1398916.086 7
  23127227.258    23127231.926    11231018.787 9  10519368.018 9
  21271676.918    21271681.857   -13052004.929 8  -8248603.045 8
  20628006.944    20628011.922    -3486939.812 8   -666748.163 8
 86  6 20  0  4 17.0800000  0  4G 6G 8G 9G11
  20393581.937    20393586.646    -4334337.977 9  -1398135.044 8
  23131238.820    23131244.322    11252100.879 8  10535795.617 8
  21268857.867    21268862.316   -13066818.868 8  -8260146.370 9
  20628819.362    20628823.911    -3482675.924 8   -663425.649 8
 86  6 20  0  4 23.0800000  0  4G 6G 8G 9G11
  20393776.387    20393780.566    -4333315.408 7  -1397338.237 8
  23135252.819    23135257.384    11273189.329 8  10552228.161 8
  21266041.438    21266044.822   -13081621.604 8  -8271680.950 8
  20629633.556    20629639.107    -3478391.368 9   -660087.033 8
 86  6 20  0  4 29.0800000  0  4G 6G 8G 9G11
  20393974.947    20393978.766    -4332272.634 8  -1396525.684 8
  23139266.752    23139270.923    11294284.034 8  10568665.593 8
  21263225.819    21263231.220   -13096412.958 9  -8283206.682 7
  20630453.213    20630459.092    -3474086.226 8   -656732.384 8
 86  6 20  0  4 35.0800000  0  4G 6G 8G 9G11
  20394177.502    20394181.928    -4331209.611 7  -1395697.362 8
  23143281.755    23143287.068    11315385.010 8  10585107.901 8
  21260414.369    21260417.559   -13111193.100 9  -8294723.662 8
  20631275.276    20631282.385    -3469760.566 8   -653361.735 8
 86  6 20  0  4 41.0800000  0  4G 6G 8G 9G11
  20394383.411    20394387.848    -4330126.388 8  -1394853.287 7
  23147298.864    23147304.083    11336492.241 8  10601555.081 9
  21257603.621    21257607.814   -13125961.984 8  -8306231.873 8
  20632104.035    20632109.141    -3465414.377 9   -649975.086 7
 86  6 20  0  4 47.0800000  0  4G 6G 8G 9G11
  20394593.829    20394596.784    -4329022.916 9  -1393993.440 8
  23151316.522    23151321.927    11357605.623 7  10618007.062 8
  21254795.034    21254799.307   -13140719.565 8  -8317731.279 8
  20632933.197    20632939.935    -3461047.693 8   -646572.477 8
 86  6 20  0  4 53.0800000  0  4G 6G 8G 9G11
  20394807.602    20394812.313    -4327899.262 8  -1393117.860 8
  23155334.216    23155339.417    11378725.103 7  10634463.798 8
  21251988.880    21251993.266   -13155465.845 8  -8329221.885 9
  20633769.280    20633774.748    -3456660.561 8   -643153.935 8
 86  6 20  0  4 59.0800000  0  4G 6G 8G 9G11
  20395025.372    20395028.448    -4326755.435 8  -1392226.585 7
  23159354.481    23159359.031    11399850.625 7  10650925.231 8
  21249185.016    21249189.787   -13170200.826 8  -8340703.685 9
  20634609.400    20634613.480    -3452253.010 8   -639719.482 8
 86  6 20  0  5  5.0800000  0  4G 6G 8G 9G11
  20395246.602    20395249.682    -4325591.372 9  -1391319.528 8
  23163375.912    23163381.953    11420982.214 7  10667391.397 9
  21246383.775    21246386.829   -13184924.666 8  -8352176.787 7
  20635450.580    20635456.505    -3447825.124 8   -636269.160 8
 86  6 20  0  5 11.0800000  0  4G 6G 8G 9G11
  20395471.845    20395475.547    -4324407.209 6  -1390396.791 6
  23167399.310    23167403.594    11442119.776 8  10683862.230 9
  21243583.782    21243586.923   -13199637.098 8  -8363641.032 9
  20636295.797    20636303.452    -3443376.873 8   -632802.991 8
 86  6 20  0  5 17.0800000  0  4G 6G 8G 9G11
  20395701.097    20395705.277    -4323202.815 8  -1389458.315 7
  23171421.243    23171427.705    11463263.332 8  10700337.707 9
  21240785.605    21240790.155   -13214338.202 9  -8375096.415 8
  20637147.820    20637153.186    -3438908.245 8   -629320.943 8
 86  6 20  0  5 23.0800000  0  4G 6G 8G 9G11
  20395933.825    20395937.372    -4321978.241 8  -1388504.097 8
  23175447.013    23175451.377    11484412.818 8  10716817.819 8
  21237991.679    21237995.399   -13229028.023 9  -8386543.025 8
  20638002.140    20638006.816    -3434419.307 9   -625823.077 9
 86  6 20  0  5 29.0800000  0  4G 6G 8G 9G11
  20396171.532    20396173.734    -4320733.498 9  -1387534.173 7
  23179471.899    23179477.073    11505568.201 8  10733302.543 9
  21235197.829    21235202.458   -13243706.458 8  -8397980.752 7
  20638859.117    20638864.939    -3429910.084 9   -622309.391 9
 86  6 20  0  5 35.0800000  0  4G 6G 8G 9G11
  20396411.631    20396415.687    -4319468.500 7  -1386548.449 7
  23183499.470    23183505.522    11526729.486 8  10749791.839 8
  21232406.835    21232410.569   -13258373.520 8  -8409409.642 7
  20639721.817    20639726.797    -3425380.531 9   -618779.872 9
 86  6 20  0  5 41.0800000  0  4G 6G 8G 9G11
  20396655.903    20396660.000    -4318183.254 8  -1385546.979 8
  23187527.552    23187532.056    11547896.640 8  10766285.716 9
  21229617.916    21229621.671   -13273029.153 8  -8420829.596 7
  20640588.438    20640593.131    -3420830.686 8   -615234.533 8
 86  6 20  0  5 47.0800000  0  4G 6G 8G 9G11
  20396904.189    20396907.613    -4316877.765 9  -1384529.711 7
  23191556.825    23191561.493    11569069.675 8  10782784.175 9
  21226830.494    21226835.163   -13287673.252 7  -8432240.580 8
  20641457.863    20641462.156    -3416260.550 8   -611673.386 8
 86  6 20  0  5 53.0800000  0  4G 6G 8G 9G11
  20397156.985    20397160.987    -4315551.939 8  -1383496.609 8
  23195586.595    23195591.625    11590248.595 8  10799287.224 9
  21224045.332    21224049.866   -13302305.904 9  -8443642.624 7
  20642330.524    20642335.833    -3411670.107 8   -608096.417 8
 86  6 20  0  5 59.0800000  0  4G 6G 8G 9G11
  20397412.436    20397416.097    -4314205.700 8  -1382447.579 7
  23199619.663    23199623.718    11611433.515 8  10815794.944 9
  21221265.032    21221267.323   -13316926.921 7  -8455035.626 8
  20643207.678    20643213.130    -3407059.244 7   -604503.532 8
 86  6 20  0  6  5.0800000  0  4G 6G 8G 9G11
  20397673.086    20397676.943    -4312839.010 7  -1381382.645 7
  23203651.628    23203655.833    11632624.347 8  10832307.279 9
  21218485.464    21218488.690   -13331536.256 8  -8466419.525 9
  20644089.611    20644094.161    -3402428.013 9   -600894.790 8
 86  6 20  0  6 11.0800000  0  4G 6G 8G 9G11
  20397937.663    20397941.550    -4311451.914 8  -1380301.794 7
  23207684.915    23207688.705    11653821.064 7  10848824.194 9
  21215706.433    21215709.033   -13346133.883 7  -8477794.287 7
  20644975.177    20644979.942    -3397776.427 8   -597270.167 8
 86  6 20  0  6 17.0800000  0  4G 6G 8G 9G11
  20398204.214    20398208.388    -4310044.356 7  -1379204.981 8
  23211718.484    23211723.723    11675023.667 8  10865345.701 8
  21212930.571    21212933.943   -13360719.855 8  -8489159.970 7
  20645864.351    20645869.831    -3393104.462 8   -593629.672 8
 86  6 20  0  6 23.0800000  0  4G 6G 8G 9G11
  20398477.154    20398479.378    -4308616.370 7  -1378092.256 8
  23215754.527    23215760.064    11696232.145 8  10881871.769 8
  21210157.521    21210161.234   -13375294.141 9  -8500516.564 8
  20646757.730    20646761.250    -3388412.123 8   -589973.313 7
 86  6 20  0  6 29.0800000  0  4G 6G 8G 9G11
  20398752.422    20398755.836    -4307167.925 8  -1376963.612 6
  23219791.997    23219796.982    11717446.425 7  10898402.386 9
  21207386.439    21207390.383   -13389856.698 9  -8511863.991 8
  20647654.113    20647659.052    -3383699.474 9   -586301.117 8
 86  6 20  0  6 35.0800000  0  4G 6G 8G 9G11
  20399031.750    20399035.858    -4305698.922 9  -1375818.934 8
  23223829.708    23223834.206    11738666.538 8  10914937.502 9
  21204615.930    21204622.645   -13404407.443 8  -8523202.226 8
  20648554.304    20648559.129    -3378966.523 9   -582613.109 8
 86  6 20  0  6 41.0800000  0  4G 6G 8G 9G11
  20399314.684    20399319.836    -4304209.439 8  -1374658.307 7
  23227869.041    23227873.930    11759892.446 6  10931477.162 9
  21201849.939    21201854.855   -13418946.317 8  -8534531.221 8
  20649458.532    20649463.638    -3374213.236 8   -578909.236 8
 86  6 20  0  6 47.0800000  0  4G 6G 8G 9G11
  20399602.051    20399606.922    -4302699.407 8  -1373481.651 7
  23231908.574    23231913.727    11781124.197 7  10948021.381 8
  21199085.749    21199090.747   -13433473.394 8  -8545851.004 7
  20650367.223    20650373.505    -3369439.596 8   -575189.530 8
 86  6 20  0  6 53.0800000  0  4G 6G 8G 9G11
  20399894.245    20399897.707    -4301168.824 8  -1372288.984 8
  23235949.985    23235955.075    11802361.669 8  10964570.060 8
  21196324.512    21196327.830   -13447988.496 8  -8557161.476 7
  20651279.290    20651285.001    -3364645.701 8   -571454.024 9
 86  6 20  0  6 59.0800000  0  4G 6G 8G 9G11
  20400188.041    20400191.389    -4299617.821 8  -1371080.407 8
  23239993.170    23239998.983    11823604.835 7  10981123.164 8
  21193563.821    21193567.672   -13462491.884 9  -8568462.805 8
  20652194.907    20652199.829    -3359831.674 8   -567702.831 8
 86  6 20  0  7  5.0800000  0  4G 6G 8G 9G11
  20400489.621    20400491.697    -4298046.385 7  -1369855.923 8
  23244036.205    23244042.240    11844853.499 7  10997680.552 8
  21190806.671    21190809.967   -13476983.529 8  -8579754.997 8
  20653115.874    20653120.082    -3354997.572 9   -563936.010 8
 86  6 20  0  7 11.0800000  0  4G 6G 8G 9G11
  20400791.225    20400792.992    -4296454.614 8  -1368615.591 8
  23248079.635    23248086.936    11866107.657 8  11014242.221 9
  21188051.486    21188054.747   -13491463.431 9  -8591038.030 8
  20654039.902    20654043.653    -3350143.384 8   -560153.523 8
 86  6 20  0  7 17.0800000  0  4G 6G 8G 9G11
  20401097.368    20401101.438    -4294842.486 8  -1367359.377 7
  23252127.063    23252131.869    11887367.293 6  11030808.160 9
  21185297.694    21185302.553   -13505931.567 7  -8602311.897 8
  20654967.312    20654972.391    -3345269.139 8   -556355.406 8
 86  6 20  0  7 23.0800000  0  4G 6G 8G 9G11
  20401408.787    20401411.102    -4293209.970 8  -1366087.291 8
  23256172.865    23256178.777    11908632.383 7  11047378.361 8
  21182546.946    21182552.032   -13520388.045 9  -8613576.671 8
  20655897.581    20655903.433    -3340374.877 8   -552541.707 8
 86  6 20  0  7 29.0800000  0  4G 6G 8G 9G11
  20401722.270    20401727.097    -4291557.052 8  -1364799.317 7
  23260218.396    23260225.505    11929902.862 7  11063952.741 9
  21179797.214    21179801.669   -13534832.641 8  -8624832.216 8
  20656833.573    20656838.265    -3335460.625 8   -548712.408 8
 86  6 20  0  7 35.0800000  0  4G 6G 8G 9G11
  20402040.131    20402043.850    -4289883.712 9  -1363495.401 8
  23264268.965    23264273.731    11951178.717 8  11080531.334 8
  21177050.642    21177056.066   -13549265.452 8  -8636078.543 8
  20657771.598    20657777.667    -3330526.408 8   -544867.573 8
 86  6 20  0  7 41.0800000  0  4G 6G 8G 9G11
  20402363.309    20402367.651    -4288189.892 8  -1362175.549 7
  23268318.711    23268324.664    11972460.049 7  11097114.165 8
  21174308.056    21174311.040   -13563686.338 8  -8647315.585 8
  20658714.859    20658719.896    -3325572.200 8   -541007.147 8
 86  6 20  0  7 47.0800000  0  4G 6G 8G 9G11
  20402690.745    20402694.009    -4286475.543 7  -1360839.705 7
  23272368.928    23272375.117    11993746.840 7  11113701.285 8
  21171565.126    21171570.157   -13578095.269 7  -8658543.322 8
  20659660.896    20659666.992    -3320597.858 9   -537131.032 8
 86  6 20  0  7 53.0800000  0  4G 6G 8G 9G11
  20403019.987    20403023.206    -4284740.681 8  -1359487.860 7
  23276421.872    23276426.757    12015039.015 7  11130292.561 9
  21168826.232    21168830.668   -13592492.164 7  -8669761.665 8
  20660611.598    20660617.110    -3315603.526 8   -533239.362 8
 86  6 20  0  7 59.0800000  0  4G 6G 8G 9G11
  20403353.219    20403358.666    -4282985.333 8  -1358120.042 7
  23280474.501    23280479.656    12036336.526 8  11146888.015 8
  21166086.867    21166092.203   -13606877.178 9  -8680970.772 8
  20661566.220    20661570.888    -3310589.245 8   -529332.118 8
 86  6 20  0  8  5.0800000  0  4G 6G 8G 9G11
  20403692.696    20403694.937    -4281209.358 8  -1356736.176 8
  23284526.933    23284533.932    12057639.460 8  11163487.682 8
  21163353.073    21163358.060   -13621250.152 8  -8692170.490 8
  20662523.765    20662528.874    -3305554.896 8   -525409.242 9
 86  6 20  0  8 11.0800000  0  4G 6G 8G 9G11
  20404034.146    20404038.247    -4279412.794 8  -1355336.262 7
  23288582.490    23288587.101    12078947.721 8  11180091.534 9
  21160619.809    21160624.432   -13635610.933 8  -8703360.697 8
  20663486.031    20663490.250    -3300500.510 8   -521470.771 8
 86  6 20  0  8 17.0800000  0  4G 6G 8G 9G11
  20404379.560    20404383.618    -4277595.721 7  -1353920.359 7
  23292639.080    23292643.680    12100261.326 7  11196699.545 8
  21157887.865    21157894.495   -13649959.767 8  -8714541.601 8
  20664451.814    20664456.220    -3295426.154 8   -517516.719 8
 86  6 20  0  8 23.0800000  0  4G 6G 8G 9G11
  20404730.075    20404733.040    -4275758.009 8  -1352488.378 7
  23296696.911    23296700.950    12121580.248 8  11213311.679 8
  21155161.560    21155165.095   -13664296.493 8  -8725713.074 8
  20665420.717    20665426.698    -3290331.826 8   -513547.110 8
 86  6 20  0  8 29.0800000  0  4G 6G 8G 9G11
  20405082.609    20405086.910    -4273899.751 9  -1351040.376 8
  23300752.552    23300758.862    12142904.431 9  11229927.914 8
  21152435.388    21152440.512   -13678620.985 8  -8736875.000 8
  20666394.257    20666399.794    -3285217.557 9   -509561.985 9
 86  6 20  0  8 35.0800000  0  4G 6G 8G 9G11
  20405440.069    20405443.672    -4272020.862 7  -1349576.309 7
  23304811.146    23304816.959    12164233.888 7  11246548.257 8
  21149712.128    21149716.814   -13692933.374 9  -8748027.520 8
  20667370.661    20667376.281    -3280083.332 8   -505561.290 7
 86  6 20  0  8 41.0800000  0  4G 6G 8G 9G11
  20405801.665    20405806.648    -4270121.315 8  -1348096.150 7
  23308871.916    23308877.783    12185568.646 7  11263172.730 9
  21146990.212    21146996.851   -13707233.608 8  -8759170.543 8
  20668351.467    20668357.520    -3274929.138 8   -501545.025 8
 86  6 20  0  8 47.0800000  0  4G 6G 8G 9G11
  20406167.351    20406172.738    -4268201.177 8  -1346599.932 7
  23312933.608    23312939.107    12206908.527 7  11279801.206 8
  21144271.521    21144277.453   -13721521.613 9  -8770304.053 8
  20669336.311    20669340.848    -3269755.082 8   -497513.292 8
 86  6 20  0  8 53.0800000  0  4G 6G 8G 9G11
  20406537.018    20406540.982    -4266260.390 8  -1345087.624 6
  23316995.301    23317000.042    12228253.621 8  11296433.750 9
  21141555.507    21141559.651   -13735797.382 8  -8781428.027 8
  20670324.420    20670331.114    -3264561.143 8   -493466.061 7
 86  6 20  0  8 59.0800000  0  4G 6G 8G 9G11
  20406908.818    20406914.755    -4264298.866 8  -1343559.181 7
  23321058.131    23321062.432    12249603.971 8  11313070.377 9
  21138840.008    21138845.440   -13750060.837 7  -8792542.405 7
  20671318.076    20671323.057    -3259347.262 8   -489403.304 9
 86  6 20  0  9  5.0800000  0  4G 6G 8G 9G11
  20407287.783    20407289.355    -4262316.667 8  -1342014.611 7
  23325121.511    23325126.748    12270959.491 7  11329711.035 7
  21136128.431    21136132.697   -13764311.965 9  -8803647.180 8
  20672312.681    20672317.573    -3254113.477 8   -485325.019 8
 86  6 20  0  9 11.0800000  0  4G 6G 8G 9G11
  20407668.481    20407672.394    -4260313.737 8  -1340453.892 8
  23329184.888    23329191.992    12292320.210 8  11346355.741 8
  21133418.834    21133423.600   -13778550.786 7  -8814742.359 8
  20673312.292    20673318.457    -3248859.798 8   -481231.252 8
 86  6 20  0  9 17.0800000  0  4G 6G 8G 9G11
  20408053.898    20408058.124    -4258290.113 8  -1338877.030 7
  23333253.540    23333257.337    12313686.002 9  11363004.403 8
  21130712.035    21130716.223   -13792777.270 8  -8825827.924 8
  20674316.654    20674321.804    -3243586.221 8   -477121.965 8
 86  6 20  0  9 23.0800000  0  4G 6G 8G 9G11
  20408443.537    20408446.151    -4256245.802 8  -1337284.071 8
  23337319.248    23337324.108    12335056.901 8  11379657.045 8
  21128007.178    21128010.927   -13806991.379 8  -8836903.836 9
  20675322.934    20675329.328    -3238292.823 8   -472997.260 8
 86  6 20  0  9 29.0800000  0  4G 6G 8G 9G11
  20408835.428    20408839.463    -4254180.794 9  -1335674.973 8
  23341386.457    23341392.050    12356432.843 8  11396313.626 8
  21125304.600    21125309.385   -13821193.176 8  -8847970.188 8
  20676334.963    20676339.757    -3232979.613 9   -468857.074 7
 86  6 20  0  9 35.0800000  0  4G 6G 8G 9G11
  20409231.684    20409234.718    -4252095.052 8  -1334049.737 8
  23345454.630    23345459.483    12377813.757 8  11412974.074 8
  21122605.235    21122608.542   -13835382.584 8  -8859026.855 8
  20677349.628    20677355.136    -3227646.603 9   -464701.489 7
 86  6 20  0  9 41.0800000  0  4G 6G 8G 9G11
  20409633.350    20409636.984    -4249988.711 8  -1332408.410 8
  23349523.946    23349529.881    12399199.631 8  11429638.381 9
  21119907.251    21119911.035   -13849559.636 8  -8870073.902 9
  20678369.101    20678373.265    -3222293.847 9   -460530.498 8
 86  6 20  0  9 47.0800000  0  4G 6G 8G 9G11
  20410038.138    20410041.642    -4247861.686 8  -1330751.001 7
  23353595.341    23353600.744    12420590.452 9  11446306.544 7
  21117211.371    21117217.001   -13863724.340 8  -8881111.347 8
  20679390.750    20679395.757    -3216921.400 9   -456344.187 8
 86  6 20  0  9 53.0800000  0  4G 6G 8G 9G11
  20410447.307    20410450.775    -4245713.855 8  -1329077.371 8
  23357666.433    23357671.564    12441986.242 8  11462978.581 9
  21114517.780    21114522.217   -13877876.552 8  -8892139.027 9
  20680416.604    20680421.226    -3211529.194 9   -452142.458 8
 86  6 20  0  9 59.0800000  0  4G 6G 8G 9G11
  20410859.250    20410862.433    -4243545.344 7  -1327387.618 7
  23361738.915    23361745.432    12463386.955 9  11479654.474 8
  21111827.314    21111832.366   -13892016.287 8  -8903157.006 8
  20681446.722    20681451.271    -3206117.255 8   -447925.368 8
 86  6 20  0 10  5.0800000  0  4G 6G 8G 9G11
  20411275.731    20411279.594    -4241356.086 9  -1325681.704 8
  23365812.742    23365818.692    12484792.570 8  11496334.165 8
  21109138.397    21109143.062   -13906143.549 8  -8914165.245 8
  20682480.045    20682484.880    -3200685.640 9   -443692.934 7
 86  6 20  0 10 11.0800000  0  4G 6G 8G 9G11
  20411696.879    20411700.240    -4239146.066 9  -1323959.621 7
  23369886.156    23369891.630    12506203.037 8  11513017.634 8
  21106452.860    21106457.496   -13920258.255 9  -8925163.728 8
  20683517.460    20683522.928    -3195234.372 8   -439445.190 8
 86  6 20  0 10 17.0800000  0  4G 6G 8G 9G11
  20412122.135    20412124.785    -4236915.371 8  -1322221.419 7
  23373962.642    23373967.835    12527618.331 8  11529704.870 9
  21103770.381    21103773.750   -13934360.572 8  -8936152.536 7
  20684559.198    20684564.737    -3189763.460 8   -435182.143 8
 86  6 20  0 10 23.0800000  0  4G 6G 8G 9G11
  20412550.302    20412553.129    -4234663.874 8  -1320467.006 8
  23378038.248    23378044.363    12549038.433 8  11546395.855 9
  21101089.082    21101092.849   -13948450.271 9  -8947131.518 8
  20685603.997    20685608.249    -3184272.897 8   -430903.787 8
 86  6 20  0 10 29.0800000  0  4G 6G 8G 9G11
  20412981.199    20412985.674    -4232391.575 9  -1318696.383 7
  23382115.375    23382121.182    12570463.384 8  11563090.611 8
  21098411.040    21098412.776   -13962527.310 8  -8958100.644 9
  20686652.604    20686655.624    -3178762.634 8   -426610.068 7
 86  6 20  0 10 35.0800000  0  4G 6G 8G 9G11
  20413419.487    20413422.111    -4230098.444 9  -1316909.517 7
  23386193.279    23386199.909    12591893.052 8  11579789.050 8
  21095732.653    21095738.042   -13976591.811 8  -8969059.985 8
  20687705.188    20687708.509    -3173232.721 8   -422301.042 8
 86  6 20  0 10 41.0800000  0  4G 6G 8G 9G11
  20413859.237    20413862.308    -4227784.453 7  -1315106.426 8
  23390271.967    23390277.586    12613327.623 8  11596491.295 8
  21093060.600    21093063.108   -13990643.585 8  -8980009.401 8
  20688760.519    20688766.129    -3167683.147 9   -417976.697 8
 86  6 20  0 10 47.0800000  0  4G 6G 8G 9G11
  20414304.017    20414307.225    -4225449.642 8  -1313287.089 8
  23394352.124    23394356.700    12634766.892 8  11613197.232 8
  21090388.648    21090392.495   -14004682.739 8  -8990949.005 8
  20689819.342    20689825.094    -3162113.932 8   -413637.061 8
 86  6 20  0 10 53.0800000  0  4G 6G 8G 9G11
  20414751.519    20414754.948    -4223094.012 8  -1311451.532 7
  23398433.400    23398438.083    12656210.915 8  11629906.845 8
  21087718.797    21087722.420   -14018709.178 7  -9001878.699 8
  20690882.800    20690887.526    -3156525.116 8   -409282.131 8
 86  6 20  0 10 59.0800000  0  4G 6G 8G 9G11
  20415203.843    20415206.881    -4220717.541 9  -1309599.749 7
  23402513.615    23402518.614    12677659.626 8  11646620.127 8
  21085052.399    21085056.027   -14032722.988 9  -9012798.539 7
  20691951.755    20691955.933    -3150916.728 9   -404911.965 8
 86  6 20  0 11  5.0800000  0  4G 6G 8G 9G11
  20415659.444    20415664.850    -4218320.254 9  -1307731.726 8
  23406596.343    23406601.855    12699112.940 8  11663336.992 8
  21082387.971    21082390.781   -14046724.067 9  -9023708.474 8
  20693022.741    20693026.176    -3145288.869 9   -400526.611 9
 86  6 20  0 11 11.0800000  0  4G 6G 8G 9G11
  20416120.903    20416123.646    -4215902.235 8  -1305847.548 7
  23410679.598    23410684.619    12720570.851 8  11680057.434 9
  21079726.718    21079729.285   -14060712.505 8  -9034608.557 8
  20694096.675    20694101.538    -3139641.529 8   -396126.097 9
 86  6 20  0 11 17.0800000  0  4G 6G 8G 9G11
  20416584.791    20416588.382    -4213463.413 8  -1303947.182 7
  23414763.511    23414769.127    12742033.295 7  11696781.403 8
  21077067.441    21077070.710   -14074688.239 9  -9045498.732 8
  20695174.872    20695178.879    -3133974.733 9   -391710.406 7
 86  6 20  0 11 23.0800000  0  4G 6G 8G 9G11
  20417052.425    20417055.699    -4211003.823 8  -1302030.607 8
  23418848.942    23418854.098    12763500.223 8  11713508.888 7
  21074409.121    21074412.509   -14088651.276 9  -9056379.009 8
  20696256.301    20696261.081    -3128288.486 8   -387279.556 8
 86  6 20  0 11 29.0800000  0  4G 6G 8G 9G11
  20417524.234    20417527.669    -4208523.413 9  -1300097.828 8
  23422934.434    23422940.248    12784971.625 8  11730239.843 7
  21071754.798    21071759.533   -14102601.563 8  -9067249.363 9
  20697343.400    20697347.250    -3122582.815 8   -382833.584 8
 86  6 20  0 11 35.0800000  0  4G 6G 8G 9G11
  20417999.694    20418003.592    -4206022.096 9  -1298148.753 8
  23427021.441    23427027.115    12806447.599 8  11746974.368 7
  21069102.597    21069105.724   -14116539.008 8  -9078109.693 8
  20698432.330    20698437.553    -3116857.681 8   -378372.459 8
 86  6 20  0 11 41.0800000  0  4G 6G 8G 9G11
  20418479.952    20418483.686    -4203499.882 8  -1296183.387 8
  23431108.945    23431115.017    12827928.203 8  11763712.505 7
  21066452.527    21066456.796   -14130463.500 8  -9088959.962 8
  20699524.206    20699529.643    -3111113.081 9   -373896.137 8
 86  6 20  0 11 47.0800000  0  4G 6G 8G 9G11
  20418963.660    20418967.559    -4200956.644 9  -1294201.647 8
  23435197.268    23435203.024    12849413.406 8  11780454.213 8
  21063806.349    21063809.382   -14144375.037 8  -9099800.103 8
  20700621.751    20700627.589    -3105348.879 7   -369404.559 8
 86  6 20  0 11 53.0800000  0  4G 6G 8G 9G11
  20419452.121    20419454.287    -4198392.427 8  -1292203.556 8
  23439287.177    23439292.822    12870903.173 8  11797199.486 8
  21061162.321    21061164.752   -14158273.535 9  -9110630.098 8
  20701721.785    20701727.719    -3099565.119 8   -364897.716 8
 86  6 20  0 11 59.0800000  0  4G 6G 8G 9G11
  20419944.842    20419947.584    -4195807.187 9  -1290189.091 8
  23443376.453    23443382.352    12892397.451 8  11813948.284 7
  21058519.858    21058520.783   -14172159.011 9  -9121449.946 8
  20702826.766    20702832.017    -3093761.916 7   -360375.756 7
 86  6 20  0 12  5.0800000  0  4G 6G 8G 9G11
  20420438.642    20420443.036    -4193201.021 8  -1288158.326 7
  23447467.422    23447474.273    12913896.194 8  11830700.535 7
  21055878.848    21055882.025   -14186031.580 9  -9132259.728 8
  20703933.842    20703940.136    -3087939.310 8   -355838.655 8
 86  6 20  0 12 11.0800000  0  4G 6G 8G 9G11
  20420939.582    20420942.880    -4190574.022 8  -1286111.314 9
  23451560.259    23451565.729    12935399.288 8  11847456.194 8
  21053241.107    21053245.582   -14199891.242 9  -9143059.479 7
  20705046.035    20705051.274    -3082097.408 7   -351286.520 8
 86  6 20  0 12 17.0800000  0  4G 6G 8G 9G11
  20421444.181    20421446.599    -4187926.153 8  -1284048.037 8
  23455652.908    23455659.251    12956906.666 8  11864215.174 8
  21050606.278    21050610.175   -14213737.988 8  -9153849.136 9
  20706161.379    20706165.472    -3076236.275 8   -346719.403 7
 86  6 20  0 12 23.0800000  0  4G 6G 8G 9G11
  20421951.400    20421955.839    -4185257.425 8  -1281968.502 7
  23459746.148    23459752.360    12978418.305 9  11880977.495 8
  21047974.034    21047977.473   -14227571.901 9  -9164628.804 7
  20707280.702    20707285.082    -3070355.893 8   -342137.292 8
 86  6 20  0 12 29.0800000  0  4G 6G 8G 9G11
  20422464.194    20422466.730    -4182567.759 8  -1279872.672 7
  23463840.528    23463847.149    12999934.214 8  11897743.134 7
  21045344.825    21045347.876   -14241392.696 7  -9175398.251 7
  20708402.657    20708406.934    -3064456.217 7   -337540.151 8
 86  6 20  0 12 35.0800000  0  4G 6G 8G 9G11
  20422978.317    20422981.929    -4179857.186 8  -1277760.546 7
  23467936.035    23467941.148    13021454.443 8  11914512.151 8
  21042716.714    21042720.648   -14255200.429 8  -9186157.526 7
  20709528.991    20709534.600    -3058537.228 8   -332927.951 8
 86  6 20  0 12 41.0800000  0  4G 6G 8G 9G11
  20423498.218    20423501.800    -4177125.640 8  -1275632.053 7
  23472031.524    23472036.719    13042978.950 8  11931284.499 8
  21040093.357    21040094.436   -14268995.134 8  -9196906.635 9
  20710659.759    20710663.797    -3052598.950 7   -328300.711 7
 86  6 20  0 12 47.0800000  0  4G 6G 8G 9G11
  20424022.554    20424026.916    -4174373.058 8  -1273487.196 7
  23476128.268    23476134.109    13064507.756 8  11948060.186 8
  21037468.643    21037472.385   -14282776.639 9  -9207645.460 8
  20711793.020    20711797.553    -3046641.402 7   -323658.460 9
 86  6 20  0 12 53.0800000  0  4G 6G 8G 9G11
  20424549.873    20424555.161    -4171599.524 9  -1271326.008 8
  23480226.127    23480232.511    13086040.867 7  11964839.221 7
  21034849.615    21034852.026   -14296545.090 8  -9218374.129 8
  20712930.368    20712935.320    -3040664.592 9   -319001.211 7
 86  6 20  0 12 59.0800000  0  4G 6G 8G 9G11
  20425082.672    20425085.043    -4168804.944 8  -1269148.401 9
  23484325.253    23484330.023    13107578.149 8  11981621.537 8
  21032231.530    21032234.568   -14310300.392 9  -9229092.540 8
  20714071.270    20714076.121    -3034668.504 7   -314328.934 8
 86  6 20  0 13  5.0800000  0  4G 6G 8G 9G11
  20425617.358    20425622.287    -4165989.353 9  -1266954.445 7
  23488422.893    23488430.063    13129119.668 7  11998407.119 7
  21029615.925    21029619.964   -14324042.460 8  -9239800.641 7
  20715216.692    20715221.128    -3028653.160 8   -309641.655 8
 86  6 20  0 13 11.0800000  0  4G 6G 8G 9G11
  20426156.764    20426160.615    -4163152.696 8  -1264744.069 7
  23492523.546    23492529.241    13150665.364 7  12015195.967 8
  21027003.852    21027007.061   -14337771.347 9  -9250498.465 8
  20716365.377    20716369.769    -3022618.557 7   -304939.362 7
 86  6 20  0 13 17.0800000  0  4G 6G 8G 9G11
  20426701.887    20426705.456    -4160295.023 8  -1262517.314 7
  23496624.862    23496630.281    13172215.246 7  12031988.100 8
  21024393.184    21024397.132   -14351486.923 8  -9261185.918 8
  20717516.321    20717521.230    -3016564.690 7   -300222.067 8
 86  6 20  0 13 23.0800000  0  4G 6G 8G 9G11
  20427248.899    20427253.414    -4157416.305 9  -1260274.163 7
  23500726.864    23500732.040    13193769.267 8  12048783.408 8
  21021785.595    21021789.310   -14365189.258 8  -9271863.064 8
  20718671.705    20718676.740    -3010491.646 8   -295489.821 8
 86  6 20  0 13 29.0800000  0  4G 6G 8G 9G11
  20427801.202    20427805.036    -4154516.483 8  -1258014.552 8
  23504827.756    23504834.829    13215327.442 8  12065581.993 8
  21019181.438    21019184.998   -14378878.359 9  -9282529.895 9
  20719830.976    20719835.785    -3004399.418 7   -290742.630 8
 86  6 20  0 13 35.0800000  0  4G 6G 8G 9G11
  20428356.291    20428360.878    -4151595.614 8  -1255738.551 7
  23508931.961    23508938.439    13236889.679 8  12082383.744 7
  21016578.751    21016582.606   -14392554.157 8  -9293186.355 8
  20720994.456    20720999.079    -2998288.092 9   -285980.544 8
 86  6 20  0 13 41.0800000  0  4G 6G 8G 9G11
  20428915.567    20428920.860    -4148653.631 8  -1253446.100 8
  23513035.160    23513041.487    13258456.046 8  12099188.692 8
  21013978.309    21013982.233   -14406216.622 9  -9303832.432 8
  20722159.911    20722166.207    -2992157.578 8   -281203.527 8
 86  6 20  0 13 47.0800000  0  4G 6G 8G 9G11
  20429479.518    20429485.443    -4145690.521 8  -1251137.201 7
  23517139.773    23517146.400    13280026.527 8  12115996.864 8
  21011379.923    21011386.119   -14419865.634 8  -9314468.021 8
  20723333.064    20723337.516    -2986007.830 8   -276411.527 8
 86  6 20  0 13 53.0800000  0  4G 6G 8G 9G11
  20430048.115    20430052.353    -4142706.213 7  -1248811.745 7
  23521245.088    23521250.677    13301601.160 8  12132808.264 8
  21008785.703    21008791.314   -14433501.177 8  -9325093.109 7
  20724505.332    20724508.966    -2979838.854 7   -271604.523 7
 86  6 20  0 13 59.0800000  0  4G 6G 8G 9G11
  20430621.977    20430623.918    -4139700.731 7  -1246469.816 9
  23525352.592    23525356.560    13323179.870 8  12149622.837 8
  21006193.443    21006198.160   -14447123.204 8  -9335707.685 8
  20725682.005    20725687.857    -2973650.714 7   -266782.598 8
 86  6 20  0 14  5.0800000  0  4G 6G 8G 9G11
  20431196.727    20431200.866    -4136674.036 9  -1244111.362 7
  23529458.614    23529465.062    13344762.663 8  12166440.589 8
  21003603.846    21003609.895   -14460731.665 8  -9346311.684 8
  20726863.458    20726870.495    -2967443.401 8   -261945.750 8
 86  6 20  0 14 11.0800000  0  4G 6G 8G 9G11
  20431776.551    20431779.387    -4133626.188 8  -1241736.420 7
  23533566.602    23533573.105    13366349.522 8  12183261.513 8
  21001017.211    21001021.992   -14474326.719 8  -9356905.209 8
  20728048.402    20728054.296    -2961216.962 8   -257093.974 8
 86  6 20  0 14 17.0800000  0  4G 6G 8G 9G11
  20432360.007    20432363.929    -4130557.132 9  -1239344.962 7
  23537676.204    23537682.036    13387940.303 7  12200085.485 8
  20998433.813    20998437.257   -14487908.219 8  -9367488.202 9
  20729236.806    20729242.547    -2954971.451 8   -252227.339 7
 86  6 20  0 14 23.0800000  0  4G 6G 8G 9G11
  20432948.643    20432952.930    -4127466.972 8  -1236937.035 7
  23541784.823    23541791.044    13409535.013 7  12216912.540 7
  20995850.264    20995855.593   -14501476.191 8  -9378060.649 9
  20730429.506    20730434.155    -2948706.905 8   -247345.871 7
 86  6 20  0 14 29.0800000  0  4G 6G 8G 9G11
  20433541.545    20433544.978    -4124355.715 8  -1234512.680 7
  23545894.358    23545900.684    13431133.597 7  12233742.597 8
  20993271.723    20993276.733   -14515030.670 8  -9388622.581 8
  20731625.240    20731630.449    -2942423.316 8   -242449.570 8
 86  6 20  0 14 35.0800000  0  4G 6G 8G 9G11
  20434136.153    20434140.881    -4121223.328 9  -1232071.866 7
  23550004.665    23550011.475    13452735.986 7  12250575.621 8
  20990694.377    20990699.733   -14528571.756 9  -9399174.070 9
  20732824.779    20732830.288    -2936120.829 9   -237538.540 8
 86  6 20  0 14 41.0800000  0  4G 6G 8G 9G11
  20434737.832    20434740.815    -4118069.900 8  -1229614.639 7
  23554117.749    23554122.255    13474342.179 7  12267411.602 8
  20988121.204    20988125.642   -14542099.270 8  -9409714.984 9
  20734027.923    20734032.590    -2929799.425 8   -232612.777 8
 86  6 20  0 14 47.0800000  0  4G 6G 8G 9G11
  20435339.791    20435345.530    -4114895.340 8  -1227140.972 7
  23558228.983    23558236.404    13495952.108 7  12284250.499 8
  20985549.114    20985553.695   -14555613.253 8  -9420245.371 7
  20735235.133    20735239.526    -2923459.105 8   -227672.261 7
 86  6 20  0 14 53.0800000  0  4G 6G 8G 9G11
  20435949.595    20435953.209    -4111699.725 7  -1224650.880 7
  23562342.373    23562348.631    13517565.737 7  12301092.282 7
  20982980.304    20982984.956   -14569113.826 8  -9430765.293 8
  20736445.146    20736449.454    -2917099.903 9   -222717.044 7
 86  6 20  0 14 59.0800000  0  4G 6G 8G 9G11
  20436560.451    20436565.439    -4108483.058 9  -1222144.386 8
  23566456.151    23566461.294    13539183.058 7  12317936.950 8
  20980412.669    20980418.876   -14582600.914 9  -9441274.699 8
  20737658.738    20737663.560    -2910721.891 8   -217747.155 8
 86  6 20  0 15  5.0800000  0  4G 6G 8G 9G11
  20437177.069    20437181.391    -4105245.294 9  -1219621.466 8
  23570570.621    23570576.295    13560804.059 7  12334784.474 8
  20977850.177    20977853.661   -14596074.354 8  -9451773.480 8
  20738876.192    20738881.356    -2904325.047 8   -212762.603 8
 86  6 20  0 15 11.0800000  0  4G 6G 8G 9G11
  20437797.462    20437799.979    -4101986.407 8  -1217082.069 7
  23574686.868    23574691.674    13582428.695 7  12351634.837 9
  20975287.751    20975293.357   -14609534.199 8  -9462261.668 9
  20740096.939    20740100.602    -2897909.344 8   -207763.360 7
 86  6 20  0 15 17.0800000  0  4G 6G 8G 9G11
  20438421.753    20438425.077    -4098706.323 9  -1214526.163 7
  23578801.565    23578806.836    13604057.042 7  12368488.091 8
  20972729.476    20972734.498   -14622980.348 8  -9472739.191 9
  20741320.945    20741326.655    -2891474.760 8   -202749.400 7
 86  6 20  0 15 23.0800000  0  4G 6G 8G 9G11
  20439049.962    20439053.649    -4095404.992 8  -1211953.706 8
  23582918.614    23582922.731    13625689.156 8  12385344.273 8
  20970172.415    20970178.091   -14636412.725 8  -9483205.974 8
  20742550.762    20742554.841    -2885021.308 9   -197720.728 7
 86  6 20  0 15 29.0800000  0  4G 6G 8G 9G11
  20439682.228    20439685.094    -4092082.388 8  -1209364.658 8
  23587035.087    23587040.293    13647324.957 7  12402203.341 9
  20967619.038    20967624.774   -14649831.315 8  -9493662.016 8
  20743780.610    20743784.543    -2878548.875 8   -192677.277 8
 86  6 20  0 15 35.0800000  0  4G 6G 8G 9G11
  20440318.602    20440320.576    -4088738.517 8  -1206759.042 8
  23591152.416    23591158.286    13668964.462 8  12419065.277 8
  20965069.922    20965072.831   -14663236.139 7  -9504107.317 8
  20745015.691    20745022.491    -2872057.545 8   -187619.094 7
 86  6 20  0 15 41.0800000  0  4G 6G 8G 9G11
  20440958.948    20440961.925    -4085373.393 9  -1204136.876 7
  23595272.361    23595277.072    13690607.622 6  12435930.076 9
  20962520.605    20962526.154   -14676627.074 8  -9514541.820 8
  20746255.268    20746259.176    -2865547.334 7   -182546.200 9
 86  6 20  0 15 47.0800000  0  4G 6G 8G 9G11
  20441602.769    20441605.883    -4081987.016 9  -1201498.148 8
  23599392.006    23599395.637    13712254.386 7  12452797.676 9
  20959974.720    20959980.671   -14690004.138 9  -9524965.494 8
  20747497.793    20747502.372    -2859018.309 8   -177458.646 7
 86  6 20  0 15 53.0800000  0  4G 6G 8G 9G11
  20442251.462    20442255.293    -4078579.384 8  -1198842.847 8
  23603511.476    23603516.204    13733904.726 7  12469668.076 8
  20957433.033    20957437.970   -14703367.412 8  -9535378.443 8
  20748742.752    20748749.016    -2852470.527 8   -172356.488 7
 86  6 20  0 15 59.0800000  0  4G 6G 8G 9G11
  20442904.999    20442907.975    -4075150.547 9  -1196171.020 7
  23607631.862    23607637.022    13755558.660 7  12486541.254 8
  20954891.622    20954897.333   -14716716.796 8  -9545780.558 8
  20749992.971    20749998.269    -2845903.918 8   -167239.655 8
 86  6 20  0 16  5.0800000  0  4G 6G 8G 9G11
  20443560.916    20443563.459    -4071700.360 8  -1193482.578 7
  23611751.777    23611758.586    13777216.134 8  12503417.200 9
  20952353.743    20952360.163   -14730052.408 8  -9556171.953 8
  20751245.742    20751251.651    -2839318.542 7   -162108.191 7
 86  6 20  0 16 11.0800000  0  4G 6G 8G 9G11
  20444220.718    20444224.929    -4068228.927 8  -1190777.573 7
  23615875.305    23615879.876    13798877.147 6  12520295.906 8
  20949819.660    20949824.571   -14743373.982 8  -9566552.381 8
  20752501.400    20752507.900    -2832714.463 8   -156962.159 7
 86  6 20  0 16 17.0800000  0  4G 6G 8G 9G11
  20444886.332    20444891.383    -4064736.221 8  -1188055.986 8
  23619996.075    23620002.274    13820541.610 7  12537177.313 9
  20947288.118    20947290.783   -14756681.655 9  -9576921.992 8
  20753762.183    20753767.236    -2826091.674 8   -151801.536 8
 86  6 20  0 16 23.0800000  0  4G 6G 8G 9G11
  20445554.241    20445558.174    -4061222.293 8  -1185317.867 8
  23624121.403    23624126.428    13842209.520 7  12554061.371 8
  20944756.221    20944761.404   -14769975.385 8  -9587280.747 8
  20755025.828    20755031.223    -2819450.190 8   -146626.346 8
 86  6 20  0 16 29.0800000  0  4G 6G 8G 9G11
  20446227.501    20446230.226    -4057687.152 8  -1182563.194 7
  23628243.321    23628250.244    13863880.785 7  12570948.063 9
  20942230.252    20942235.329   -14783255.258 8  -9597628.704 8
  20756293.481    20756298.488    -2812790.127 7   -141436.675 8
 86  6 20  0 16 35.0800000  0  4G 6G 8G 9G11
  20446903.935    20446907.766    -4054130.772 8  -1179791.999 7
  23632367.474    23632374.083    13885555.397 8  12587837.366 8
  20939706.320    20939710.636   -14796521.200 9  -9607965.800 9
  20757564.023    20757569.588    -2806111.460 7   -136232.526 8
 86  6 20  0 16 41.0800000  0  4G 6G 8G 9G11
  20447583.672    20447587.963    -4050553.169 9  -1177004.268 6
  23636494.111    23636499.737    13907233.310 7  12604729.237 9
  20937183.461    20937188.327   -14809773.190 8  -9618292.008 8
  20758838.225    20758844.079    -2799414.207 7   -131013.878 7
 86  6 20  0 16 47.0800000  0  4G 6G 8G 9G11
  20448268.847    20448271.502    -4046954.360 8  -1174199.989 7
  23640620.205    23640625.734    13928914.520 7  12621623.692 9
  20934665.559    20934669.531   -14823011.251 9  -9628607.387 8
  20760117.009    20760122.061    -2792698.367 7   -125780.747 8
 86  6 20  0 16 53.0800000  0  4G 6G 8G 9G11
  20448959.632    20448962.020    -4043334.320 8  -1171379.193 9
  23644747.007    23644751.769    13950599.031 8  12638520.703 9
  20932148.871    20932152.984   -14836235.423 8  -9638911.928 8
  20761396.853    20761403.177    -2785964.008 7   -120533.200 8
 86  6 20  0 16 59.0800000  0  4G 6G 8G 9G11
  20449650.228    20449655.835    -4039692.951 7  -1168541.767 8
  23648873.147    23648878.649    13972286.822 7  12655420.265 9
  20929634.595    20929638.940   -14849445.402 8  -9649205.426 7
  20762682.989    20762688.072    -2779211.025 7   -115271.148 7
 86  6 20  0 17  5.0800000  0  4G 6G 8G 9G11
  20450348.294    20450352.954    -4036030.206 8  -1165687.674 8
  23653000.008    23653007.436    13993977.973 8  12672322.453 9
  20927123.719    20927128.218   -14862641.276 8  -9659487.911 9
  20763970.390    20763975.968    -2772439.470 7   -109994.609 7
 86  6 20  0 17 11.0800000  0  4G 6G 8G 9G11
  20451049.257    20451054.224    -4032346.155 8  -1162817.008 8
  23657129.495    23657135.208    14015672.405 8  12689227.206 8
  20924615.482    20924620.808   -14875822.918 8  -9669759.313 8
  20765262.251    20765269.378    -2765649.378 7   -104703.622 8
 86  6 20  0 17 17.0800000  0  4G 6G 8G 9G11
  20451754.703    20451757.576    -4028640.736 7  -1159929.659 7
  23661257.747    23661264.255    14037370.169 7  12706134.548 9
  20922111.087    20922114.545   -14888990.461 8  -9680019.731 8
  20766558.347    20766564.828    -2758840.717 8    -99398.166 8
 86  6 20  0 17 23.0800000  0  4G 6G 8G 9G11
  20452463.832    20452467.320    -4024913.840 9  -1157025.579 7
  23665386.494    23665392.766    14059071.236 8  12723044.473 9
  20919606.431    20919611.615   -14902143.646 8  -9690268.963 8
  20767858.882    20767864.163    -2752013.404 8    -94078.186 8
 86  6 20  0 17 29.0800000  0  4G 6G 8G 9G11
  20453176.913    20453181.624    -4021165.497 9  -1154104.815 8
  23669518.438    23669523.770    14080775.582 8  12739956.928 9
  20917106.239    20917110.514   -14915282.610 7  -9700507.112 7
  20769160.274    20769166.226    -2745167.492 7    -88743.710 7
 86  6 20  0 17 35.0800000  0  4G 6G 8G 9G11
  20453894.811    20453897.999    -4017395.785 8  -1151167.372 8
  23673648.829    23673654.371    14102483.193 9  12756871.953 8
  20914609.511    20914613.768   -14928407.263 8  -9710734.120 8
  20770466.675    20770472.324    -2738303.020 7    -83394.769 8
 86  6 20  0 17 41.0800000  0  4G 6G 8G 9G11
  20454615.557    20454620.420    -4013604.613 8  -1148213.209 7
  23677780.300    23677786.256    14124194.070 8  12773789.507 8
  20912115.120    20912118.380   -14941517.650 9  -9720949.996 7
  20771776.193    20771780.575    -2731419.976 7    -78031.362 8
 86  6 20  0 17 47.0800000  0  4G 6G 8G 9G11
  20455342.413    20455344.408    -4009791.984 8  -1145242.331 8
  23681912.765    23681918.320    14145908.111 8  12790709.542 9
  20909623.439    20909626.280   -14954613.668 8  -9731154.684 9
  20773091.921    20773095.444    -2724518.432 6    -72653.533 8
 86  6 20  0 17 53.0800000  0  4G 6G 8G 9G11
  20456071.170    20456074.643    -4005958.015 8  -1142254.831 8
  23686045.687    23686050.981    14167625.259 7  12807631.995 8
  20907133.689    20907137.651   -14967695.422 8  -9741348.259 8
  20774407.597    20774411.819    -2717598.491 7    -67261.368 8
 86  6 20  0 17 59.0800000  0  4G 6G 8G 9G11
  20456804.106    20456807.969    -4002102.700 8  -1139250.695 6
  23690179.642    23690184.582    14189345.484 8  12824556.834 9
  20904646.548    20904649.968   -14980762.885 9  -9751530.694 8
  20775727.937    20775732.800    -2710660.138 8    -61854.858 6
 86  6 20  0 18  5.0800000  0  4G 6G 8G 9G11
  20457541.872    20457546.383    -3998225.994 8  -1136229.891 8
  23694311.609    23694318.338    14211068.796 8  12841484.084 9
  20902162.783    20902165.728   -14993815.924 8  -9761701.892 8
  20777051.878    20777056.156    -2703703.360 7    -56434.003 7
 86  6 20  0 18 11.0800000  0  4G 6G 8G 9G11
  20458284.373    20458288.661    -3994327.858 9  -1133192.381 7
  23698446.050    23698452.034    14232795.190 9  12858413.733 9
  20899680.763    20899684.225   -15006854.655 8  -9771861.929 8
  20778379.741    20778384.750    -2696728.162 7    -50998.774 7
 86  6 20  0 18 17.0800000  0  4G 6G 8G 9G11
  20459029.980    20459032.815    -3990408.293 8  -1130138.194 8
  23702581.442    23702587.490    14254524.613 8  12875345.747 8
  20897203.278    20897206.201   -15019879.087 8  -9782010.823 8
  20779710.442    20779715.534    -2689734.608 7    -45549.265 7
 86  6 20  0 18 23.0800000  0  4G 6G 8G 9G11
  20459779.970    20459783.859    -3986467.389 9  -1127067.364 7
  23706718.277    23706722.318    14276257.005 7  12892280.087 8
  20894727.690    20894730.594   -15032889.061 8  -9792148.460 9
  20781044.856    20781048.506    -2682722.761 7    -40085.487 8
 86  6 20  0 18 29.0800000  0  4G 6G 8G 9G11
  20460532.230    20460537.530    -3982505.144 9  -1123979.904 8
  23710853.664    23710858.941    14297992.288 8  12909216.668 9
  20892254.002    20892257.309   -15045884.726 8  -9802274.949 9
  20782382.424    20782386.944    -2675692.663 8    -34607.490 8
 86  6 20  0 18 35.0800000  0  4G 6G 8G 9G11
  20461291.985    20461296.617    -3978521.524 8  -1120875.782 8
  23714989.256    23714995.172    14319730.543 8  12926155.567 8
  20889784.048    20889787.824   -15058865.918 8  -9812390.162 9
  20783723.795    20783728.632    -2668644.254 8    -29115.220 7
 86  6 20  0 18 41.0800000  0  4G 6G 8G 9G11
  20462054.823    20462058.003    -3974516.429 9  -1117754.939 7
  23719126.717    23719132.618    14341471.713 8  12943096.733 9
  20887317.226    20887320.362   -15071832.685 8  -9822494.128 8
  20785068.400    20785071.219    -2661577.490 8    -23608.646 7
 86  6 20  0 18 47.0800000  0  4G 6G 8G 9G11
  20462820.187    20462824.593    -3970489.932 8  -1114617.404 8
  23723266.108    23723270.112    14363215.859 8  12960040.207 9
  20884851.678    20884855.396   -15084784.926 8  -9832586.786 9
  20786416.155    20786420.848    -2654492.417 8    -18087.808 7
 86  6 20  0 18 53.0800000  0  4G 6G 8G 9G11
  20463590.552    20463594.458    -3966441.935 8  -1111463.120 7
  23727402.086    23727408.786    14384962.946 9  12976985.992 8
  20882389.549    20882393.377   -15097722.622 9  -9842668.098 9
  20787768.659    20787772.808    -2647389.070 8    -12552.732 8
 86  6 20  0 18 59.0800000  0  4G 6G 8G 9G11
  20464364.919    20464368.240    -3962372.425 9  -1108292.070 7
  23731541.479    23731547.714    14406712.959 9  12993934.055 7
  20879931.147    20879934.025   -15110645.730 8  -9852738.048 8
  20789123.768    20789128.434    -2640267.333 8     -7003.332 8
 86  6 20  0 19  5.0800000  0  4G 6G 8G 9G11
  20465143.819    20465148.214    -3958281.382 8  -1105104.257 8
  23735681.663    23735687.598    14428465.898 9  13010884.402 8
  20877473.916    20877477.009   -15123554.123 9  -9862796.534 8
  20790481.853    20790485.633    -2633127.323 8     -1439.684 7
 86  6 20  0 19 11.0800000  0  4G 6G 8G 9G11
  20465925.765    20465930.431    -3954168.811 8  -1101899.669 8
  23739821.814    23739826.984    14450221.681 8  13027836.955 7
  20875021.136    20875023.865   -15136447.956 9  -9872843.671 8
  20791845.318    20791848.908    -2625969.017 7      4138.200 7
 86  6 20  0 19 17.0800000  0  4G 6G 8G 9G11
  20466711.572    20466717.800    -3950034.741 8  -1098678.306 8
  23743962.623    23743967.642    14471980.395 9  13044791.778 8
  20872568.566    20872572.411   -15149327.080 8  -9882879.357 8
  20793210.903    20793215.353    -2618792.419 8      9730.348 7
 86  6 20  0 19 23.0800000  0  4G 6G 8G 9G11
  20467503.929    20467507.877    -3945879.145 8  -1095440.201 8
  23748102.932    23748107.736    14493741.979 9  13061748.870 8
  20870121.751    20870125.630   -15162191.525 9  -9892903.594 7
  20794579.634    20794584.312    -2611597.571 9     15336.743 7
 86  6 20  0 19 29.0800000  0  4G 6G 8G 9G11
  20468298.252    20468301.469    -3941702.047 8  -1092185.306 7
  23752244.219    23752250.977    14515506.283 9  13078708.070 8
  20867676.432    20867680.769   -15175041.271 8  -9902916.370 8
  20795952.371    20795956.378    -2604384.592 8     20957.242 8
 86  6 20  0 19 35.0800000  0  4G 6G 8G 9G11
  20469097.332    20469101.203    -3937503.512 8  -1088913.724 7
  23756387.559    23756393.165    14537273.294 8  13095669.366 8
  20865234.082    20865237.785   -15187876.445 9  -9912917.805 8
  20797328.914    20797334.325    -2597153.533 7     26591.834 7
 86  6 20  0 19 41.0800000  0  4G 6G 8G 9G11
  20469900.255    20469903.900    -3933283.564 9  -1085625.467 8
  23760529.669    23760535.876    14559042.995 8  13112632.764 8
  20862792.803    20862798.642   -15200696.882 8  -9922907.753 8
  20798707.290    20798712.613    -2589904.382 7     32240.512 7
 86  6 20  0 19 47.0800000  0  4G 6G 8G 9G11
  20470707.169    20470711.462    -3929042.190 8  -1082320.491 7
  23764673.217    23764677.932    14580815.343 9  13129598.241 8
  20860356.629    20860361.774   -15213502.782 8  -9932886.372 8
  20800090.163    20800094.678    -2582637.171 8     37903.287 8
 86  6 20  0 19 53.0800000  0  4G 6G 8G 9G11
  20471518.962    20471522.811    -3924779.321 8  -1078998.780 8
  23768816.683    23768822.178    14602590.298 8  13146565.723 7
  20857923.235    20857927.900   -15226293.896 8  -9942853.465 9
  20801477.178    20801481.754    -2575351.937 8     43580.093 7
 86  6 20  0 19 59.0800000  0  4G 6G 8G 9G11
  20472334.824    20472336.553    -3920494.959 8  -1075660.316 7
  23772959.808    23772965.828    14624367.920 8  13163535.305 8
  20855492.005    20855496.558   -15239070.305 9  -9952809.096 8
  20802866.943    20802871.592    -2568048.573 8     49271.035 8
 86  6 20  0 20  5.0800000  0  4G 6G 8G 9G11
  20473153.374    20473159.937    -3916189.097 8  -1072305.109 8
  23777106.005    23777110.507    14646148.159 9  13180506.913 7
  20853065.640    20853068.077   -15251831.887 8  -9962753.184 9
  20804259.770    20804263.920    -2560727.159 8     54976.021 7
 86  6 20  0 20 11.0800000  0  4G 6G 8G 9G11
  20473977.304    20473981.620    -3911861.725 8  -1068933.134 7
  23781250.990    23781256.453    14667931.012 7  13197480.558 8
  20850637.243    20850642.024   -15264578.625 9  -9972685.715 8
  20805656.804    20805661.129    -2553387.773 8     60695.035 8
 86  6 20  0 20 17.0800000  0  4G 6G 8G 9G11
  20474804.728    20474808.119    -3907512.843 8  -1065544.385 8
  23785396.562    23785400.846    14689716.460 8  13214456.232 7
  20848215.181    20848218.543   -15277310.493 8  -9982606.642 8
  20807055.844    20807061.709    -2546030.344 7     66428.091 9
 86  6 20  0 20 23.0800000  0  4G 6G 8G 9G11
  20475636.359    20475638.429    -3903142.346 9  -1062138.806 8
  23789541.765    23789548.364    14711504.542 8  13231433.966 8
  20845793.901    20845798.706   -15290027.530 9  -9992516.023 8
  20808459.577    20808463.870    -2538654.852 7     72175.223 8
 86  6 20  0 20 29.0800000  0  4G 6G 8G 9G11
  20476472.633    20476474.681    -3898750.250 9  -1058716.403 7
  23793688.169    23793694.382    14733295.214 9  13248413.713 7
  20843377.508    20843382.416   -15302729.734 8 -10002413.835 8
  20809866.913    20809871.464    -2531261.409 8     77936.355 8
 86  6 20  0 20 35.0800000  0  4G 6G 8G 9G11
  20477312.000    20477315.742    -3894336.691 9  -1055277.272 7
  23797834.741    23797841.598    14755088.380 9  13265395.390 7
  20840963.417    20840967.745   -15315416.913 8 -10012299.943 8
  20811276.655    20811281.162    -2523850.064 7     83711.433 7
 86  6 20  0 20 41.0800000  0  4G 6G 8G 9G11
  20478155.614    20478158.342    -3889901.558 8  -1051821.324 8
  23801983.772    23801988.985    14776884.005 8  13282378.999 8
  20838551.771    20838556.186   -15328089.269 8 -10022174.504 8
  20812690.888    20812695.725    -2516420.759 8     89500.512 8
 86  6 20  0 20 47.0800000  0  4G 6G 8G 9G11
  20479004.340    20479007.265    -3885444.836 8  -1048348.554 7
  23806131.740    23806137.185    14798682.161 8  13299364.572 7
  20836144.499    20836146.796   -15340746.668 8 -10032037.409 7
  20814108.245    20814113.222    -2508973.436 7     95303.603 8
 86  6 20  0 20 53.0800000  0  4G 6G 8G 9G11
  20479855.896    20479859.623    -3880966.596 8  -1044859.019 7
  23810279.159    23810285.981    14820482.768 9  13316352.059 7
  20833737.308    20833742.535   -15353389.080 8 -10041888.637 8
  20815527.713    20815533.995    -2501508.229 8    101120.656 7
 86  6 20  0 20 59.0800000  0  4G 6G 8G 9G11
  20480712.526    20480716.479    -3876466.769 8  -1041352.664 7
  23814428.736    23814435.670    14842285.844 8  13333341.448 8
  20831334.353    20831340.024   -15366016.479 9 -10051728.177 8
  20816952.107    20816956.815    -2494025.118 8    106951.648 8
 86  6 20  0 21  5.0800000  0  4G 6G 8G 9G11
  20481571.539    20481576.361    -3871945.281 8  -1037829.418 8
  23818576.959    23818583.999    14864091.424 8  13350332.804 8
  20828934.576    20828938.582   -15378628.609 8 -10061555.804 8
  20818379.079    20818385.016    -2486524.031 8    112796.665 8
 86  6 20  0 21 11.0800000  0  4G 6G 8G 9G11
  20482437.102    20482440.680    -3867402.126 8  -1034289.306 7
  23822728.108    23822734.349    14885899.481 7  13367326.097 7
  20826536.432    20826541.582   -15391225.709 8 -10071371.728 7
  20819809.255    20819816.235    -2479004.980 8    118655.659 8
 86  6 20  0 21 17.0800000  0  4G 6G 8G 9G11
  20483305.807    20483310.128    -3862837.331 8  -1030732.324 7
  23826878.660    23826885.304    14907709.967 7  13384321.282 7
  20824142.798    20824146.527   -15403807.691 8 -10081175.861 7
  20821245.095    20821249.845    -2471468.045 8    124528.601 8
 86  6 20  0 21 23.0800000  0  4G 6G 8G 9G11
  20484179.975    20484182.619    -3858250.867 8  -1027158.473 7
  23831030.051    23831033.969    14929522.899 8  13401318.371 7
  20821751.954    20821756.398   -15416374.500 8 -10090968.182 7
  20822683.281    20822686.630    -2463913.243 8    130415.455 8
 86  6 20  0 21 29.0800000  0  4G 6G 8G 9G11
  20485055.398    20485059.839    -3853642.772 8  -1023567.750 7
  23835179.759    23835185.982    14951338.219 7  13418317.320 8
  20819363.193    20819367.889   -15428926.218 9 -10100748.723 8
  20824123.445    20824128.339    -2456340.568 9    136316.251 8
 86  6 20  0 21 35.0800000  0  4G 6G 8G 9G11
  20485937.023    20485939.700    -3849013.017 8  -1019960.154 8
  23839331.612    23839338.669    14973155.916 8  13435318.118 7
  20816978.130    20816981.793   -15441462.632 8 -10110517.359 8
  20825567.327    20825573.026    -2448750.081 8    142230.914 8
 86  6 20  0 21 41.0800000  0  4G 6G 8G 9G11
  20486822.371    20486826.290    -3844361.621 8  -1016335.685 7
  23843483.905    23843490.303    14994975.911 7  13452320.720 6
  20814595.351    20814598.779   -15453983.899 8 -10120274.191 8
  20827016.620    20827021.828    -2441141.813 8    148159.442 7
 86  6 20  0 21 47.0800000  0  4G 6G 8G 9G11
  20487710.157    20487713.784    -3839688.626 9  -1012694.385 8
  23847637.750    23847643.741    15016798.238 7  13469325.127 7
  20812214.824    20812219.111   -15466490.010 8 -10130019.207 8
  20828466.028    20828471.492    -2433515.769 8    154101.816 7
 86  6 20  0 21 53.0800000  0  4G 6G 8G 9G11
  20488604.196    20488606.605    -3834993.951 9  -1009036.208 7
  23851789.805    23851796.535    15038622.799 7  13486331.254 8
  20809837.701    20809842.073   -15478980.912 9 -10139752.372 8
  20829921.699    20829927.279    -2425871.885 9    160058.096 7
 86  6 20  0 21 59.0800000  0  4G 6G 8G 9G11
  20489502.724    20489505.896    -3830277.672 8  -1005361.180 8
  23855944.006    23855949.771    15060449.614 6  13503339.163 8
  20807464.317    20807468.089   -15491456.562 8 -10149473.660 8
  20831379.435    20831385.443    -2418210.254 8    166028.207 8
 86  6 20  0 22  5.0800000  0  4G 6G 8G 9G11
  20490403.551    20490406.844    -3825539.802 9  -1001669.337 8
  23860096.561    23860103.106    15082278.569 8  13520348.728 7
  20805093.630    20805096.942   -15503916.936 8 -10159183.028 8
  20832840.631    20832845.740    -2410530.931 8    172012.088 8
 86  6 20  0 22 11.0800000  0  4G 6G 8G 9G11
  20491308.494    20491312.863    -3820780.396 8   -997960.721 8
  23864251.881    23864258.274    15104109.628 7  13537359.929 7
  20802724.250    20802728.693   -15516362.137 8 -10168880.592 9
  20834305.323    20834310.142    -2402834.007 8    178009.691 8
 86  6 20  0 22 17.0800000  0  4G 6G 8G 9G11
  20492218.787    20492221.157    -3815999.437 9   -994235.311 7
  23868407.967    23868413.168    15125942.747 7  13554372.762 6
  20800359.487    20800364.189   -15528792.162 9 -10178566.317 9
  20835774.561    20835777.965    -2395119.515 7    184020.989 8
 86  6 20  0 22 23.0800000  0  4G 6G 8G 9G11
  20493133.867    20493136.875    -3811196.873 8   -990493.059 8
  23872560.644    23872567.499    15147777.994 6  13571387.227 7
  20797996.738    20798001.060   -15541206.844 8 -10188240.098 8
  20837245.972    20837249.379    -2387387.411 9    190046.009 7
 86  6 20  0 22 29.0800000  0  4G 6G 8G 9G11
  20494049.886    20494053.449    -3806372.728 8   -986733.980 7
  23876719.536    23876724.491    15169615.333 6  13588403.328 7
  20795637.503    20795641.753   -15553606.311 9 -10197902.009 8
  20838720.304    20838725.485    -2379637.687 8    196084.754 7
 86  6 20  0 22 35.0800000  0  4G 6G 8G 9G11
  20494973.492    20494976.298    -3801526.874 8   -982957.985 8
  23880873.895    23880879.166    15191454.808 6  13605421.103 7
  20793280.607    20793285.568   -15565990.380 8 -10207551.934 8
  20840197.730    20840202.636    -2371870.295 8    202137.261 8
 86  6 20  0 22 41.0800000  0  4G 6G 8G 9G11
  20495899.846    20495902.450    -3796659.244 8   -979165.035 7
  23885028.956    23885036.283    15213296.414 6  13622440.532 7
  20790927.788    20790930.750   -15578358.905 9 -10217189.743 8
  20841679.332    20841684.240    -2364085.208 8    208203.576 7
 86  6 20  0 22 47.0800000  0  4G 6G 8G 9G11
  20496830.507    20496832.966    -3791769.895 8   -975355.151 7
  23889186.353    23889191.488    15235140.171 6  13639461.603 7
  20788576.829    20788579.594   -15590711.945 8 -10226815.492 8
  20843164.512    20843169.492    -2356282.492 8    214283.613 8
 86  6 20  0 22 53.0800000  0  4G 6G 8G 9G11
  20497764.054    20497768.016    -3786858.832 9   -971528.354 7
  23893343.002    23893349.126    15256986.002 6  13656484.329 8
  20786229.058    20786232.926   -15603049.509 9 -10236429.167 8
  20844651.665    20844656.231    -2348462.164 7    220377.368 7
 86  6 20  0 22 59.0800000  0  4G 6G 8G 9G11
  20498702.524    20498705.982    -3781926.067 9   -967684.646 7
  23897498.811    23897507.212    15278833.883 7  13673508.643 7
  20783884.674    20783888.760   -15615371.600 8 -10246030.792 9
  20846144.772    20846147.360    -2340624.290 8    226484.810 8
 86  6 20  0 23  5.0800000  0  4G 6G 8G 9G11
  20499646.050    20499650.120    -3776971.667 9   -963824.070 8
  23901658.641    23901664.048    15300683.743 7  13690534.507 7
  20781542.078    20781546.262   -15627678.235 9 -10255620.380 7
  20847639.910    20847642.201    -2332768.895 8    232605.896 7
 86  6 20  0 23 11.0800000  0  4G 6G 8G 9G11
  20500592.597    20500596.967    -3771995.606 9   -959946.629 8
  23905818.229    23905822.362    15322535.561 6  13707561.893 7
  20779203.402    20779206.571   -15639969.367 8 -10265197.886 8
  20849137.309    20849140.587    -2324896.039 9    238740.579 7
 86  6 20  0 23 17.0800000  0  4G 6G 8G 9G11
  20501544.235    20501547.069    -3766997.852 8   -956052.290 8
  23909975.496    23909982.537    15344389.283 7  13724590.758 7
  20776867.716    20776870.085   -15652245.043 8 -10274763.325 8
  20850638.545    20850642.949    -2317005.768 8    244888.851 7
 86  6 20  0 23 23.0800000  0  4G 6G 8G 9G11
  20502499.335    20502503.830    -3761978.488 8   -952141.089 7
  23914134.999    23914141.125    15366244.852 7  13741621.054 7
  20774535.089    20774538.822   -15664505.207 8 -10284316.706 8
  20852143.385    20852146.447    -2309098.058 8    251050.707 7
 86  6 20  0 23 29.0800000  0  4G 6G 8G 9G11
  20503457.084    20503460.684    -3756937.516 8   -948213.060 8
  23918294.426    23918300.958    15388102.246 7  13758652.773 7
  20772205.046    20772207.755   -15676749.910 8 -10293858.027 8
  20853652.231    20853653.806    -2301172.931 9    257226.124 8
 86  6 20  0 23 35.0800000  0  4G 6G 8G 9G11
  20504422.230    20504426.472    -3751874.876 9   -944268.159 8
  23922454.183    23922459.166    15409961.514 7  13775685.979 7
  20769877.279    20769880.274   -15688978.973 8 -10303387.170 8
  20855163.483    20855166.673    -2293230.457 8    263415.081 8
 86  6 20  0 23 41.0800000  0  4G 6G 8G 9G11
  20505388.984    20505393.309    -3746790.525 8   -940306.319 8
  23926613.836    23926620.035    15431822.672 6  13792720.630 8
  20767553.339    20767556.529   -15701192.544 9 -10312904.234 9
  20856677.394    20856681.703    -2285270.591 8    269617.572 7
 86  6 20  0 23 47.0800000  0  4G 6G 8G 9G11
  20506361.056    20506364.294    -3741684.414 8   -936327.549 8
  23930775.051    23930780.025    15453685.670 7  13809756.751 7
  20765232.184    20765235.888   -15713390.324 7 -10322408.989 9
  20858195.714    20858200.020    -2277293.254 9    275833.668 7
 86  6 20  0 23 53.0800000  0  4G 6G 8G 9G11
  20507337.066    20507340.819    -3736556.507 9   -932331.771 7
  23934936.177    23934941.019    15475550.606 7  13826794.352 7
  20762913.310    20762918.186   -15725572.407 8 -10331901.517 9
  20859716.582    20859720.402    -2269298.473 8    282063.372 7
 86  6 20  0 23 59.0800000  0  4G 6G 8G 9G11
  20508316.836    20508320.609    -3731406.778 8   -928319.004 8
  23939096.187    23939102.925    15497417.483 7  13843833.463 8
  20760598.125    20760602.079   -15737738.673 8 -10341381.718 9
  20861243.056    20861245.404    -2261286.218 7    288306.679 7
 86  6 20  0 24  5.0800000  0  4G 6G 8G 9G11
  20509300.177    20509304.868    -3726235.204 8   -924289.211 8
  23943257.059    23943264.631    15519286.232 7  13860874.021 8
  20758286.782    20758290.341   -15749889.097 8 -10350849.580 8
  20862769.504    20862773.582    -2253256.462 8    294563.636 7
 86  6 20  0 24 11.0800000  0  4G 6G 8G 9G11
  20510288.681    20510290.926    -3721041.796 9   -920242.394 7
  23947420.546    23947426.552    15541156.834 6  13877916.051 7
  20755978.185    20755981.587   -15762023.761 9 -10360305.163 7
  20864300.473    20864304.554    -2245209.274 8    300834.177 7
 86  6 20  0 24 17.0800000  0  4G 6G 8G 9G11
  20511281.905    20511284.677    -3715826.608 8   -916178.602 7
  23951581.595    23951588.304    15563029.279 7  13894959.505 8
  20753670.898    20753674.177   -15774142.554 9 -10369748.365 8
  20865836.421    20865838.396    -2237144.680 8    307118.269 8
 86  6 20  0 24 23.0800000  0  4G 6G 8G 9G11
  20512278.263    20512282.220    -3710589.612 8   -912097.831 8
  23955744.691    23955749.496    15584903.467 7  13912004.322 8
  20751369.081    20751371.771   -15786245.483 9 -10379179.226 9
  20867373.886    20867376.920    -2229062.767 8    313415.856 7
 86  6 20  0 24 29.0800000  0  4G 6G 8G 9G11
  20513278.084    20513282.042    -3705330.848 9   -908000.097 7
  23959907.773    23959912.919    15606779.339 8  13929050.445 8
  20749066.822    20749071.990   -15798332.647 8 -10388597.796 8
  20868914.614    20868917.919    -2220963.591 9    319726.910 7
 86  6 20  0 24 35.0800000  0  4G 6G 8G 9G11
  20514283.137    20514287.093    -3700050.357 9   -903885.439 8
  23964069.657    23964075.777    15628656.893 7  13946097.904 8
  20746769.779    20746774.238   -15810403.960 8 -10398004.008 8
  20870459.064    20870462.655    -2212847.125 8    326051.434 8
 86  6 20  0 24 41.0800000  0  4G 6G 8G 9G11
  20515293.054    20515297.300    -3694748.144 9   -899753.844 7
  23968233.825    23968239.752    15650536.131 8  13963146.640 8
  20744476.228    20744481.153   -15822459.432 8 -10407397.880 7
  20872007.430    20872011.510    -2204713.461 8    332389.349 8
 86  6 20  0 24 47.0800000  0  4G 6G 8G 9G11
  20516305.372    20516308.374    -3689424.184 8   -895605.303 7
  23972399.079    23972403.733    15672416.964 6  13980196.623 9
  20742184.869    20742191.402   -15834498.996 8 -10416779.359 8
  20873557.861    20873561.422    -2196562.596 8    338740.676 7
 86  6 20  0 24 53.0800000  0  4G 6G 8G 9G11
  20517323.700    20517326.933    -3684078.514 8   -891439.857 7
  23976561.202    23976567.831    15694299.390 7  13997247.877 8
  20739896.972    20739902.561   -15846522.770 8 -10426148.525 8
  20875112.667    20875115.546    -2188394.536 9    345105.402 7
 86  6 20  0 24 59.0800000  0  4G 6G 8G 9G11
  20518344.582    20518346.839    -3678711.046 8   -887257.414 9
  23980726.279    23980731.950    15716183.457 7  14014300.376 8
  20737611.472    20737615.707   -15858530.544 8 -10435505.231 9
  20876670.054    20876673.202    -2180209.312 9    351483.489 8
 86  6 20  0 25  5.0800000  0  4G 6G 8G 9G11
  20519369.349    20519375.168    -3673321.758 8   -883057.977 8
  23984890.005    23984895.537    15738069.078 8  14031354.094 9
  20735330.325    20735333.974   -15870522.328 8 -10444849.468 9
  20878231.499    20878234.848    -2172006.875 8    357875.016 7
 86  6 20  0 25 11.0800000  0  4G 6G 8G 9G11
  20520399.477    20520402.461    -3667910.661 8   -878841.552 8
  23989054.235    23989062.324    15759956.299 7  14048409.068 8
  20733049.667    20733055.599   -15882498.211 8 -10454181.329 8
  20879794.636    20879799.573    -2163787.238 8    364279.921 8
 86  6 20  0 25 17.0800000  0  4G 6G 8G 9G11
  20521433.676    20521436.991    -3662477.794 9   -874608.140 7
  23993220.665    23993226.956    15781845.032 7  14065465.227 8
  20730775.156    20730780.711   -15894458.045 8 -10463500.681 8
  20881362.093    20881365.914    -2155550.439 8    370698.199 8
 86  6 20  0 25 23.0800000  0  4G 6G 8G 9G11
  20522470.853    20522475.691    -3657023.102 9   -870357.733 8
  23997386.307    23997392.463    15803735.362 8  14082522.605 9
  20728502.780    20728506.272   -15906401.904 9 -10472807.582 9
  20882933.241    20882938.907    -2147296.502 8    377129.840 7
 86  6 20  0 25 29.0800000  0  4G 6G 8G 9G11
  20523513.329    20523517.010    -3651546.582 9   -866090.315 7
  24001552.063    24001558.500    15825627.185 7  14099581.171 9
  20726233.221    20726237.951   -15918329.648 8 -10482101.930 7
  20884506.822    20884511.703    -2139025.482 8    383574.791 8
 86  6 20  0 25 35.0800000  0  4G 6G 8G 9G11
  20524558.533    20524563.287    -3646048.328 9   -861805.966 8
  24005718.637    24005724.901    15847520.453 8  14116640.839 8
  20723965.408    20723970.331   -15930241.394 9 -10491383.799 7
  20886083.295    20886089.333    -2130737.395 8    390033.034 7
 86  6 20  0 25 41.0800000  0  4G 6G 8G 9G11
  20525609.868    20525613.952    -3640528.322 8   -857504.663 8
  24009885.229    24009891.443    15869415.132 8  14133701.633 8
  20721701.830    20721706.258   -15942137.062 8 -10500653.146 8
  20887663.775    20887669.571    -2122432.323 8    396504.536 7
 86  6 20  0 25 47.0800000  0  4G 6G 8G 9G11
  20526664.847    20526667.953    -3634986.585 8   -853186.429 7
  24014052.280    24014058.007    15891311.153 8  14150763.464 8
  20719441.346    20719445.458   -15954016.725 8 -10509910.037 8
  20889247.317    20889252.739    -2114110.267 9    402989.250 8
 86  6 20  0 25 53.0800000  0  4G 6G 8G 9G11
  20527722.992    20527727.280    -3629423.058 8   -848851.234 8
  24018217.599    24018225.366    15913208.580 8  14167826.388 8
  20717183.290    20717189.132   -15965880.336 7 -10519154.404 8
  20890834.176    20890840.386    -2105771.223 8    409487.218 7
 86  6 20  0 25 59.0800000  0  4G 6G 8G 9G11
  20528786.296    20528790.269    -3623837.698 8   -844498.994 7
  24022385.366    24022392.117    15935107.421 8  14184890.408 8
  20714929.060    20714933.743   -15977727.719 9 -10528386.123 8
  20892424.669    20892429.193    -2097415.187 8    415998.409 8
 86  6 20  0 26  5.0800000  0  4G 6G 8G 9G11
  20529853.567    20529857.849    -3618230.448 8   -840129.711 7
  24026554.642    24026559.741    15957007.743 8  14201955.590 8
  20712677.079    20712682.507   -15989558.817 8 -10537605.159 8
  20894017.912    20894023.836    -2089042.108 8    422522.891 8
 86  6 20  0 26 11.0800000  0  4G 6G 8G 9G11
  20530923.549    20530929.620    -3612601.196 8   -835743.289 8
  24030721.252    24030728.536    15978909.567 8  14219021.930 7
  20710430.945    20710435.058   -16001373.618 8 -10546811.494 8
  20895614.989    20895619.841    -2080651.903 8    429060.721 8
 86  6 20  0 26 17.0800000  0  4G 6G 8G 9G11
  20532000.315    20532003.607    -3606950.081 8   -831339.826 8
  24034888.710    24034895.137    16000812.780 8  14236089.374 8
  20708185.020    20708190.367   -16013172.052 8 -10556005.087 8
  20897214.556    20897220.480    -2072244.679 8    435611.791 8
 86  6 20  0 26 23.0800000  0  4G 6G 8G 9G11
  20533079.690    20533083.860    -3601277.087 8   -826919.322 7
  24039058.189    24039064.935    16022717.377 8  14253157.870 8
  20705943.080    20705947.050   -16024954.329 8 -10565186.081 8
  20898817.760    20898822.724    -2063820.477 8    442176.104 8
 86  6 20  0 26 29.0800000  0  4G 6G 8G 9G11
  20534164.365    20534168.173    -3595582.231 8   -822481.771 7
  24043226.098    24043233.040    16044623.223 8  14270227.345 9
  20703702.968    20703707.602   -16036720.254 7 -10574354.322 8
  20900423.708    20900429.289    -2055379.343 8    448753.617 9
 86  6 20  0 26 35.0800000  0  4G 6G 8G 9G11
  20535251.517    20535255.256    -3589865.516 8   -818027.185 7
  24047395.289    24047401.781    16066530.420 9  14287297.899 8
  20701468.012    20701473.006   -16048469.901 9 -10583509.900 9
  20902032.948    20902039.217    -2046921.322 8    455344.285 8
 86  6 20  0 26 41.0800000  0  4G 6G 8G 9G11
  20536343.543    20536346.481    -3584127.002 8   -813555.624 8
  24051564.892    24051570.578    16088438.839 8  14304369.398 8
  20699234.772    20699240.407   -16060203.207 8 -10592652.724 8
  20903645.680    20903652.090    -2038446.416 8    461948.114 8
 86  6 20  0 26 47.0800000  0  4G 6G 8G 9G11
  20537439.052    20537444.240    -3578366.664 9   -809067.056 8
  24055733.825    24055739.391    16110348.493 8  14321441.840 9
  20697005.335    20697009.388   -16071920.249 9 -10601782.880 8
  20905262.389    20905268.027    -2029954.669 8    468565.054 7
 86  6 20  0 26 53.0800000  0  4G 6G 8G 9G11
  20538539.766    20538543.499    -3572584.555 8   -804561.519 8
  24059903.115    24059909.639    16132259.267 9  14338515.165 8
  20694778.031    20694783.453   -16083620.909 9 -10610900.280 9
  20906881.272    20906887.326    -2021446.073 8    475195.137 8
 86  6 20  0 26 59.0800000  0  4G 6G 8G 9G11
  20539643.812    20539647.091    -3566780.565 9   -800038.928 8
  24064072.722    24064077.435    16154171.231 8  14355589.419 9
  20692555.274    20692560.564   -16095305.327 8 -10620005.020 8
  20908503.965    20908509.588    -2012920.677 8    481838.292 8
 86  6 20  0 27  5.0800000  0  4G 6G 8G 9G11
  20540752.845    20540756.669    -3560954.729 8   -795499.330 8
  24068242.465    24068247.561    16176084.356 8  14372664.578 9
  20690334.512    20690338.945   -16106973.226 9 -10629096.888 8
  20910130.433    20910134.768    -2004378.464 9    488494.566 8
 86  6 20  0 27 11.0800000  0  4G 6G 8G 9G11
  20541864.163    20541868.550    -3555107.073 8   -790942.711 8
  24072413.508    24072418.433    16197998.567 8  14389740.575 8
  20688117.102    20688122.626   -16118624.741 7 -10638175.988 8
  20911758.132    20911762.553    -1995819.510 8    495163.893 7
 86  6 20  0 27 17.0800000  0  4G 6G 8G 9G11
  20542982.376    20542984.438    -3549237.598 8   -786369.085 8
  24076582.470    24076589.829    16219913.913 8  14406817.462 8
  20685903.634    20685907.995   -16130259.862 8 -10647242.316 7
  20913389.237    20913394.373    -1987243.805 8    501846.265 9
 86  6 20  0 27 23.0800000  0  4G 6G 8G 9G11
  20544103.953    20544106.869    -3543346.256 8   -781778.437 9
  24080753.455    24080759.419    16241830.347 9  14423895.187 8
  20683692.570    20683698.041   -16141878.459 8 -10656295.766 7
  20915024.346    20915029.071    -1978651.401 9    508541.641 9
 86  6 20  0 27 29.0800000  0  4G 6G 8G 9G11
  20545227.324    20545232.551    -3537433.087 9   -777170.785 9
  24084924.313    24084930.557    16263747.867 8  14440973.769 9
  20681484.450    20681488.070   -16153480.662 8 -10665336.436 8
  20916663.549    20916668.130    -1970042.248 8    515250.062 8
 86  6 20  0 27 35.0800000  0  4G 6G 8G 9G11
  20546358.004    20546363.235    -3531498.042 8   -772546.071 9
  24089095.465    24089101.091    16285666.450 9  14458053.169 9
  20679279.651    20679284.488   -16165066.307 8 -10674364.206 9
  20918303.729    20918310.296    -1961416.377 8    521971.530 9
 86  6 20  0 27 41.0800000  0  4G 6G 8G 9G11
  20547491.168    20547494.904    -3525541.143 7   -767904.350 8
  24093267.488    24093272.157    16307586.073 8  14475133.406 9
  20677078.690    20677082.236   -16176635.530 7 -10683379.179 9
  20919949.000    20919955.379    -1952773.873 8    528705.938 8
 86  6 20  0 27 47.0800000  0  4G 6G 8G 9G11
  20548630.434    20548633.418    -3519562.328 8   -763245.524 8
  24097437.666    24097442.892    16329506.746 9  14492214.435 8
  20674880.954    20674884.349   -16188188.022 9 -10692381.120 8
  20921596.901    20921602.753    -1944114.660 9    535453.382 8
 86  6 20  0 27 53.0800000  0  4G 6G 8G 9G11
  20549771.004    20549775.098    -3513561.573 8   -758569.621 8
  24101610.415    24101615.082    16351428.473 8  14509296.295 8
  20672684.062    20672690.042   -16199724.035 8 -10701370.230 8
  20923247.953    20923252.733    -1935438.759 8    542213.817 8
 86  6 20  0 27 59.0800000  0  4G 6G 8G 9G11
  20550915.545    20550921.927    -3507538.873 8   -753876.608 8
  24105781.598    24105787.625    16373351.262 8  14526378.978 9
  20670492.729    20670496.565   -16211243.238 8 -10710346.221 8
  20924902.669    20924907.576    -1926746.137 7    548987.298 8
 86  6 20  0 28  5.0800000  0  4G 6G 8G 9G11
  20552066.866    20552071.836    -3501494.235 8   -749166.505 7
  24109952.681    24109958.705    16395275.103 8  14543462.473 8
  20668304.106    20668308.193   -16222745.808 8 -10719309.257 8
  20926560.015    20926565.597    -1918036.812 8    555773.781 8
 86  6 20  0 28 11.0800000  0  4G 6G 8G 9G11
  20553221.207    20553224.844    -3495427.629 8   -744439.287 8
  24114125.948    24114130.909    16417199.924 8  14560546.755 9
  20666118.830    20666123.101   -16234231.684 8 -10728259.291 8
  20928219.481    20928225.391    -1909310.864 7    562573.213 8
 86  6 20  0 28 17.0800000  0  4G 6G 8G 9G11
  20554380.422    20554385.469    -3489339.104 8   -739694.979 8
  24118297.534    24118303.240    16439125.775 9  14577631.827 9
  20663935.395    20663940.681   -16245700.796 8 -10737196.256 8
  20929884.699    20929888.647    -1900568.266 9    569385.639 8
 86  6 20  0 28 23.0800000  0  4G 6G 8G 9G11
  20555543.606    20555546.266    -3483228.571 8   -734933.522 8
  24122470.368    24122476.144    16461052.567 8  14594717.634 8
  20661756.270    20661760.767   -16257153.147 8 -10746120.161 7
  20931550.089    20931555.754    -1891809.065 7    576210.996 8
 86  6 20  0 28 29.0800000  0  4G 6G 8G 9G11
  20556709.704    20556714.755    -3477096.030 8   -730154.926 7
  24126642.570    24126648.233    16482980.406 8  14611804.247 8
  20659579.907    20659584.604   -16268588.627 7 -10755030.918 8
  20933221.429    20933225.580    -1883033.176 8    583049.343 8
 86  6 20  0 28 35.0800000  0  4G 6G 8G 9G11
  20557881.684    20557885.652    -3470941.517 8   -725359.210 8
  24130815.881    24130822.309    16504909.125 8  14628891.561 8
  20657407.394    20657411.711   -16280007.375 8 -10763928.666 7
  20934893.861    20934899.211    -1874240.719 8    589900.600 8
 86  6 20  0 28 41.0800000  0  4G 6G 8G 9G11
  20559055.997    20559061.289    -3464765.086 9   -720546.409 7
  24134989.051    24134995.471    16526838.769 8  14645979.590 8
  20655237.558    20655241.722   -16291409.236 7 -10772813.216 8
  20936570.554    20936575.420    -1865431.704 8    596764.781 7
 86  6 20  0 28 47.0800000  0  4G 6G 8G 9G11
  20560235.806    20560240.722    -3458566.744 8   -715716.533 8
  24139161.832    24139168.362    16548769.224 8  14663068.254 9
  20653072.025    20653076.269   -16302794.337 8 -10781684.711 8
  20938249.109    20938254.030    -1856606.200 8    603641.796 8
 86  6 20  0 28 53.0800000  0  4G 6G 8G 9G11
  20561420.143    20561424.665    -3452346.483 8   -710869.574 8
  24143335.729    24143342.288    16570700.469 8  14680157.530 8
  20650908.319    20650912.396   -16314162.642 9 -10790543.135 7
  20939932.126    20939937.206    -1847764.214 8    610531.643 8
 86  6 20  0 28 59.0800000  0  4G 6G 8G 9G11
  20562607.384    20562612.090    -3446104.382 8   -706005.623 7
  24147510.052    24147515.895    16592632.431 8  14697247.365 8
  20648747.316    20648751.026   -16325514.199 8 -10799388.497 8
  20941617.665    20941622.228    -1838905.870 8    617434.252 8
 86  6 20  0 29  5.0800000  0  4G 6G 8G 9G11
  20563799.027    20563803.546    -3439840.453 8   -701124.636 8
  24151682.504    24151688.842    16614565.104 8  14714337.740 8
  20646589.702    20646594.314   -16336848.954 8 -10808220.770 8
  20943307.292    20943311.744    -1830031.215 8    624349.566 8
 86  6 20  0 29 11.0800000  0  4G 6G 8G 9G11
  20564995.114    20565000.267    -3433554.616 8   -696226.576 8
  24155856.617    24155862.666    16636498.524 8  14731428.718 8
  20644437.405    20644441.144   -16348166.788 8 -10817039.848 8
  20945000.096    20945004.005    -1821140.186 8    631277.638 8
 86  6 20  0 29 17.0800000  0  4G 6G 8G 9G11
  20566195.687    20566200.791    -3427246.853 9   -691311.450 7
  24160030.229    24160037.044    16658432.645 8  14748520.234 8
  20642287.200    20642291.326   -16359467.793 8 -10825845.829 8
  20946693.448    20946697.411    -1812232.761 9    638218.498 8
 86  6 20  0 29 23.0800000  0  4G 6G 8G 9G11
  20567399.977    20567404.346    -3420917.168 8   -686379.219 8
  24164204.749    24164210.957    16680367.470 8  14765612.298 8
  20640139.618    20640143.527   -16370751.845 8 -10834638.598 8
  20948391.977    20948396.498    -1803308.977 9    645172.083 8
 86  6 20  0 29 29.0800000  0  4G 6G 8G 9G11
  20568609.673    20568614.100    -3414565.569 9   -681429.943 8
  24168379.242    24168385.335    16702303.008 8  14782704.923 7
  20637995.219    20637998.894   -16382018.909 8 -10843418.127 8
  20950093.598    20950097.432    -1794368.813 8    652138.434 8
 86  6 20  0 29 35.0800000  0  4G 6G 8G 9G11
  20569822.944    20569824.702    -3408191.978 9   -676463.499 8
  24172553.069    24172558.784    16724239.227 8  14799798.085 8
  20635854.081    20635858.546   -16393269.083 8 -10852184.504 7
  20951797.163    20951802.057    -1785412.309 8    659117.544 8
